<?xml version="1.0" encoding="UTF-8" standalone="no" ?>
<gpx xmlns="http://www.topografix.com/GPX/1/1" xmlns:xsi="http://www.w3.org/2001/XMLSchema-instance" xsi:schemaLocation="http://www.topografix.com/GPX/1/1 http://www.topografix.com/GPX/1/1/gpx.xsd" version="1.1" creator="VisuGPX - https://www.visugpx.com">
  <metadata>
    <name>Circuit bonsecours</name>
  </metadata>
  <trk>
    <name><![CDATA[Tracé actuel: 22 NOV 2020 10:21]]></name>
    <trkseg>
      <trkpt lat="49.43359" lon="1.14379">
        <ele>-28.700001</ele>
        <time>2020-12-01T09:52:48Z</time>
      </trkpt>
      <trkpt lat="49.43359" lon="1.14379">
        <ele>-28.700001</ele>
        <time>2020-12-01T09:52:48Z</time>
      </trkpt>
      <trkpt lat="49.4336" lon="1.14377">
        <ele>-28.700001</ele>
        <time>2020-12-01T09:53:02Z</time>
      </trkpt>
      <trkpt lat="49.43361" lon="1.14377">
        <ele>-27.74</ele>
        <time>2020-12-01T09:53:30Z</time>
      </trkpt>
      <trkpt lat="49.43361" lon="1.14374">
        <ele>-27.74</ele>
        <time>2020-12-01T09:53:32Z</time>
      </trkpt>
      <trkpt lat="49.43351" lon="1.14376">
        <ele>-27.74</ele>
        <time>2020-12-01T09:53:38Z</time>
      </trkpt>
      <trkpt lat="49.43351" lon="1.14381">
        <ele>-27.74</ele>
        <time>2020-12-01T09:53:48Z</time>
      </trkpt>
      <trkpt lat="49.43351" lon="1.1437">
        <ele>-27.74</ele>
        <time>2020-12-01T09:53:54Z</time>
      </trkpt>
      <trkpt lat="49.43348" lon="1.14365">
        <ele>-27.74</ele>
        <time>2020-12-01T09:53:56Z</time>
      </trkpt>
      <trkpt lat="49.43346" lon="1.14363">
        <ele>-27.74</ele>
        <time>2020-12-01T09:53:57Z</time>
      </trkpt>
      <trkpt lat="49.4333" lon="1.14363">
        <ele>-24.860001</ele>
        <time>2020-12-01T09:54:04Z</time>
      </trkpt>
      <trkpt lat="49.43327" lon="1.14357">
        <ele>-17.65</ele>
        <time>2020-12-01T09:54:07Z</time>
      </trkpt>
      <trkpt lat="49.43326" lon="1.14353">
        <ele>-12.84</ele>
        <time>2020-12-01T09:54:09Z</time>
      </trkpt>
      <trkpt lat="49.43323" lon="1.1435">
        <ele>-8.51</ele>
        <time>2020-12-01T09:54:11Z</time>
      </trkpt>
      <trkpt lat="49.43319" lon="1.14348">
        <ele>-5.15</ele>
        <time>2020-12-01T09:54:13Z</time>
      </trkpt>
      <trkpt lat="49.43315" lon="1.14349">
        <ele>-2.75</ele>
        <time>2020-12-01T09:54:14Z</time>
      </trkpt>
      <trkpt lat="49.43314" lon="1.14351">
        <ele>-2.27</ele>
        <time>2020-12-01T09:54:15Z</time>
      </trkpt>
      <trkpt lat="49.43312" lon="1.14353">
        <ele>-0.82</ele>
        <time>2020-12-01T09:54:16Z</time>
      </trkpt>
      <trkpt lat="49.4331" lon="1.14357">
        <ele>0.14</ele>
        <time>2020-12-01T09:54:17Z</time>
      </trkpt>
      <trkpt lat="49.43308" lon="1.14361">
        <ele>2.54</ele>
        <time>2020-12-01T09:54:18Z</time>
      </trkpt>
      <trkpt lat="49.43305" lon="1.14376">
        <ele>5.42</ele>
        <time>2020-12-01T09:54:21Z</time>
      </trkpt>
      <trkpt lat="49.43299" lon="1.14387">
        <ele>9.27</ele>
        <time>2020-12-01T09:54:24Z</time>
      </trkpt>
      <trkpt lat="49.43294" lon="1.14398">
        <ele>13.12</ele>
        <time>2020-12-01T09:54:27Z</time>
      </trkpt>
      <trkpt lat="49.43289" lon="1.14408">
        <ele>16.48</ele>
        <time>2020-12-01T09:54:30Z</time>
      </trkpt>
      <trkpt lat="49.43283" lon="1.14419">
        <ele>20.32</ele>
        <time>2020-12-01T09:54:33Z</time>
      </trkpt>
      <trkpt lat="49.43278" lon="1.14431">
        <ele>23.690001</ele>
        <time>2020-12-01T09:54:36Z</time>
      </trkpt>
      <trkpt lat="49.43273" lon="1.14443">
        <ele>26.57</ele>
        <time>2020-12-01T09:54:39Z</time>
      </trkpt>
      <trkpt lat="49.43267" lon="1.1446">
        <ele>29.940001</ele>
        <time>2020-12-01T09:54:43Z</time>
      </trkpt>
      <trkpt lat="49.43254" lon="1.14468">
        <ele>32.82</ele>
        <time>2020-12-01T09:54:47Z</time>
      </trkpt>
      <trkpt lat="49.43244" lon="1.14472">
        <ele>36.669998</ele>
        <time>2020-12-01T09:54:51Z</time>
      </trkpt>
      <trkpt lat="49.43233" lon="1.14469">
        <ele>40.509998</ele>
        <time>2020-12-01T09:54:56Z</time>
      </trkpt>
      <trkpt lat="49.43226" lon="1.14463">
        <ele>43.400002</ele>
        <time>2020-12-01T09:55:01Z</time>
      </trkpt>
      <trkpt lat="49.43219" lon="1.14455">
        <ele>46.759998</ele>
        <time>2020-12-01T09:55:06Z</time>
      </trkpt>
      <trkpt lat="49.43211" lon="1.14447">
        <ele>50.130001</ele>
        <time>2020-12-01T09:55:12Z</time>
      </trkpt>
      <trkpt lat="49.43209" lon="1.14446">
        <ele>50.130001</ele>
        <time>2020-12-01T09:55:13Z</time>
      </trkpt>
      <trkpt lat="49.43202" lon="1.14439">
        <ele>53.009998</ele>
        <time>2020-12-01T09:55:18Z</time>
      </trkpt>
      <trkpt lat="49.43204" lon="1.14432">
        <ele>53.970001</ele>
        <time>2020-12-01T09:55:20Z</time>
      </trkpt>
      <trkpt lat="49.43197" lon="1.14423">
        <ele>57.34</ele>
        <time>2020-12-01T09:55:26Z</time>
      </trkpt>
      <trkpt lat="49.43191" lon="1.14416">
        <ele>60.700001</ele>
        <time>2020-12-01T09:55:31Z</time>
      </trkpt>
      <trkpt lat="49.43183" lon="1.14411">
        <ele>64.550003</ele>
        <time>2020-12-01T09:55:37Z</time>
      </trkpt>
      <trkpt lat="49.43173" lon="1.14403">
        <ele>68.389999</ele>
        <time>2020-12-01T09:55:45Z</time>
      </trkpt>
      <trkpt lat="49.43172" lon="1.14403">
        <ele>68.870003</ele>
        <time>2020-12-01T09:55:46Z</time>
      </trkpt>
      <trkpt lat="49.43169" lon="1.14401">
        <ele>69.830002</ele>
        <time>2020-12-01T09:55:48Z</time>
      </trkpt>
      <trkpt lat="49.43167" lon="1.14399">
        <ele>71.269997</ele>
        <time>2020-12-01T09:55:50Z</time>
      </trkpt>
      <trkpt lat="49.43164" lon="1.14397">
        <ele>72.239998</ele>
        <time>2020-12-01T09:55:52Z</time>
      </trkpt>
      <trkpt lat="49.43162" lon="1.14394">
        <ele>73.199997</ele>
        <time>2020-12-01T09:55:54Z</time>
      </trkpt>
      <trkpt lat="49.43159" lon="1.14392">
        <ele>74.160004</ele>
        <time>2020-12-01T09:55:56Z</time>
      </trkpt>
      <trkpt lat="49.43155" lon="1.14387">
        <ele>76.080002</ele>
        <time>2020-12-01T09:56:00Z</time>
      </trkpt>
      <trkpt lat="49.43153" lon="1.14384">
        <ele>77.519997</ele>
        <time>2020-12-01T09:56:02Z</time>
      </trkpt>
      <trkpt lat="49.4315" lon="1.14382">
        <ele>78.480003</ele>
        <time>2020-12-01T09:56:04Z</time>
      </trkpt>
      <trkpt lat="49.43147" lon="1.14377">
        <ele>80.889999</ele>
        <time>2020-12-01T09:56:09Z</time>
      </trkpt>
      <trkpt lat="49.43144" lon="1.14374">
        <ele>83.290001</ele>
        <time>2020-12-01T09:56:21Z</time>
      </trkpt>
      <trkpt lat="49.43143" lon="1.14373">
        <ele>83.290001</ele>
        <time>2020-12-01T09:56:22Z</time>
      </trkpt>
      <trkpt lat="49.43141" lon="1.14372">
        <ele>83.769997</ele>
        <time>2020-12-01T09:56:23Z</time>
      </trkpt>
      <trkpt lat="49.4314" lon="1.14371">
        <ele>84.25</ele>
        <time>2020-12-01T09:56:24Z</time>
      </trkpt>
      <trkpt lat="49.4314" lon="1.1437">
        <ele>84.730003</ele>
        <time>2020-12-01T09:56:25Z</time>
      </trkpt>
      <trkpt lat="49.43139" lon="1.14368">
        <ele>84.730003</ele>
        <time>2020-12-01T09:56:26Z</time>
      </trkpt>
      <trkpt lat="49.43138" lon="1.14366">
        <ele>85.209999</ele>
        <time>2020-12-01T09:56:27Z</time>
      </trkpt>
      <trkpt lat="49.43137" lon="1.14365">
        <ele>85.690002</ele>
        <time>2020-12-01T09:56:28Z</time>
      </trkpt>
      <trkpt lat="49.43136" lon="1.14364">
        <ele>85.690002</ele>
        <time>2020-12-01T09:56:29Z</time>
      </trkpt>
      <trkpt lat="49.43135" lon="1.14362">
        <ele>86.18</ele>
        <time>2020-12-01T09:56:30Z</time>
      </trkpt>
      <trkpt lat="49.43134" lon="1.14361">
        <ele>86.660004</ele>
        <time>2020-12-01T09:56:31Z</time>
      </trkpt>
      <trkpt lat="49.43133" lon="1.1436">
        <ele>86.660004</ele>
        <time>2020-12-01T09:56:32Z</time>
      </trkpt>
      <trkpt lat="49.43132" lon="1.14358">
        <ele>87.620003</ele>
        <time>2020-12-01T09:56:33Z</time>
      </trkpt>
      <trkpt lat="49.43131" lon="1.14357">
        <ele>87.620003</ele>
        <time>2020-12-01T09:56:34Z</time>
      </trkpt>
      <trkpt lat="49.43124" lon="1.14343">
        <ele>90.980003</ele>
        <time>2020-12-01T09:56:45Z</time>
      </trkpt>
      <trkpt lat="49.43114" lon="1.14332">
        <ele>93.870003</ele>
        <time>2020-12-01T09:56:55Z</time>
      </trkpt>
      <trkpt lat="49.43112" lon="1.14331">
        <ele>94.349998</ele>
        <time>2020-12-01T09:56:56Z</time>
      </trkpt>
      <trkpt lat="49.43111" lon="1.1433">
        <ele>94.349998</ele>
        <time>2020-12-01T09:56:57Z</time>
      </trkpt>
      <trkpt lat="49.4311" lon="1.14329">
        <ele>95.309998</ele>
        <time>2020-12-01T09:56:58Z</time>
      </trkpt>
      <trkpt lat="49.43109" lon="1.14328">
        <ele>95.309998</ele>
        <time>2020-12-01T09:56:59Z</time>
      </trkpt>
      <trkpt lat="49.43103" lon="1.14321">
        <ele>97.709999</ele>
        <time>2020-12-01T09:57:05Z</time>
      </trkpt>
      <trkpt lat="49.43103" lon="1.14319">
        <ele>98.190002</ele>
        <time>2020-12-01T09:57:06Z</time>
      </trkpt>
      <trkpt lat="49.43103" lon="1.14318">
        <ele>98.190002</ele>
        <time>2020-12-01T09:57:07Z</time>
      </trkpt>
      <trkpt lat="49.43104" lon="1.14295">
        <ele>101.559998</ele>
        <time>2020-12-01T09:57:19Z</time>
      </trkpt>
      <trkpt lat="49.43105" lon="1.14293">
        <ele>101.559998</ele>
        <time>2020-12-01T09:57:20Z</time>
      </trkpt>
      <trkpt lat="49.43116" lon="1.14285">
        <ele>101.559998</ele>
        <time>2020-12-01T09:57:25Z</time>
      </trkpt>
      <trkpt lat="49.43117" lon="1.14282">
        <ele>101.559998</ele>
        <time>2020-12-01T09:57:26Z</time>
      </trkpt>
      <trkpt lat="49.43118" lon="1.14279">
        <ele>101.559998</ele>
        <time>2020-12-01T09:57:27Z</time>
      </trkpt>
      <trkpt lat="49.43117" lon="1.14271">
        <ele>101.559998</ele>
        <time>2020-12-01T09:57:31Z</time>
      </trkpt>
      <trkpt lat="49.43116" lon="1.14269">
        <ele>102.040001</ele>
        <time>2020-12-01T09:57:32Z</time>
      </trkpt>
      <trkpt lat="49.43111" lon="1.14258">
        <ele>103.959999</ele>
        <time>2020-12-01T09:57:39Z</time>
      </trkpt>
      <trkpt lat="49.43112" lon="1.14256">
        <ele>103.959999</ele>
        <time>2020-12-01T09:57:40Z</time>
      </trkpt>
      <trkpt lat="49.43113" lon="1.14249">
        <ele>104.919998</ele>
        <time>2020-12-01T09:57:43Z</time>
      </trkpt>
      <trkpt lat="49.43117" lon="1.14237">
        <ele>105.879997</ele>
        <time>2020-12-01T09:57:50Z</time>
      </trkpt>
      <trkpt lat="49.43119" lon="1.14227">
        <ele>107.32</ele>
        <time>2020-12-01T09:58:05Z</time>
      </trkpt>
      <trkpt lat="49.43117" lon="1.14224">
        <ele>107.32</ele>
        <time>2020-12-01T09:58:19Z</time>
      </trkpt>
      <trkpt lat="49.43116" lon="1.14218">
        <ele>107.809998</ele>
        <time>2020-12-01T09:58:24Z</time>
      </trkpt>
      <trkpt lat="49.43115" lon="1.14215">
        <ele>108.769997</ele>
        <time>2020-12-01T09:58:26Z</time>
      </trkpt>
      <trkpt lat="49.43114" lon="1.14208">
        <ele>111.169998</ele>
        <time>2020-12-01T09:58:31Z</time>
      </trkpt>
      <trkpt lat="49.43111" lon="1.14198">
        <ele>113.089996</ele>
        <time>2020-12-01T09:58:36Z</time>
      </trkpt>
      <trkpt lat="49.43109" lon="1.14192">
        <ele>114.050003</ele>
        <time>2020-12-01T09:58:39Z</time>
      </trkpt>
      <trkpt lat="49.43105" lon="1.14176">
        <ele>117.900002</ele>
        <time>2020-12-01T09:58:46Z</time>
      </trkpt>
      <trkpt lat="49.43103" lon="1.14171">
        <ele>118.860001</ele>
        <time>2020-12-01T09:58:48Z</time>
      </trkpt>
      <trkpt lat="49.43101" lon="1.14145">
        <ele>122.220001</ele>
        <time>2020-12-01T09:59:01Z</time>
      </trkpt>
      <trkpt lat="49.431" lon="1.14141">
        <ele>122.709999</ele>
        <time>2020-12-01T09:59:03Z</time>
      </trkpt>
      <trkpt lat="49.43096" lon="1.14128">
        <ele>124.629997</ele>
        <time>2020-12-01T09:59:10Z</time>
      </trkpt>
      <trkpt lat="49.43096" lon="1.14126">
        <ele>125.110001</ele>
        <time>2020-12-01T09:59:11Z</time>
      </trkpt>
      <trkpt lat="49.43102" lon="1.14102">
        <ele>126.550003</ele>
        <time>2020-12-01T09:59:19Z</time>
      </trkpt>
      <trkpt lat="49.43118" lon="1.14101">
        <ele>124.629997</ele>
        <time>2020-12-01T09:59:25Z</time>
      </trkpt>
      <trkpt lat="49.43138" lon="1.14098">
        <ele>122.709999</ele>
        <time>2020-12-01T09:59:29Z</time>
      </trkpt>
      <trkpt lat="49.43155" lon="1.14094">
        <ele>118.379997</ele>
        <time>2020-12-01T09:59:33Z</time>
      </trkpt>
      <trkpt lat="49.43159" lon="1.14091">
        <ele>117.900002</ele>
        <time>2020-12-01T09:59:34Z</time>
      </trkpt>
      <trkpt lat="49.4316" lon="1.14087">
        <ele>117.900002</ele>
        <time>2020-12-01T09:59:35Z</time>
      </trkpt>
      <trkpt lat="49.4316" lon="1.14083">
        <ele>116.940002</ele>
        <time>2020-12-01T09:59:36Z</time>
      </trkpt>
      <trkpt lat="49.43164" lon="1.14041">
        <ele>117.900002</ele>
        <time>2020-12-01T09:59:43Z</time>
      </trkpt>
      <trkpt lat="49.43163" lon="1.14015">
        <ele>119.339996</ele>
        <time>2020-12-01T09:59:47Z</time>
      </trkpt>
      <trkpt lat="49.43158" lon="1.13981">
        <ele>121.260002</ele>
        <time>2020-12-01T09:59:52Z</time>
      </trkpt>
      <trkpt lat="49.43144" lon="1.13964">
        <ele>123.669998</ele>
        <time>2020-12-01T09:59:59Z</time>
      </trkpt>
      <trkpt lat="49.43137" lon="1.13962">
        <ele>126.07</ele>
        <time>2020-12-01T10:00:02Z</time>
      </trkpt>
      <trkpt lat="49.43134" lon="1.13949">
        <ele>127.029999</ele>
        <time>2020-12-01T10:00:06Z</time>
      </trkpt>
      <trkpt lat="49.43139" lon="1.13921">
        <ele>125.589996</ele>
        <time>2020-12-01T10:00:11Z</time>
      </trkpt>
      <trkpt lat="49.43147" lon="1.13905">
        <ele>123.190002</ele>
        <time>2020-12-01T10:00:14Z</time>
      </trkpt>
      <trkpt lat="49.43149" lon="1.13897">
        <ele>120.779999</ele>
        <time>2020-12-01T10:00:15Z</time>
      </trkpt>
      <trkpt lat="49.43149" lon="1.1389">
        <ele>120.779999</ele>
        <time>2020-12-01T10:00:16Z</time>
      </trkpt>
      <trkpt lat="49.4315" lon="1.13864">
        <ele>116.940002</ele>
        <time>2020-12-01T10:00:20Z</time>
      </trkpt>
      <trkpt lat="49.4315" lon="1.13859">
        <ele>115.980003</ele>
        <time>2020-12-01T10:00:21Z</time>
      </trkpt>
      <trkpt lat="49.4315" lon="1.13854">
        <ele>115.5</ele>
        <time>2020-12-01T10:00:22Z</time>
      </trkpt>
      <trkpt lat="49.43148" lon="1.13848">
        <ele>115.5</ele>
        <time>2020-12-01T10:00:23Z</time>
      </trkpt>
      <trkpt lat="49.43142" lon="1.13822">
        <ele>116.940002</ele>
        <time>2020-12-01T10:00:28Z</time>
      </trkpt>
      <trkpt lat="49.43137" lon="1.13801">
        <ele>120.300003</ele>
        <time>2020-12-01T10:00:34Z</time>
      </trkpt>
      <trkpt lat="49.43136" lon="1.13797">
        <ele>120.300003</ele>
        <time>2020-12-01T10:00:35Z</time>
      </trkpt>
      <trkpt lat="49.43133" lon="1.13789">
        <ele>122.709999</ele>
        <time>2020-12-01T10:00:38Z</time>
      </trkpt>
      <trkpt lat="49.43132" lon="1.13785">
        <ele>122.220001</ele>
        <time>2020-12-01T10:00:39Z</time>
      </trkpt>
      <trkpt lat="49.4313" lon="1.1378">
        <ele>123.190002</ele>
        <time>2020-12-01T10:00:40Z</time>
      </trkpt>
      <trkpt lat="49.43129" lon="1.13776">
        <ele>123.669998</ele>
        <time>2020-12-01T10:00:41Z</time>
      </trkpt>
      <trkpt lat="49.43128" lon="1.13772">
        <ele>124.150002</ele>
        <time>2020-12-01T10:00:42Z</time>
      </trkpt>
      <trkpt lat="49.43126" lon="1.13768">
        <ele>124.150002</ele>
        <time>2020-12-01T10:00:43Z</time>
      </trkpt>
      <trkpt lat="49.43114" lon="1.13722">
        <ele>127.029999</ele>
        <time>2020-12-01T10:00:53Z</time>
      </trkpt>
      <trkpt lat="49.43103" lon="1.13677">
        <ele>129.429993</ele>
        <time>2020-12-01T10:01:04Z</time>
      </trkpt>
      <trkpt lat="49.43107" lon="1.13632">
        <ele>129.919998</ele>
        <time>2020-12-01T10:01:14Z</time>
      </trkpt>
      <trkpt lat="49.4311" lon="1.13619">
        <ele>127.510002</ele>
        <time>2020-12-01T10:01:16Z</time>
      </trkpt>
      <trkpt lat="49.43113" lon="1.13611">
        <ele>127.029999</ele>
        <time>2020-12-01T10:01:17Z</time>
      </trkpt>
      <trkpt lat="49.43115" lon="1.13604">
        <ele>125.589996</ele>
        <time>2020-12-01T10:01:18Z</time>
      </trkpt>
      <trkpt lat="49.43116" lon="1.13598">
        <ele>124.629997</ele>
        <time>2020-12-01T10:01:19Z</time>
      </trkpt>
      <trkpt lat="49.43117" lon="1.13593">
        <ele>124.629997</ele>
        <time>2020-12-01T10:01:20Z</time>
      </trkpt>
      <trkpt lat="49.43117" lon="1.1359">
        <ele>124.629997</ele>
        <time>2020-12-01T10:01:21Z</time>
      </trkpt>
      <trkpt lat="49.43117" lon="1.13584">
        <ele>124.629997</ele>
        <time>2020-12-01T10:01:23Z</time>
      </trkpt>
      <trkpt lat="49.43116" lon="1.13582">
        <ele>124.629997</ele>
        <time>2020-12-01T10:01:24Z</time>
      </trkpt>
      <trkpt lat="49.43115" lon="1.13579">
        <ele>124.629997</ele>
        <time>2020-12-01T10:01:25Z</time>
      </trkpt>
      <trkpt lat="49.43114" lon="1.13576">
        <ele>124.629997</ele>
        <time>2020-12-01T10:01:26Z</time>
      </trkpt>
      <trkpt lat="49.43112" lon="1.13572">
        <ele>126.07</ele>
        <time>2020-12-01T10:01:27Z</time>
      </trkpt>
      <trkpt lat="49.4311" lon="1.13567">
        <ele>126.07</ele>
        <time>2020-12-01T10:01:28Z</time>
      </trkpt>
      <trkpt lat="49.43098" lon="1.13526">
        <ele>127.029999</ele>
        <time>2020-12-01T10:01:35Z</time>
      </trkpt>
      <trkpt lat="49.43097" lon="1.13518">
        <ele>127.029999</ele>
        <time>2020-12-01T10:01:36Z</time>
      </trkpt>
      <trkpt lat="49.43095" lon="1.1351">
        <ele>127.029999</ele>
        <time>2020-12-01T10:01:37Z</time>
      </trkpt>
      <trkpt lat="49.43091" lon="1.13495">
        <ele>127.029999</ele>
        <time>2020-12-01T10:01:39Z</time>
      </trkpt>
      <trkpt lat="49.43088" lon="1.13487">
        <ele>127.029999</ele>
        <time>2020-12-01T10:01:40Z</time>
      </trkpt>
      <trkpt lat="49.43084" lon="1.1348">
        <ele>126.07</ele>
        <time>2020-12-01T10:01:41Z</time>
      </trkpt>
      <trkpt lat="49.43077" lon="1.13468">
        <ele>126.07</ele>
        <time>2020-12-01T10:01:43Z</time>
      </trkpt>
      <trkpt lat="49.4307" lon="1.13455">
        <ele>127.510002</ele>
        <time>2020-12-01T10:01:45Z</time>
      </trkpt>
      <trkpt lat="49.43067" lon="1.13449">
        <ele>127.510002</ele>
        <time>2020-12-01T10:01:46Z</time>
      </trkpt>
      <trkpt lat="49.43063" lon="1.13444">
        <ele>127.510002</ele>
        <time>2020-12-01T10:01:47Z</time>
      </trkpt>
      <trkpt lat="49.43058" lon="1.13441">
        <ele>127.989998</ele>
        <time>2020-12-01T10:01:48Z</time>
      </trkpt>
      <trkpt lat="49.43054" lon="1.13437">
        <ele>127.989998</ele>
        <time>2020-12-01T10:01:49Z</time>
      </trkpt>
      <trkpt lat="49.43051" lon="1.13433">
        <ele>128.470001</ele>
        <time>2020-12-01T10:01:50Z</time>
      </trkpt>
      <trkpt lat="49.43048" lon="1.13429">
        <ele>128.470001</ele>
        <time>2020-12-01T10:01:51Z</time>
      </trkpt>
      <trkpt lat="49.43046" lon="1.13424">
        <ele>128.470001</ele>
        <time>2020-12-01T10:01:52Z</time>
      </trkpt>
      <trkpt lat="49.43043" lon="1.13418">
        <ele>128.470001</ele>
        <time>2020-12-01T10:01:53Z</time>
      </trkpt>
      <trkpt lat="49.43041" lon="1.1341">
        <ele>128.470001</ele>
        <time>2020-12-01T10:01:54Z</time>
      </trkpt>
      <trkpt lat="49.43035" lon="1.13396">
        <ele>128.470001</ele>
        <time>2020-12-01T10:01:56Z</time>
      </trkpt>
      <trkpt lat="49.43031" lon="1.1339">
        <ele>128.470001</ele>
        <time>2020-12-01T10:01:57Z</time>
      </trkpt>
      <trkpt lat="49.4302" lon="1.13374">
        <ele>129.429993</ele>
        <time>2020-12-01T10:02:00Z</time>
      </trkpt>
      <trkpt lat="49.43009" lon="1.13353">
        <ele>130.399994</ele>
        <time>2020-12-01T10:02:04Z</time>
      </trkpt>
      <trkpt lat="49.43004" lon="1.1334">
        <ele>130.880005</ele>
        <time>2020-12-01T10:02:06Z</time>
      </trkpt>
      <trkpt lat="49.43001" lon="1.13334">
        <ele>130.880005</ele>
        <time>2020-12-01T10:02:07Z</time>
      </trkpt>
      <trkpt lat="49.42997" lon="1.13328">
        <ele>130.880005</ele>
        <time>2020-12-01T10:02:08Z</time>
      </trkpt>
      <trkpt lat="49.42989" lon="1.13315">
        <ele>130.880005</ele>
        <time>2020-12-01T10:02:11Z</time>
      </trkpt>
      <trkpt lat="49.42989" lon="1.13307">
        <ele>130.880005</ele>
        <time>2020-12-01T10:02:12Z</time>
      </trkpt>
      <trkpt lat="49.42991" lon="1.13301">
        <ele>128.470001</ele>
        <time>2020-12-01T10:02:13Z</time>
      </trkpt>
      <trkpt lat="49.42992" lon="1.13294">
        <ele>127.989998</ele>
        <time>2020-12-01T10:02:14Z</time>
      </trkpt>
      <trkpt lat="49.42993" lon="1.13287">
        <ele>126.550003</ele>
        <time>2020-12-01T10:02:15Z</time>
      </trkpt>
      <trkpt lat="49.42993" lon="1.13281">
        <ele>126.07</ele>
        <time>2020-12-01T10:02:16Z</time>
      </trkpt>
      <trkpt lat="49.42992" lon="1.13275">
        <ele>126.07</ele>
        <time>2020-12-01T10:02:17Z</time>
      </trkpt>
      <trkpt lat="49.42988" lon="1.13253">
        <ele>126.07</ele>
        <time>2020-12-01T10:02:21Z</time>
      </trkpt>
      <trkpt lat="49.42985" lon="1.13249">
        <ele>126.07</ele>
        <time>2020-12-01T10:02:22Z</time>
      </trkpt>
      <trkpt lat="49.42982" lon="1.13246">
        <ele>126.07</ele>
        <time>2020-12-01T10:02:23Z</time>
      </trkpt>
      <trkpt lat="49.42981" lon="1.13243">
        <ele>127.029999</ele>
        <time>2020-12-01T10:02:24Z</time>
      </trkpt>
      <trkpt lat="49.4298" lon="1.1324">
        <ele>127.989998</ele>
        <time>2020-12-01T10:02:25Z</time>
      </trkpt>
      <trkpt lat="49.42979" lon="1.13235">
        <ele>127.989998</ele>
        <time>2020-12-01T10:02:26Z</time>
      </trkpt>
      <trkpt lat="49.42975" lon="1.13187">
        <ele>127.510002</ele>
        <time>2020-12-01T10:02:35Z</time>
      </trkpt>
      <trkpt lat="49.42977" lon="1.13166">
        <ele>122.709999</ele>
        <time>2020-12-01T10:02:39Z</time>
      </trkpt>
      <trkpt lat="49.42979" lon="1.13151">
        <ele>120.300003</ele>
        <time>2020-12-01T10:02:42Z</time>
      </trkpt>
      <trkpt lat="49.42979" lon="1.13146">
        <ele>119.82</ele>
        <time>2020-12-01T10:02:43Z</time>
      </trkpt>
      <trkpt lat="49.42977" lon="1.13142">
        <ele>119.82</ele>
        <time>2020-12-01T10:02:44Z</time>
      </trkpt>
      <trkpt lat="49.42967" lon="1.13111">
        <ele>123.190002</ele>
        <time>2020-12-01T10:02:53Z</time>
      </trkpt>
      <trkpt lat="49.42966" lon="1.13109">
        <ele>123.190002</ele>
        <time>2020-12-01T10:02:54Z</time>
      </trkpt>
      <trkpt lat="49.42965" lon="1.13106">
        <ele>124.150002</ele>
        <time>2020-12-01T10:02:55Z</time>
      </trkpt>
      <trkpt lat="49.42964" lon="1.13102">
        <ele>124.150002</ele>
        <time>2020-12-01T10:02:56Z</time>
      </trkpt>
      <trkpt lat="49.42962" lon="1.13098">
        <ele>124.629997</ele>
        <time>2020-12-01T10:02:57Z</time>
      </trkpt>
      <trkpt lat="49.42961" lon="1.13094">
        <ele>124.629997</ele>
        <time>2020-12-01T10:02:58Z</time>
      </trkpt>
      <trkpt lat="49.42961" lon="1.13091">
        <ele>125.589996</ele>
        <time>2020-12-01T10:02:59Z</time>
      </trkpt>
      <trkpt lat="49.42962" lon="1.13087">
        <ele>125.589996</ele>
        <time>2020-12-01T10:03:00Z</time>
      </trkpt>
      <trkpt lat="49.42962" lon="1.13083">
        <ele>125.589996</ele>
        <time>2020-12-01T10:03:01Z</time>
      </trkpt>
      <trkpt lat="49.42966" lon="1.13074">
        <ele>122.709999</ele>
        <time>2020-12-01T10:03:03Z</time>
      </trkpt>
      <trkpt lat="49.42969" lon="1.13066">
        <ele>121.739998</ele>
        <time>2020-12-01T10:03:05Z</time>
      </trkpt>
      <trkpt lat="49.42971" lon="1.13062">
        <ele>120.779999</ele>
        <time>2020-12-01T10:03:06Z</time>
      </trkpt>
      <trkpt lat="49.42972" lon="1.13059">
        <ele>119.82</ele>
        <time>2020-12-01T10:03:07Z</time>
      </trkpt>
      <trkpt lat="49.42975" lon="1.13055">
        <ele>118.379997</ele>
        <time>2020-12-01T10:03:08Z</time>
      </trkpt>
      <trkpt lat="49.42978" lon="1.13051">
        <ele>117.419998</ele>
        <time>2020-12-01T10:03:09Z</time>
      </trkpt>
      <trkpt lat="49.4298" lon="1.13047">
        <ele>116.459999</ele>
        <time>2020-12-01T10:03:10Z</time>
      </trkpt>
      <trkpt lat="49.42983" lon="1.13042">
        <ele>115.5</ele>
        <time>2020-12-01T10:03:11Z</time>
      </trkpt>
      <trkpt lat="49.42985" lon="1.13037">
        <ele>114.529999</ele>
        <time>2020-12-01T10:03:12Z</time>
      </trkpt>
      <trkpt lat="49.42994" lon="1.13013">
        <ele>111.650002</ele>
        <time>2020-12-01T10:03:16Z</time>
      </trkpt>
      <trkpt lat="49.42997" lon="1.13007">
        <ele>111.169998</ele>
        <time>2020-12-01T10:03:17Z</time>
      </trkpt>
      <trkpt lat="49.43" lon="1.13001">
        <ele>110.690002</ele>
        <time>2020-12-01T10:03:18Z</time>
      </trkpt>
      <trkpt lat="49.43003" lon="1.12997">
        <ele>110.690002</ele>
        <time>2020-12-01T10:03:19Z</time>
      </trkpt>
      <trkpt lat="49.43003" lon="1.12994">
        <ele>110.690002</ele>
        <time>2020-12-01T10:03:20Z</time>
      </trkpt>
      <trkpt lat="49.43004" lon="1.1299">
        <ele>110.690002</ele>
        <time>2020-12-01T10:03:21Z</time>
      </trkpt>
      <trkpt lat="49.43003" lon="1.12988">
        <ele>110.690002</ele>
        <time>2020-12-01T10:03:22Z</time>
      </trkpt>
      <trkpt lat="49.43001" lon="1.12986">
        <ele>110.690002</ele>
        <time>2020-12-01T10:03:23Z</time>
      </trkpt>
      <trkpt lat="49.43" lon="1.12984">
        <ele>112.129997</ele>
        <time>2020-12-01T10:03:24Z</time>
      </trkpt>
      <trkpt lat="49.42998" lon="1.12984">
        <ele>113.089996</ele>
        <time>2020-12-01T10:03:26Z</time>
      </trkpt>
      <trkpt lat="49.42992" lon="1.12983">
        <ele>114.050003</ele>
        <time>2020-12-01T10:03:29Z</time>
      </trkpt>
      <trkpt lat="49.4299" lon="1.12982">
        <ele>115.010002</ele>
        <time>2020-12-01T10:03:30Z</time>
      </trkpt>
      <trkpt lat="49.42989" lon="1.12981">
        <ele>115.010002</ele>
        <time>2020-12-01T10:03:31Z</time>
      </trkpt>
      <trkpt lat="49.42988" lon="1.1298">
        <ele>115.980003</ele>
        <time>2020-12-01T10:03:32Z</time>
      </trkpt>
      <trkpt lat="49.42987" lon="1.12978">
        <ele>116.459999</ele>
        <time>2020-12-01T10:03:33Z</time>
      </trkpt>
      <trkpt lat="49.42985" lon="1.12977">
        <ele>116.940002</ele>
        <time>2020-12-01T10:03:34Z</time>
      </trkpt>
      <trkpt lat="49.42982" lon="1.12974">
        <ele>118.379997</ele>
        <time>2020-12-01T10:03:37Z</time>
      </trkpt>
      <trkpt lat="49.4298" lon="1.12973">
        <ele>118.860001</ele>
        <time>2020-12-01T10:03:38Z</time>
      </trkpt>
      <trkpt lat="49.42972" lon="1.1297">
        <ele>122.220001</ele>
        <time>2020-12-01T10:03:45Z</time>
      </trkpt>
      <trkpt lat="49.4297" lon="1.1297">
        <ele>123.190002</ele>
        <time>2020-12-01T10:03:47Z</time>
      </trkpt>
      <trkpt lat="49.42968" lon="1.1297">
        <ele>124.629997</ele>
        <time>2020-12-01T10:03:50Z</time>
      </trkpt>
      <trkpt lat="49.42967" lon="1.12975">
        <ele>127.510002</ele>
        <time>2020-12-01T10:03:54Z</time>
      </trkpt>
      <trkpt lat="49.42965" lon="1.12983">
        <ele>129.429993</ele>
        <time>2020-12-01T10:03:59Z</time>
      </trkpt>
      <trkpt lat="49.42963" lon="1.12985">
        <ele>130.399994</ele>
        <time>2020-12-01T10:04:00Z</time>
      </trkpt>
      <trkpt lat="49.42944" lon="1.12999">
        <ele>133.759995</ele>
        <time>2020-12-01T10:04:08Z</time>
      </trkpt>
      <trkpt lat="49.42934" lon="1.12965">
        <ele>133.759995</ele>
        <time>2020-12-01T10:04:20Z</time>
      </trkpt>
      <trkpt lat="49.42948" lon="1.12916">
        <ele>133.759995</ele>
        <time>2020-12-01T10:04:31Z</time>
      </trkpt>
      <trkpt lat="49.42951" lon="1.12913">
        <ele>133.759995</ele>
        <time>2020-12-01T10:04:32Z</time>
      </trkpt>
      <trkpt lat="49.42955" lon="1.12912">
        <ele>133.759995</ele>
        <time>2020-12-01T10:04:33Z</time>
      </trkpt>
      <trkpt lat="49.43005" lon="1.12903">
        <ele>134.240005</ele>
        <time>2020-12-01T10:04:45Z</time>
      </trkpt>
      <trkpt lat="49.4303" lon="1.12895">
        <ele>134.240005</ele>
        <time>2020-12-01T10:04:51Z</time>
      </trkpt>
      <trkpt lat="49.43047" lon="1.12894">
        <ele>133.279999</ele>
        <time>2020-12-01T10:04:55Z</time>
      </trkpt>
      <trkpt lat="49.43052" lon="1.12896">
        <ele>133.279999</ele>
        <time>2020-12-01T10:04:56Z</time>
      </trkpt>
      <trkpt lat="49.43057" lon="1.12898">
        <ele>133.279999</ele>
        <time>2020-12-01T10:04:57Z</time>
      </trkpt>
      <trkpt lat="49.43095" lon="1.12903">
        <ele>130.880005</ele>
        <time>2020-12-01T10:05:06Z</time>
      </trkpt>
      <trkpt lat="49.43099" lon="1.12902">
        <ele>130.880005</ele>
        <time>2020-12-01T10:05:07Z</time>
      </trkpt>
      <trkpt lat="49.43117" lon="1.1289">
        <ele>131.839996</ele>
        <time>2020-12-01T10:05:15Z</time>
      </trkpt>
      <trkpt lat="49.4314" lon="1.12867">
        <ele>134.720001</ele>
        <time>2020-12-01T10:05:24Z</time>
      </trkpt>
      <trkpt lat="49.43157" lon="1.12825">
        <ele>134.720001</ele>
        <time>2020-12-01T10:05:33Z</time>
      </trkpt>
      <trkpt lat="49.4316" lon="1.12773">
        <ele>134.720001</ele>
        <time>2020-12-01T10:05:41Z</time>
      </trkpt>
      <trkpt lat="49.43159" lon="1.12767">
        <ele>134.720001</ele>
        <time>2020-12-01T10:05:42Z</time>
      </trkpt>
      <trkpt lat="49.4316" lon="1.12716">
        <ele>133.279999</ele>
        <time>2020-12-01T10:05:49Z</time>
      </trkpt>
      <trkpt lat="49.43149" lon="1.12671">
        <ele>135.199997</ele>
        <time>2020-12-01T10:05:57Z</time>
      </trkpt>
      <trkpt lat="49.43147" lon="1.1266">
        <ele>136.160004</ele>
        <time>2020-12-01T10:05:59Z</time>
      </trkpt>
      <trkpt lat="49.43135" lon="1.12622">
        <ele>137.130005</ele>
        <time>2020-12-01T10:06:07Z</time>
      </trkpt>
      <trkpt lat="49.43126" lon="1.12597">
        <ele>138.570007</ele>
        <time>2020-12-01T10:06:12Z</time>
      </trkpt>
      <trkpt lat="49.43126" lon="1.12589">
        <ele>138.570007</ele>
        <time>2020-12-01T10:06:13Z</time>
      </trkpt>
      <trkpt lat="49.43126" lon="1.12585">
        <ele>139.050003</ele>
        <time>2020-12-01T10:06:14Z</time>
      </trkpt>
      <trkpt lat="49.43125" lon="1.12579">
        <ele>139.050003</ele>
        <time>2020-12-01T10:06:15Z</time>
      </trkpt>
      <trkpt lat="49.43125" lon="1.12574">
        <ele>139.050003</ele>
        <time>2020-12-01T10:06:16Z</time>
      </trkpt>
      <trkpt lat="49.43127" lon="1.1257">
        <ele>139.050003</ele>
        <time>2020-12-01T10:06:17Z</time>
      </trkpt>
      <trkpt lat="49.43129" lon="1.12565">
        <ele>139.050003</ele>
        <time>2020-12-01T10:06:18Z</time>
      </trkpt>
      <trkpt lat="49.4313" lon="1.1256">
        <ele>139.050003</ele>
        <time>2020-12-01T10:06:19Z</time>
      </trkpt>
      <trkpt lat="49.43131" lon="1.12554">
        <ele>138.570007</ele>
        <time>2020-12-01T10:06:20Z</time>
      </trkpt>
      <trkpt lat="49.43131" lon="1.12548">
        <ele>138.570007</ele>
        <time>2020-12-01T10:06:21Z</time>
      </trkpt>
      <trkpt lat="49.4313" lon="1.12541">
        <ele>138.570007</ele>
        <time>2020-12-01T10:06:22Z</time>
      </trkpt>
      <trkpt lat="49.43129" lon="1.12534">
        <ele>138.570007</ele>
        <time>2020-12-01T10:06:23Z</time>
      </trkpt>
      <trkpt lat="49.43129" lon="1.12527">
        <ele>138.570007</ele>
        <time>2020-12-01T10:06:24Z</time>
      </trkpt>
      <trkpt lat="49.43127" lon="1.12522">
        <ele>138.570007</ele>
        <time>2020-12-01T10:06:25Z</time>
      </trkpt>
      <trkpt lat="49.43124" lon="1.12512">
        <ele>138.570007</ele>
        <time>2020-12-01T10:06:27Z</time>
      </trkpt>
      <trkpt lat="49.43124" lon="1.12508">
        <ele>138.570007</ele>
        <time>2020-12-01T10:06:28Z</time>
      </trkpt>
      <trkpt lat="49.43125" lon="1.12505">
        <ele>138.570007</ele>
        <time>2020-12-01T10:06:29Z</time>
      </trkpt>
      <trkpt lat="49.43133" lon="1.12462">
        <ele>138.570007</ele>
        <time>2020-12-01T10:06:40Z</time>
      </trkpt>
      <trkpt lat="49.4315" lon="1.12396">
        <ele>138.570007</ele>
        <time>2020-12-01T10:06:53Z</time>
      </trkpt>
      <trkpt lat="49.43159" lon="1.12356">
        <ele>138.570007</ele>
        <time>2020-12-01T10:06:59Z</time>
      </trkpt>
      <trkpt lat="49.43163" lon="1.12341">
        <ele>138.570007</ele>
        <time>2020-12-01T10:07:01Z</time>
      </trkpt>
      <trkpt lat="49.43164" lon="1.12333">
        <ele>137.610001</ele>
        <time>2020-12-01T10:07:02Z</time>
      </trkpt>
      <trkpt lat="49.43168" lon="1.12308">
        <ele>137.610001</ele>
        <time>2020-12-01T10:07:05Z</time>
      </trkpt>
      <trkpt lat="49.43172" lon="1.12273">
        <ele>137.610001</ele>
        <time>2020-12-01T10:07:09Z</time>
      </trkpt>
      <trkpt lat="49.43172" lon="1.12265">
        <ele>137.610001</ele>
        <time>2020-12-01T10:07:10Z</time>
      </trkpt>
      <trkpt lat="49.43172" lon="1.12258">
        <ele>138.570007</ele>
        <time>2020-12-01T10:07:11Z</time>
      </trkpt>
      <trkpt lat="49.43173" lon="1.1225">
        <ele>138.570007</ele>
        <time>2020-12-01T10:07:12Z</time>
      </trkpt>
      <trkpt lat="49.43175" lon="1.12243">
        <ele>138.570007</ele>
        <time>2020-12-01T10:07:13Z</time>
      </trkpt>
      <trkpt lat="49.43176" lon="1.12235">
        <ele>138.570007</ele>
        <time>2020-12-01T10:07:14Z</time>
      </trkpt>
      <trkpt lat="49.43177" lon="1.12227">
        <ele>138.570007</ele>
        <time>2020-12-01T10:07:15Z</time>
      </trkpt>
      <trkpt lat="49.43179" lon="1.12201">
        <ele>139.050003</ele>
        <time>2020-12-01T10:07:18Z</time>
      </trkpt>
      <trkpt lat="49.43179" lon="1.12192">
        <ele>139.050003</ele>
        <time>2020-12-01T10:07:19Z</time>
      </trkpt>
      <trkpt lat="49.43178" lon="1.12185">
        <ele>139.050003</ele>
        <time>2020-12-01T10:07:20Z</time>
      </trkpt>
      <trkpt lat="49.43176" lon="1.12176">
        <ele>139.050003</ele>
        <time>2020-12-01T10:07:21Z</time>
      </trkpt>
      <trkpt lat="49.43175" lon="1.12168">
        <ele>139.050003</ele>
        <time>2020-12-01T10:07:22Z</time>
      </trkpt>
      <trkpt lat="49.43174" lon="1.1216">
        <ele>139.050003</ele>
        <time>2020-12-01T10:07:23Z</time>
      </trkpt>
      <trkpt lat="49.43174" lon="1.12152">
        <ele>139.050003</ele>
        <time>2020-12-01T10:07:24Z</time>
      </trkpt>
      <trkpt lat="49.43174" lon="1.12128">
        <ele>139.050003</ele>
        <time>2020-12-01T10:07:31Z</time>
      </trkpt>
      <trkpt lat="49.43175" lon="1.12127">
        <ele>138.089996</ele>
        <time>2020-12-01T10:07:32Z</time>
      </trkpt>
      <trkpt lat="49.43176" lon="1.12124">
        <ele>138.089996</ele>
        <time>2020-12-01T10:07:33Z</time>
      </trkpt>
      <trkpt lat="49.43176" lon="1.1212">
        <ele>138.089996</ele>
        <time>2020-12-01T10:07:34Z</time>
      </trkpt>
      <trkpt lat="49.43176" lon="1.12116">
        <ele>138.089996</ele>
        <time>2020-12-01T10:07:35Z</time>
      </trkpt>
      <trkpt lat="49.43176" lon="1.12111">
        <ele>138.089996</ele>
        <time>2020-12-01T10:07:36Z</time>
      </trkpt>
      <trkpt lat="49.43175" lon="1.12105">
        <ele>138.089996</ele>
        <time>2020-12-01T10:07:37Z</time>
      </trkpt>
      <trkpt lat="49.43174" lon="1.12098">
        <ele>138.089996</ele>
        <time>2020-12-01T10:07:38Z</time>
      </trkpt>
      <trkpt lat="49.43176" lon="1.12091">
        <ele>138.089996</ele>
        <time>2020-12-01T10:07:39Z</time>
      </trkpt>
      <trkpt lat="49.43179" lon="1.12086">
        <ele>138.089996</ele>
        <time>2020-12-01T10:07:40Z</time>
      </trkpt>
      <trkpt lat="49.43182" lon="1.12081">
        <ele>138.089996</ele>
        <time>2020-12-01T10:07:41Z</time>
      </trkpt>
      <trkpt lat="49.43186" lon="1.12079">
        <ele>138.089996</ele>
        <time>2020-12-01T10:07:42Z</time>
      </trkpt>
      <trkpt lat="49.43191" lon="1.12076">
        <ele>138.089996</ele>
        <time>2020-12-01T10:07:43Z</time>
      </trkpt>
      <trkpt lat="49.43195" lon="1.12073">
        <ele>138.089996</ele>
        <time>2020-12-01T10:07:44Z</time>
      </trkpt>
      <trkpt lat="49.43198" lon="1.12068">
        <ele>138.089996</ele>
        <time>2020-12-01T10:07:45Z</time>
      </trkpt>
      <trkpt lat="49.43201" lon="1.12061">
        <ele>138.089996</ele>
        <time>2020-12-01T10:07:46Z</time>
      </trkpt>
      <trkpt lat="49.43202" lon="1.12055">
        <ele>138.089996</ele>
        <time>2020-12-01T10:07:47Z</time>
      </trkpt>
      <trkpt lat="49.43204" lon="1.12048">
        <ele>138.089996</ele>
        <time>2020-12-01T10:07:48Z</time>
      </trkpt>
      <trkpt lat="49.43212" lon="1.12017">
        <ele>136.639999</ele>
        <time>2020-12-01T10:07:53Z</time>
      </trkpt>
      <trkpt lat="49.43215" lon="1.12011">
        <ele>136.639999</ele>
        <time>2020-12-01T10:07:54Z</time>
      </trkpt>
      <trkpt lat="49.43219" lon="1.12004">
        <ele>136.160004</ele>
        <time>2020-12-01T10:07:55Z</time>
      </trkpt>
      <trkpt lat="49.43223" lon="1.11997">
        <ele>136.160004</ele>
        <time>2020-12-01T10:07:56Z</time>
      </trkpt>
      <trkpt lat="49.43227" lon="1.1199">
        <ele>136.160004</ele>
        <time>2020-12-01T10:07:57Z</time>
      </trkpt>
      <trkpt lat="49.43234" lon="1.11977">
        <ele>132.800003</ele>
        <time>2020-12-01T10:07:59Z</time>
      </trkpt>
      <trkpt lat="49.43237" lon="1.11968">
        <ele>132.320007</ele>
        <time>2020-12-01T10:08:00Z</time>
      </trkpt>
      <trkpt lat="49.43237" lon="1.11959">
        <ele>131.360001</ele>
        <time>2020-12-01T10:08:01Z</time>
      </trkpt>
      <trkpt lat="49.43236" lon="1.1195">
        <ele>131.360001</ele>
        <time>2020-12-01T10:08:02Z</time>
      </trkpt>
      <trkpt lat="49.43234" lon="1.11942">
        <ele>131.360001</ele>
        <time>2020-12-01T10:08:03Z</time>
      </trkpt>
      <trkpt lat="49.43233" lon="1.11935">
        <ele>131.360001</ele>
        <time>2020-12-01T10:08:04Z</time>
      </trkpt>
      <trkpt lat="49.43231" lon="1.11922">
        <ele>132.800003</ele>
        <time>2020-12-01T10:08:06Z</time>
      </trkpt>
      <trkpt lat="49.4322" lon="1.11838">
        <ele>134.240005</ele>
        <time>2020-12-01T10:08:17Z</time>
      </trkpt>
      <trkpt lat="49.43219" lon="1.1183">
        <ele>134.240005</ele>
        <time>2020-12-01T10:08:18Z</time>
      </trkpt>
      <trkpt lat="49.43218" lon="1.11822">
        <ele>134.240005</ele>
        <time>2020-12-01T10:08:19Z</time>
      </trkpt>
      <trkpt lat="49.43216" lon="1.11815">
        <ele>134.240005</ele>
        <time>2020-12-01T10:08:20Z</time>
      </trkpt>
      <trkpt lat="49.43214" lon="1.11809">
        <ele>134.720001</ele>
        <time>2020-12-01T10:08:21Z</time>
      </trkpt>
      <trkpt lat="49.43213" lon="1.11804">
        <ele>135.679993</ele>
        <time>2020-12-01T10:08:22Z</time>
      </trkpt>
      <trkpt lat="49.4321" lon="1.11798">
        <ele>137.610001</ele>
        <time>2020-12-01T10:08:24Z</time>
      </trkpt>
      <trkpt lat="49.43208" lon="1.11796">
        <ele>137.610001</ele>
        <time>2020-12-01T10:08:25Z</time>
      </trkpt>
      <trkpt lat="49.43198" lon="1.11779">
        <ele>137.610001</ele>
        <time>2020-12-01T10:08:29Z</time>
      </trkpt>
      <trkpt lat="49.43196" lon="1.11772">
        <ele>138.089996</ele>
        <time>2020-12-01T10:08:30Z</time>
      </trkpt>
      <trkpt lat="49.43194" lon="1.11759">
        <ele>138.570007</ele>
        <time>2020-12-01T10:08:32Z</time>
      </trkpt>
      <trkpt lat="49.43194" lon="1.11752">
        <ele>138.570007</ele>
        <time>2020-12-01T10:08:33Z</time>
      </trkpt>
      <trkpt lat="49.43195" lon="1.11745">
        <ele>138.570007</ele>
        <time>2020-12-01T10:08:34Z</time>
      </trkpt>
      <trkpt lat="49.43196" lon="1.11738">
        <ele>138.570007</ele>
        <time>2020-12-01T10:08:35Z</time>
      </trkpt>
      <trkpt lat="49.43197" lon="1.11732">
        <ele>138.570007</ele>
        <time>2020-12-01T10:08:36Z</time>
      </trkpt>
      <trkpt lat="49.43199" lon="1.11725">
        <ele>138.570007</ele>
        <time>2020-12-01T10:08:37Z</time>
      </trkpt>
      <trkpt lat="49.43212" lon="1.11671">
        <ele>138.570007</ele>
        <time>2020-12-01T10:08:45Z</time>
      </trkpt>
      <trkpt lat="49.43216" lon="1.11658">
        <ele>138.570007</ele>
        <time>2020-12-01T10:08:47Z</time>
      </trkpt>
      <trkpt lat="49.43224" lon="1.11621">
        <ele>139.050003</ele>
        <time>2020-12-01T10:08:52Z</time>
      </trkpt>
      <trkpt lat="49.43226" lon="1.11615">
        <ele>139.050003</ele>
        <time>2020-12-01T10:08:53Z</time>
      </trkpt>
      <trkpt lat="49.43229" lon="1.11601">
        <ele>139.050003</ele>
        <time>2020-12-01T10:08:55Z</time>
      </trkpt>
      <trkpt lat="49.43231" lon="1.11593">
        <ele>139.050003</ele>
        <time>2020-12-01T10:08:56Z</time>
      </trkpt>
      <trkpt lat="49.43233" lon="1.11585">
        <ele>139.050003</ele>
        <time>2020-12-01T10:08:57Z</time>
      </trkpt>
      <trkpt lat="49.43243" lon="1.11522">
        <ele>139.050003</ele>
        <time>2020-12-01T10:09:05Z</time>
      </trkpt>
      <trkpt lat="49.43246" lon="1.11515">
        <ele>139.050003</ele>
        <time>2020-12-01T10:09:06Z</time>
      </trkpt>
      <trkpt lat="49.43248" lon="1.11509">
        <ele>139.050003</ele>
        <time>2020-12-01T10:09:07Z</time>
      </trkpt>
      <trkpt lat="49.43269" lon="1.11459">
        <ele>135.679993</ele>
        <time>2020-12-01T10:09:13Z</time>
      </trkpt>
      <trkpt lat="49.43283" lon="1.1143">
        <ele>133.759995</ele>
        <time>2020-12-01T10:09:16Z</time>
      </trkpt>
      <trkpt lat="49.43314" lon="1.11364">
        <ele>132.800003</ele>
        <time>2020-12-01T10:09:24Z</time>
      </trkpt>
      <trkpt lat="49.43317" lon="1.11356">
        <ele>132.800003</ele>
        <time>2020-12-01T10:09:25Z</time>
      </trkpt>
      <trkpt lat="49.43318" lon="1.11348">
        <ele>132.800003</ele>
        <time>2020-12-01T10:09:26Z</time>
      </trkpt>
      <trkpt lat="49.43318" lon="1.1134">
        <ele>134.240005</ele>
        <time>2020-12-01T10:09:27Z</time>
      </trkpt>
      <trkpt lat="49.43318" lon="1.11334">
        <ele>135.199997</ele>
        <time>2020-12-01T10:09:28Z</time>
      </trkpt>
      <trkpt lat="49.43315" lon="1.11329">
        <ele>135.679993</ele>
        <time>2020-12-01T10:09:29Z</time>
      </trkpt>
      <trkpt lat="49.43311" lon="1.11325">
        <ele>136.160004</ele>
        <time>2020-12-01T10:09:30Z</time>
      </trkpt>
      <trkpt lat="49.43307" lon="1.11322">
        <ele>137.130005</ele>
        <time>2020-12-01T10:09:31Z</time>
      </trkpt>
      <trkpt lat="49.43304" lon="1.1132">
        <ele>137.610001</ele>
        <time>2020-12-01T10:09:32Z</time>
      </trkpt>
      <trkpt lat="49.433" lon="1.11317">
        <ele>138.570007</ele>
        <time>2020-12-01T10:09:33Z</time>
      </trkpt>
      <trkpt lat="49.43296" lon="1.11313">
        <ele>139.050003</ele>
        <time>2020-12-01T10:09:34Z</time>
      </trkpt>
      <trkpt lat="49.43294" lon="1.11308">
        <ele>139.529999</ele>
        <time>2020-12-01T10:09:35Z</time>
      </trkpt>
      <trkpt lat="49.43294" lon="1.11302">
        <ele>139.529999</ele>
        <time>2020-12-01T10:09:36Z</time>
      </trkpt>
      <trkpt lat="49.43294" lon="1.11295">
        <ele>139.529999</ele>
        <time>2020-12-01T10:09:37Z</time>
      </trkpt>
      <trkpt lat="49.43294" lon="1.11287">
        <ele>139.529999</ele>
        <time>2020-12-01T10:09:38Z</time>
      </trkpt>
      <trkpt lat="49.43296" lon="1.11279">
        <ele>139.529999</ele>
        <time>2020-12-01T10:09:39Z</time>
      </trkpt>
      <trkpt lat="49.43297" lon="1.11271">
        <ele>139.529999</ele>
        <time>2020-12-01T10:09:40Z</time>
      </trkpt>
      <trkpt lat="49.43299" lon="1.11263">
        <ele>139.529999</ele>
        <time>2020-12-01T10:09:41Z</time>
      </trkpt>
      <trkpt lat="49.433" lon="1.11256">
        <ele>139.529999</ele>
        <time>2020-12-01T10:09:42Z</time>
      </trkpt>
      <trkpt lat="49.43305" lon="1.11214">
        <ele>139.529999</ele>
        <time>2020-12-01T10:09:47Z</time>
      </trkpt>
      <trkpt lat="49.43306" lon="1.11205">
        <ele>139.529999</ele>
        <time>2020-12-01T10:09:48Z</time>
      </trkpt>
      <trkpt lat="49.4331" lon="1.11172">
        <ele>139.050003</ele>
        <time>2020-12-01T10:09:52Z</time>
      </trkpt>
      <trkpt lat="49.43312" lon="1.11142">
        <ele>139.050003</ele>
        <time>2020-12-01T10:09:56Z</time>
      </trkpt>
      <trkpt lat="49.43318" lon="1.11117">
        <ele>138.089996</ele>
        <time>2020-12-01T10:10:00Z</time>
      </trkpt>
      <trkpt lat="49.43326" lon="1.11091">
        <ele>133.759995</ele>
        <time>2020-12-01T10:10:06Z</time>
      </trkpt>
      <trkpt lat="49.43329" lon="1.11085">
        <ele>131.839996</ele>
        <time>2020-12-01T10:10:07Z</time>
      </trkpt>
      <trkpt lat="49.43332" lon="1.1107">
        <ele>128.949997</ele>
        <time>2020-12-01T10:10:09Z</time>
      </trkpt>
      <trkpt lat="49.43335" lon="1.11058">
        <ele>126.07</ele>
        <time>2020-12-01T10:10:11Z</time>
      </trkpt>
      <trkpt lat="49.4334" lon="1.11036">
        <ele>121.739998</ele>
        <time>2020-12-01T10:10:19Z</time>
      </trkpt>
      <trkpt lat="49.43353" lon="1.11019">
        <ele>117.419998</ele>
        <time>2020-12-01T10:10:24Z</time>
      </trkpt>
      <trkpt lat="49.43364" lon="1.10991">
        <ele>117.419998</ele>
        <time>2020-12-01T10:10:34Z</time>
      </trkpt>
      <trkpt lat="49.43365" lon="1.1098">
        <ele>115.5</ele>
        <time>2020-12-01T10:10:37Z</time>
      </trkpt>
      <trkpt lat="49.43373" lon="1.1096">
        <ele>110.690002</ele>
        <time>2020-12-01T10:10:41Z</time>
      </trkpt>
      <trkpt lat="49.43376" lon="1.10953">
        <ele>107.809998</ele>
        <time>2020-12-01T10:10:42Z</time>
      </trkpt>
      <trkpt lat="49.43379" lon="1.10949">
        <ele>104.919998</ele>
        <time>2020-12-01T10:10:43Z</time>
      </trkpt>
      <trkpt lat="49.43384" lon="1.10938">
        <ele>101.559998</ele>
        <time>2020-12-01T10:10:45Z</time>
      </trkpt>
      <trkpt lat="49.43386" lon="1.10921">
        <ele>98.669998</ele>
        <time>2020-12-01T10:10:47Z</time>
      </trkpt>
      <trkpt lat="49.43388" lon="1.10906">
        <ele>94.349998</ele>
        <time>2020-12-01T10:10:49Z</time>
      </trkpt>
      <trkpt lat="49.43388" lon="1.10903">
        <ele>93.870003</ele>
        <time>2020-12-01T10:10:50Z</time>
      </trkpt>
      <trkpt lat="49.43386" lon="1.10899">
        <ele>93.389999</ele>
        <time>2020-12-01T10:10:51Z</time>
      </trkpt>
      <trkpt lat="49.43383" lon="1.10898">
        <ele>93.389999</ele>
        <time>2020-12-01T10:10:52Z</time>
      </trkpt>
      <trkpt lat="49.4338" lon="1.10898">
        <ele>93.389999</ele>
        <time>2020-12-01T10:10:53Z</time>
      </trkpt>
      <trkpt lat="49.43377" lon="1.109">
        <ele>93.389999</ele>
        <time>2020-12-01T10:10:54Z</time>
      </trkpt>
      <trkpt lat="49.43374" lon="1.10902">
        <ele>93.389999</ele>
        <time>2020-12-01T10:10:55Z</time>
      </trkpt>
      <trkpt lat="49.43371" lon="1.10904">
        <ele>93.389999</ele>
        <time>2020-12-01T10:10:56Z</time>
      </trkpt>
      <trkpt lat="49.43333" lon="1.10937">
        <ele>95.309998</ele>
        <time>2020-12-01T10:11:07Z</time>
      </trkpt>
      <trkpt lat="49.43318" lon="1.10955">
        <ele>96.75</ele>
        <time>2020-12-01T10:11:12Z</time>
      </trkpt>
      <trkpt lat="49.43306" lon="1.10972">
        <ele>98.190002</ele>
        <time>2020-12-01T10:11:16Z</time>
      </trkpt>
      <trkpt lat="49.43285" lon="1.10999">
        <ele>99.150002</ele>
        <time>2020-12-01T10:11:23Z</time>
      </trkpt>
      <trkpt lat="49.43282" lon="1.11003">
        <ele>99.629997</ele>
        <time>2020-12-01T10:11:24Z</time>
      </trkpt>
      <trkpt lat="49.4328" lon="1.11007">
        <ele>99.629997</ele>
        <time>2020-12-01T10:11:25Z</time>
      </trkpt>
      <trkpt lat="49.43277" lon="1.1101">
        <ele>99.629997</ele>
        <time>2020-12-01T10:11:26Z</time>
      </trkpt>
      <trkpt lat="49.43275" lon="1.11013">
        <ele>100.110001</ele>
        <time>2020-12-01T10:11:27Z</time>
      </trkpt>
      <trkpt lat="49.43264" lon="1.11026">
        <ele>100.110001</ele>
        <time>2020-12-01T10:11:38Z</time>
      </trkpt>
      <trkpt lat="49.43254" lon="1.11032">
        <ele>98.190002</ele>
        <time>2020-12-01T10:11:42Z</time>
      </trkpt>
      <trkpt lat="49.43243" lon="1.11037">
        <ele>94.349998</ele>
        <time>2020-12-01T10:11:46Z</time>
      </trkpt>
      <trkpt lat="49.4324" lon="1.11041">
        <ele>94.349998</ele>
        <time>2020-12-01T10:11:47Z</time>
      </trkpt>
      <trkpt lat="49.43219" lon="1.11068">
        <ele>93.389999</ele>
        <time>2020-12-01T10:11:52Z</time>
      </trkpt>
      <trkpt lat="49.43209" lon="1.11086">
        <ele>93.389999</ele>
        <time>2020-12-01T10:11:55Z</time>
      </trkpt>
      <trkpt lat="49.43205" lon="1.1109">
        <ele>93.389999</ele>
        <time>2020-12-01T10:11:56Z</time>
      </trkpt>
      <trkpt lat="49.43202" lon="1.11095">
        <ele>93.389999</ele>
        <time>2020-12-01T10:11:57Z</time>
      </trkpt>
      <trkpt lat="49.43199" lon="1.111">
        <ele>94.830002</ele>
        <time>2020-12-01T10:11:58Z</time>
      </trkpt>
      <trkpt lat="49.43195" lon="1.11104">
        <ele>94.830002</ele>
        <time>2020-12-01T10:11:59Z</time>
      </trkpt>
      <trkpt lat="49.43192" lon="1.1111">
        <ele>94.830002</ele>
        <time>2020-12-01T10:12:00Z</time>
      </trkpt>
      <trkpt lat="49.4319" lon="1.11115">
        <ele>94.830002</ele>
        <time>2020-12-01T10:12:01Z</time>
      </trkpt>
      <trkpt lat="49.43187" lon="1.11119">
        <ele>95.309998</ele>
        <time>2020-12-01T10:12:02Z</time>
      </trkpt>
      <trkpt lat="49.43184" lon="1.11123">
        <ele>95.790001</ele>
        <time>2020-12-01T10:12:03Z</time>
      </trkpt>
      <trkpt lat="49.4318" lon="1.11128">
        <ele>95.790001</ele>
        <time>2020-12-01T10:12:04Z</time>
      </trkpt>
      <trkpt lat="49.43156" lon="1.11158">
        <ele>95.790001</ele>
        <time>2020-12-01T10:12:10Z</time>
      </trkpt>
      <trkpt lat="49.43141" lon="1.11177">
        <ele>95.790001</ele>
        <time>2020-12-01T10:12:14Z</time>
      </trkpt>
      <trkpt lat="49.43137" lon="1.11181">
        <ele>95.790001</ele>
        <time>2020-12-01T10:12:15Z</time>
      </trkpt>
      <trkpt lat="49.43133" lon="1.11187">
        <ele>95.790001</ele>
        <time>2020-12-01T10:12:16Z</time>
      </trkpt>
      <trkpt lat="49.43112" lon="1.11218">
        <ele>93.870003</ele>
        <time>2020-12-01T10:12:23Z</time>
      </trkpt>
      <trkpt lat="49.43109" lon="1.11224">
        <ele>93.389999</ele>
        <time>2020-12-01T10:12:24Z</time>
      </trkpt>
      <trkpt lat="49.43104" lon="1.1124">
        <ele>93.389999</ele>
        <time>2020-12-01T10:12:32Z</time>
      </trkpt>
      <trkpt lat="49.43101" lon="1.11255">
        <ele>94.830002</ele>
        <time>2020-12-01T10:12:44Z</time>
      </trkpt>
      <trkpt lat="49.43081" lon="1.11294">
        <ele>95.309998</ele>
        <time>2020-12-01T10:12:55Z</time>
      </trkpt>
      <trkpt lat="49.43056" lon="1.11337">
        <ele>98.190002</ele>
        <time>2020-12-01T10:13:06Z</time>
      </trkpt>
      <trkpt lat="49.43055" lon="1.11342">
        <ele>98.669998</ele>
        <time>2020-12-01T10:13:07Z</time>
      </trkpt>
      <trkpt lat="49.43054" lon="1.11346">
        <ele>99.629997</ele>
        <time>2020-12-01T10:13:08Z</time>
      </trkpt>
      <trkpt lat="49.43051" lon="1.1135">
        <ele>99.629997</ele>
        <time>2020-12-01T10:13:09Z</time>
      </trkpt>
      <trkpt lat="49.43049" lon="1.11353">
        <ele>99.629997</ele>
        <time>2020-12-01T10:13:10Z</time>
      </trkpt>
      <trkpt lat="49.43047" lon="1.11357">
        <ele>99.629997</ele>
        <time>2020-12-01T10:13:11Z</time>
      </trkpt>
      <trkpt lat="49.43046" lon="1.1136">
        <ele>99.629997</ele>
        <time>2020-12-01T10:13:12Z</time>
      </trkpt>
      <trkpt lat="49.43037" lon="1.11371">
        <ele>100.110001</ele>
        <time>2020-12-01T10:13:25Z</time>
      </trkpt>
      <trkpt lat="49.43034" lon="1.11374">
        <ele>100.110001</ele>
        <time>2020-12-01T10:13:43Z</time>
      </trkpt>
      <trkpt lat="49.4303" lon="1.11382">
        <ele>100.110001</ele>
        <time>2020-12-01T10:13:54Z</time>
      </trkpt>
      <trkpt lat="49.43029" lon="1.11383">
        <ele>100.110001</ele>
        <time>2020-12-01T10:13:55Z</time>
      </trkpt>
      <trkpt lat="49.43027" lon="1.11389">
        <ele>99.150002</ele>
        <time>2020-12-01T10:14:01Z</time>
      </trkpt>
      <trkpt lat="49.43027" lon="1.1139">
        <ele>99.150002</ele>
        <time>2020-12-01T10:14:02Z</time>
      </trkpt>
      <trkpt lat="49.43025" lon="1.11392">
        <ele>99.150002</ele>
        <time>2020-12-01T10:14:03Z</time>
      </trkpt>
      <trkpt lat="49.43024" lon="1.11394">
        <ele>99.150002</ele>
        <time>2020-12-01T10:14:04Z</time>
      </trkpt>
      <trkpt lat="49.43023" lon="1.11396">
        <ele>99.150002</ele>
        <time>2020-12-01T10:14:05Z</time>
      </trkpt>
      <trkpt lat="49.43021" lon="1.11399">
        <ele>99.150002</ele>
        <time>2020-12-01T10:14:06Z</time>
      </trkpt>
      <trkpt lat="49.43019" lon="1.11402">
        <ele>99.150002</ele>
        <time>2020-12-01T10:14:07Z</time>
      </trkpt>
      <trkpt lat="49.43017" lon="1.11406">
        <ele>99.150002</ele>
        <time>2020-12-01T10:14:08Z</time>
      </trkpt>
      <trkpt lat="49.42986" lon="1.11457">
        <ele>95.790001</ele>
        <time>2020-12-01T10:14:19Z</time>
      </trkpt>
      <trkpt lat="49.42983" lon="1.11462">
        <ele>95.309998</ele>
        <time>2020-12-01T10:14:20Z</time>
      </trkpt>
      <trkpt lat="49.42962" lon="1.11508">
        <ele>95.309998</ele>
        <time>2020-12-01T10:14:30Z</time>
      </trkpt>
      <trkpt lat="49.4296" lon="1.11512">
        <ele>95.309998</ele>
        <time>2020-12-01T10:14:31Z</time>
      </trkpt>
      <trkpt lat="49.42927" lon="1.11596">
        <ele>95.790001</ele>
        <time>2020-12-01T10:14:46Z</time>
      </trkpt>
      <trkpt lat="49.42926" lon="1.11601">
        <ele>95.790001</ele>
        <time>2020-12-01T10:14:47Z</time>
      </trkpt>
      <trkpt lat="49.42921" lon="1.1161">
        <ele>95.790001</ele>
        <time>2020-12-01T10:14:50Z</time>
      </trkpt>
      <trkpt lat="49.42919" lon="1.11609">
        <ele>95.790001</ele>
        <time>2020-12-01T10:14:51Z</time>
      </trkpt>
      <trkpt lat="49.42916" lon="1.11597">
        <ele>92.900002</ele>
        <time>2020-12-01T10:14:54Z</time>
      </trkpt>
      <trkpt lat="49.42916" lon="1.11589">
        <ele>92.900002</ele>
        <time>2020-12-01T10:14:55Z</time>
      </trkpt>
      <trkpt lat="49.42914" lon="1.11563">
        <ele>88.580002</ele>
        <time>2020-12-01T10:14:58Z</time>
      </trkpt>
      <trkpt lat="49.42913" lon="1.11544">
        <ele>85.690002</ele>
        <time>2020-12-01T10:15:00Z</time>
      </trkpt>
      <trkpt lat="49.42913" lon="1.11526">
        <ele>81.849998</ele>
        <time>2020-12-01T10:15:02Z</time>
      </trkpt>
      <trkpt lat="49.42913" lon="1.11509">
        <ele>78</ele>
        <time>2020-12-01T10:15:05Z</time>
      </trkpt>
      <trkpt lat="49.42912" lon="1.1151">
        <ele>77.519997</ele>
        <time>2020-12-01T10:15:07Z</time>
      </trkpt>
      <trkpt lat="49.42911" lon="1.11512">
        <ele>77.040001</ele>
        <time>2020-12-01T10:15:08Z</time>
      </trkpt>
      <trkpt lat="49.4291" lon="1.11515">
        <ele>77.040001</ele>
        <time>2020-12-01T10:15:09Z</time>
      </trkpt>
      <trkpt lat="49.42906" lon="1.11533">
        <ele>78.480003</ele>
        <time>2020-12-01T10:15:13Z</time>
      </trkpt>
      <trkpt lat="49.42899" lon="1.11571">
        <ele>81.849998</ele>
        <time>2020-12-01T10:15:21Z</time>
      </trkpt>
      <trkpt lat="49.42898" lon="1.11581">
        <ele>82.809998</ele>
        <time>2020-12-01T10:15:23Z</time>
      </trkpt>
      <trkpt lat="49.42892" lon="1.11623">
        <ele>85.690002</ele>
        <time>2020-12-01T10:15:32Z</time>
      </trkpt>
      <trkpt lat="49.42888" lon="1.1166">
        <ele>89.059998</ele>
        <time>2020-12-01T10:15:40Z</time>
      </trkpt>
      <trkpt lat="49.42883" lon="1.117">
        <ele>91.940002</ele>
        <time>2020-12-01T10:15:49Z</time>
      </trkpt>
      <trkpt lat="49.4288" lon="1.11738">
        <ele>95.790001</ele>
        <time>2020-12-01T10:15:58Z</time>
      </trkpt>
      <trkpt lat="49.4288" lon="1.11772">
        <ele>99.150002</ele>
        <time>2020-12-01T10:16:06Z</time>
      </trkpt>
      <trkpt lat="49.42881" lon="1.1178">
        <ele>99.629997</ele>
        <time>2020-12-01T10:16:08Z</time>
      </trkpt>
      <trkpt lat="49.42887" lon="1.11807">
        <ele>103</ele>
        <time>2020-12-01T10:16:16Z</time>
      </trkpt>
      <trkpt lat="49.42889" lon="1.11838">
        <ele>103</ele>
        <time>2020-12-01T10:16:25Z</time>
      </trkpt>
      <trkpt lat="49.42889" lon="1.11855">
        <ele>102.040001</ele>
        <time>2020-12-01T10:16:27Z</time>
      </trkpt>
      <trkpt lat="49.42883" lon="1.11877">
        <ele>101.559998</ele>
        <time>2020-12-01T10:16:31Z</time>
      </trkpt>
      <trkpt lat="49.4288" lon="1.11877">
        <ele>101.080002</ele>
        <time>2020-12-01T10:16:32Z</time>
      </trkpt>
      <trkpt lat="49.42877" lon="1.11879">
        <ele>101.080002</ele>
        <time>2020-12-01T10:16:33Z</time>
      </trkpt>
      <trkpt lat="49.42875" lon="1.11882">
        <ele>101.080002</ele>
        <time>2020-12-01T10:16:34Z</time>
      </trkpt>
      <trkpt lat="49.4287" lon="1.11896">
        <ele>102.519997</ele>
        <time>2020-12-01T10:16:38Z</time>
      </trkpt>
      <trkpt lat="49.42868" lon="1.11903">
        <ele>103.480003</ele>
        <time>2020-12-01T10:16:41Z</time>
      </trkpt>
      <trkpt lat="49.42863" lon="1.11897">
        <ele>103.480003</ele>
        <time>2020-12-01T10:16:44Z</time>
      </trkpt>
      <trkpt lat="49.42859" lon="1.11894">
        <ele>103.480003</ele>
        <time>2020-12-01T10:16:51Z</time>
      </trkpt>
      <trkpt lat="49.42874" lon="1.11874">
        <ele>102.040001</ele>
        <time>2020-12-01T10:16:57Z</time>
      </trkpt>
      <trkpt lat="49.42875" lon="1.11866">
        <ele>101.559998</ele>
        <time>2020-12-01T10:16:58Z</time>
      </trkpt>
      <trkpt lat="49.42877" lon="1.11858">
        <ele>100.599998</ele>
        <time>2020-12-01T10:16:59Z</time>
      </trkpt>
      <trkpt lat="49.42879" lon="1.11849">
        <ele>100.110001</ele>
        <time>2020-12-01T10:17:00Z</time>
      </trkpt>
      <trkpt lat="49.42878" lon="1.11841">
        <ele>98.669998</ele>
        <time>2020-12-01T10:17:01Z</time>
      </trkpt>
      <trkpt lat="49.42876" lon="1.11833">
        <ele>98.190002</ele>
        <time>2020-12-01T10:17:02Z</time>
      </trkpt>
      <trkpt lat="49.42873" lon="1.11826">
        <ele>97.230003</ele>
        <time>2020-12-01T10:17:03Z</time>
      </trkpt>
      <trkpt lat="49.42868" lon="1.1182">
        <ele>96.269997</ele>
        <time>2020-12-01T10:17:04Z</time>
      </trkpt>
      <trkpt lat="49.42859" lon="1.1182">
        <ele>95.309998</ele>
        <time>2020-12-01T10:17:06Z</time>
      </trkpt>
      <trkpt lat="49.42854" lon="1.11827">
        <ele>94.349998</ele>
        <time>2020-12-01T10:17:07Z</time>
      </trkpt>
      <trkpt lat="49.4285" lon="1.11832">
        <ele>93.870003</ele>
        <time>2020-12-01T10:17:08Z</time>
      </trkpt>
      <trkpt lat="49.42845" lon="1.11838">
        <ele>92.900002</ele>
        <time>2020-12-01T10:17:09Z</time>
      </trkpt>
      <trkpt lat="49.42833" lon="1.11848">
        <ele>91.459999</ele>
        <time>2020-12-01T10:17:11Z</time>
      </trkpt>
      <trkpt lat="49.42827" lon="1.11851">
        <ele>90.5</ele>
        <time>2020-12-01T10:17:12Z</time>
      </trkpt>
      <trkpt lat="49.42801" lon="1.11861">
        <ele>86.660004</ele>
        <time>2020-12-01T10:17:16Z</time>
      </trkpt>
      <trkpt lat="49.42792" lon="1.11864">
        <ele>85.209999</ele>
        <time>2020-12-01T10:17:18Z</time>
      </trkpt>
      <trkpt lat="49.42788" lon="1.11864">
        <ele>84.730003</ele>
        <time>2020-12-01T10:17:19Z</time>
      </trkpt>
      <trkpt lat="49.42786" lon="1.11861">
        <ele>83.769997</ele>
        <time>2020-12-01T10:17:20Z</time>
      </trkpt>
      <trkpt lat="49.42785" lon="1.11857">
        <ele>83.769997</ele>
        <time>2020-12-01T10:17:21Z</time>
      </trkpt>
      <trkpt lat="49.42787" lon="1.11852">
        <ele>83.290001</ele>
        <time>2020-12-01T10:17:22Z</time>
      </trkpt>
      <trkpt lat="49.4279" lon="1.11848">
        <ele>82.330002</ele>
        <time>2020-12-01T10:17:23Z</time>
      </trkpt>
      <trkpt lat="49.42794" lon="1.11843">
        <ele>81.849998</ele>
        <time>2020-12-01T10:17:24Z</time>
      </trkpt>
      <trkpt lat="49.42801" lon="1.11837">
        <ele>81.370003</ele>
        <time>2020-12-01T10:17:25Z</time>
      </trkpt>
      <trkpt lat="49.42818" lon="1.11816">
        <ele>77.519997</ele>
        <time>2020-12-01T10:17:28Z</time>
      </trkpt>
      <trkpt lat="49.42822" lon="1.11808">
        <ele>76.080002</ele>
        <time>2020-12-01T10:17:29Z</time>
      </trkpt>
      <trkpt lat="49.42824" lon="1.11799">
        <ele>75.120003</ele>
        <time>2020-12-01T10:17:30Z</time>
      </trkpt>
      <trkpt lat="49.42826" lon="1.11789">
        <ele>74.160004</ele>
        <time>2020-12-01T10:17:31Z</time>
      </trkpt>
      <trkpt lat="49.42826" lon="1.11779">
        <ele>73.68</ele>
        <time>2020-12-01T10:17:32Z</time>
      </trkpt>
      <trkpt lat="49.42826" lon="1.11769">
        <ele>71.760002</ele>
        <time>2020-12-01T10:17:33Z</time>
      </trkpt>
      <trkpt lat="49.42824" lon="1.11761">
        <ele>70.309998</ele>
        <time>2020-12-01T10:17:34Z</time>
      </trkpt>
      <trkpt lat="49.42823" lon="1.11756">
        <ele>69.830002</ele>
        <time>2020-12-01T10:17:35Z</time>
      </trkpt>
      <trkpt lat="49.42817" lon="1.11742">
        <ele>67.43</ele>
        <time>2020-12-01T10:17:38Z</time>
      </trkpt>
      <trkpt lat="49.42815" lon="1.11741">
        <ele>66.470001</ele>
        <time>2020-12-01T10:17:39Z</time>
      </trkpt>
      <trkpt lat="49.42814" lon="1.11741">
        <ele>66.470001</ele>
        <time>2020-12-01T10:17:40Z</time>
      </trkpt>
      <trkpt lat="49.42814" lon="1.11744">
        <ele>66.470001</ele>
        <time>2020-12-01T10:17:42Z</time>
      </trkpt>
      <trkpt lat="49.42811" lon="1.11753">
        <ele>66.949997</ele>
        <time>2020-12-01T10:17:50Z</time>
      </trkpt>
      <trkpt lat="49.42808" lon="1.11753">
        <ele>68.870003</ele>
        <time>2020-12-01T10:17:52Z</time>
      </trkpt>
      <trkpt lat="49.42806" lon="1.1175">
        <ele>68.870003</ele>
        <time>2020-12-01T10:17:53Z</time>
      </trkpt>
      <trkpt lat="49.42805" lon="1.11749">
        <ele>68.870003</ele>
        <time>2020-12-01T10:17:54Z</time>
      </trkpt>
      <trkpt lat="49.42803" lon="1.11747">
        <ele>68.870003</ele>
        <time>2020-12-01T10:17:55Z</time>
      </trkpt>
      <trkpt lat="49.42802" lon="1.11747">
        <ele>68.870003</ele>
        <time>2020-12-01T10:17:56Z</time>
      </trkpt>
      <trkpt lat="49.428" lon="1.11746">
        <ele>67.910004</ele>
        <time>2020-12-01T10:17:59Z</time>
      </trkpt>
      <trkpt lat="49.428" lon="1.11743">
        <ele>67.910004</ele>
        <time>2020-12-01T10:18:00Z</time>
      </trkpt>
      <trkpt lat="49.42801" lon="1.1174">
        <ele>67.910004</ele>
        <time>2020-12-01T10:18:01Z</time>
      </trkpt>
      <trkpt lat="49.42812" lon="1.11703">
        <ele>65.510002</ele>
        <time>2020-12-01T10:18:07Z</time>
      </trkpt>
      <trkpt lat="49.42814" lon="1.11695">
        <ele>65.029999</ele>
        <time>2020-12-01T10:18:08Z</time>
      </trkpt>
      <trkpt lat="49.42815" lon="1.11688">
        <ele>64.07</ele>
        <time>2020-12-01T10:18:09Z</time>
      </trkpt>
      <trkpt lat="49.42815" lon="1.11683">
        <ele>64.07</ele>
        <time>2020-12-01T10:18:10Z</time>
      </trkpt>
      <trkpt lat="49.42812" lon="1.11679">
        <ele>62.619999</ele>
        <time>2020-12-01T10:18:11Z</time>
      </trkpt>
      <trkpt lat="49.42809" lon="1.11678">
        <ele>62.139999</ele>
        <time>2020-12-01T10:18:12Z</time>
      </trkpt>
      <trkpt lat="49.42806" lon="1.11679">
        <ele>61.66</ele>
        <time>2020-12-01T10:18:13Z</time>
      </trkpt>
      <trkpt lat="49.42805" lon="1.1168">
        <ele>61.18</ele>
        <time>2020-12-01T10:18:14Z</time>
      </trkpt>
      <trkpt lat="49.42803" lon="1.11682">
        <ele>61.66</ele>
        <time>2020-12-01T10:18:15Z</time>
      </trkpt>
      <trkpt lat="49.42801" lon="1.11684">
        <ele>61.66</ele>
        <time>2020-12-01T10:18:16Z</time>
      </trkpt>
      <trkpt lat="49.42784" lon="1.11699">
        <ele>60.700001</ele>
        <time>2020-12-01T10:18:27Z</time>
      </trkpt>
      <trkpt lat="49.42768" lon="1.11709">
        <ele>60.700001</ele>
        <time>2020-12-01T10:18:33Z</time>
      </trkpt>
      <trkpt lat="49.42763" lon="1.11711">
        <ele>60.700001</ele>
        <time>2020-12-01T10:18:34Z</time>
      </trkpt>
      <trkpt lat="49.42737" lon="1.1171">
        <ele>60.700001</ele>
        <time>2020-12-01T10:18:40Z</time>
      </trkpt>
      <trkpt lat="49.42728" lon="1.11706">
        <ele>62.139999</ele>
        <time>2020-12-01T10:18:42Z</time>
      </trkpt>
      <trkpt lat="49.42724" lon="1.11704">
        <ele>62.139999</ele>
        <time>2020-12-01T10:18:43Z</time>
      </trkpt>
      <trkpt lat="49.4272" lon="1.117">
        <ele>62.139999</ele>
        <time>2020-12-01T10:18:44Z</time>
      </trkpt>
      <trkpt lat="49.42716" lon="1.11696">
        <ele>62.139999</ele>
        <time>2020-12-01T10:18:45Z</time>
      </trkpt>
      <trkpt lat="49.42713" lon="1.11692">
        <ele>62.139999</ele>
        <time>2020-12-01T10:18:46Z</time>
      </trkpt>
      <trkpt lat="49.42709" lon="1.11687">
        <ele>62.139999</ele>
        <time>2020-12-01T10:18:47Z</time>
      </trkpt>
      <trkpt lat="49.42706" lon="1.11681">
        <ele>62.139999</ele>
        <time>2020-12-01T10:18:48Z</time>
      </trkpt>
      <trkpt lat="49.42704" lon="1.11676">
        <ele>62.619999</ele>
        <time>2020-12-01T10:18:49Z</time>
      </trkpt>
      <trkpt lat="49.42696" lon="1.1165">
        <ele>62.619999</ele>
        <time>2020-12-01T10:18:53Z</time>
      </trkpt>
      <trkpt lat="49.42672" lon="1.11554">
        <ele>65.029999</ele>
        <time>2020-12-01T10:19:09Z</time>
      </trkpt>
      <trkpt lat="49.4267" lon="1.11548">
        <ele>65.029999</ele>
        <time>2020-12-01T10:19:10Z</time>
      </trkpt>
      <trkpt lat="49.42668" lon="1.11541">
        <ele>65.510002</ele>
        <time>2020-12-01T10:19:11Z</time>
      </trkpt>
      <trkpt lat="49.42665" lon="1.11536">
        <ele>65.510002</ele>
        <time>2020-12-01T10:19:12Z</time>
      </trkpt>
      <trkpt lat="49.42657" lon="1.11525">
        <ele>65.510002</ele>
        <time>2020-12-01T10:19:14Z</time>
      </trkpt>
      <trkpt lat="49.42653" lon="1.11521">
        <ele>65.989998</ele>
        <time>2020-12-01T10:19:15Z</time>
      </trkpt>
      <trkpt lat="49.4265" lon="1.11518">
        <ele>65.989998</ele>
        <time>2020-12-01T10:19:16Z</time>
      </trkpt>
      <trkpt lat="49.42625" lon="1.11512">
        <ele>68.870003</ele>
        <time>2020-12-01T10:19:25Z</time>
      </trkpt>
      <trkpt lat="49.42589" lon="1.11536">
        <ele>71.760002</ele>
        <time>2020-12-01T10:19:35Z</time>
      </trkpt>
      <trkpt lat="49.42544" lon="1.11569">
        <ele>74.639999</ele>
        <time>2020-12-01T10:19:48Z</time>
      </trkpt>
      <trkpt lat="49.42506" lon="1.11599">
        <ele>78</ele>
        <time>2020-12-01T10:19:59Z</time>
      </trkpt>
      <trkpt lat="49.42466" lon="1.11641">
        <ele>81.370003</ele>
        <time>2020-12-01T10:20:12Z</time>
      </trkpt>
      <trkpt lat="49.42428" lon="1.11682">
        <ele>84.730003</ele>
        <time>2020-12-01T10:20:25Z</time>
      </trkpt>
      <trkpt lat="49.4239" lon="1.11728">
        <ele>88.580002</ele>
        <time>2020-12-01T10:20:38Z</time>
      </trkpt>
      <trkpt lat="49.42347" lon="1.1178">
        <ele>91.940002</ele>
        <time>2020-12-01T10:20:53Z</time>
      </trkpt>
      <trkpt lat="49.4232" lon="1.11819">
        <ele>93.870003</ele>
        <time>2020-12-01T10:21:04Z</time>
      </trkpt>
      <trkpt lat="49.42293" lon="1.11868">
        <ele>96.75</ele>
        <time>2020-12-01T10:21:17Z</time>
      </trkpt>
      <trkpt lat="49.42292" lon="1.11901">
        <ele>96.75</ele>
        <time>2020-12-01T10:21:23Z</time>
      </trkpt>
      <trkpt lat="49.42294" lon="1.11902">
        <ele>97.230003</ele>
        <time>2020-12-01T10:21:24Z</time>
      </trkpt>
      <trkpt lat="49.42297" lon="1.11902">
        <ele>97.230003</ele>
        <time>2020-12-01T10:21:25Z</time>
      </trkpt>
      <trkpt lat="49.42306" lon="1.11881">
        <ele>99.150002</ele>
        <time>2020-12-01T10:21:30Z</time>
      </trkpt>
      <trkpt lat="49.42307" lon="1.11867">
        <ele>99.150002</ele>
        <time>2020-12-01T10:21:32Z</time>
      </trkpt>
      <trkpt lat="49.42308" lon="1.1186">
        <ele>99.150002</ele>
        <time>2020-12-01T10:21:33Z</time>
      </trkpt>
      <trkpt lat="49.4231" lon="1.11853">
        <ele>99.150002</ele>
        <time>2020-12-01T10:21:34Z</time>
      </trkpt>
      <trkpt lat="49.42313" lon="1.11848">
        <ele>99.629997</ele>
        <time>2020-12-01T10:21:35Z</time>
      </trkpt>
      <trkpt lat="49.42316" lon="1.11843">
        <ele>99.629997</ele>
        <time>2020-12-01T10:21:36Z</time>
      </trkpt>
      <trkpt lat="49.42318" lon="1.11839">
        <ele>100.110001</ele>
        <time>2020-12-01T10:21:37Z</time>
      </trkpt>
      <trkpt lat="49.42332" lon="1.11808">
        <ele>101.080002</ele>
        <time>2020-12-01T10:21:43Z</time>
      </trkpt>
      <trkpt lat="49.42334" lon="1.11804">
        <ele>102.040001</ele>
        <time>2020-12-01T10:21:44Z</time>
      </trkpt>
      <trkpt lat="49.42337" lon="1.11801">
        <ele>102.040001</ele>
        <time>2020-12-01T10:21:45Z</time>
      </trkpt>
      <trkpt lat="49.42372" lon="1.11765">
        <ele>104.440002</ele>
        <time>2020-12-01T10:21:55Z</time>
      </trkpt>
      <trkpt lat="49.42375" lon="1.11762">
        <ele>104.440002</ele>
        <time>2020-12-01T10:21:56Z</time>
      </trkpt>
      <trkpt lat="49.42404" lon="1.11733">
        <ele>107.32</ele>
        <time>2020-12-01T10:22:04Z</time>
      </trkpt>
      <trkpt lat="49.42442" lon="1.11697">
        <ele>110.209999</ele>
        <time>2020-12-01T10:22:15Z</time>
      </trkpt>
      <trkpt lat="49.4248" lon="1.1167">
        <ele>113.089996</ele>
        <time>2020-12-01T10:22:27Z</time>
      </trkpt>
      <trkpt lat="49.4252" lon="1.1165">
        <ele>115.980003</ele>
        <time>2020-12-01T10:22:38Z</time>
      </trkpt>
      <trkpt lat="49.42562" lon="1.11643">
        <ele>118.379997</ele>
        <time>2020-12-01T10:22:51Z</time>
      </trkpt>
      <trkpt lat="49.42566" lon="1.11645">
        <ele>118.379997</ele>
        <time>2020-12-01T10:22:52Z</time>
      </trkpt>
      <trkpt lat="49.4257" lon="1.11649">
        <ele>118.379997</ele>
        <time>2020-12-01T10:22:53Z</time>
      </trkpt>
      <trkpt lat="49.42573" lon="1.11654">
        <ele>118.379997</ele>
        <time>2020-12-01T10:22:54Z</time>
      </trkpt>
      <trkpt lat="49.42576" lon="1.11659">
        <ele>118.379997</ele>
        <time>2020-12-01T10:22:55Z</time>
      </trkpt>
      <trkpt lat="49.42578" lon="1.11664">
        <ele>118.379997</ele>
        <time>2020-12-01T10:22:56Z</time>
      </trkpt>
      <trkpt lat="49.4258" lon="1.11669">
        <ele>119.339996</ele>
        <time>2020-12-01T10:22:57Z</time>
      </trkpt>
      <trkpt lat="49.42583" lon="1.11729">
        <ele>121.739998</ele>
        <time>2020-12-01T10:23:08Z</time>
      </trkpt>
      <trkpt lat="49.42582" lon="1.11798">
        <ele>124.150002</ele>
        <time>2020-12-01T10:23:21Z</time>
      </trkpt>
      <trkpt lat="49.42575" lon="1.11863">
        <ele>127.510002</ele>
        <time>2020-12-01T10:23:34Z</time>
      </trkpt>
      <trkpt lat="49.42573" lon="1.11865">
        <ele>127.029999</ele>
        <time>2020-12-01T10:23:35Z</time>
      </trkpt>
      <trkpt lat="49.42567" lon="1.1186">
        <ele>128.949997</ele>
        <time>2020-12-01T10:23:39Z</time>
      </trkpt>
      <trkpt lat="49.42562" lon="1.11829">
        <ele>132.320007</ele>
        <time>2020-12-01T10:23:48Z</time>
      </trkpt>
      <trkpt lat="49.42565" lon="1.1177">
        <ele>134.720001</ele>
        <time>2020-12-01T10:23:59Z</time>
      </trkpt>
      <trkpt lat="49.42565" lon="1.11766">
        <ele>134.720001</ele>
        <time>2020-12-01T10:24:00Z</time>
      </trkpt>
      <trkpt lat="49.42565" lon="1.11761">
        <ele>134.720001</ele>
        <time>2020-12-01T10:24:01Z</time>
      </trkpt>
      <trkpt lat="49.42565" lon="1.11757">
        <ele>134.720001</ele>
        <time>2020-12-01T10:24:02Z</time>
      </trkpt>
      <trkpt lat="49.42564" lon="1.11753">
        <ele>134.720001</ele>
        <time>2020-12-01T10:24:03Z</time>
      </trkpt>
      <trkpt lat="49.42564" lon="1.11749">
        <ele>134.720001</ele>
        <time>2020-12-01T10:24:04Z</time>
      </trkpt>
      <trkpt lat="49.42559" lon="1.11744">
        <ele>134.720001</ele>
        <time>2020-12-01T10:24:06Z</time>
      </trkpt>
      <trkpt lat="49.42516" lon="1.11737">
        <ele>137.130005</ele>
        <time>2020-12-01T10:24:20Z</time>
      </trkpt>
      <trkpt lat="49.42512" lon="1.11737">
        <ele>138.089996</ele>
        <time>2020-12-01T10:24:23Z</time>
      </trkpt>
      <trkpt lat="49.4251" lon="1.11739">
        <ele>138.089996</ele>
        <time>2020-12-01T10:24:24Z</time>
      </trkpt>
      <trkpt lat="49.42508" lon="1.11741">
        <ele>138.570007</ele>
        <time>2020-12-01T10:24:25Z</time>
      </trkpt>
      <trkpt lat="49.42507" lon="1.11745">
        <ele>139.050003</ele>
        <time>2020-12-01T10:24:26Z</time>
      </trkpt>
      <trkpt lat="49.42505" lon="1.11748">
        <ele>139.529999</ele>
        <time>2020-12-01T10:24:27Z</time>
      </trkpt>
      <trkpt lat="49.42503" lon="1.11752">
        <ele>139.529999</ele>
        <time>2020-12-01T10:24:28Z</time>
      </trkpt>
      <trkpt lat="49.42472" lon="1.11782">
        <ele>140.009995</ele>
        <time>2020-12-01T10:24:38Z</time>
      </trkpt>
      <trkpt lat="49.4244" lon="1.11824">
        <ele>141.449997</ele>
        <time>2020-12-01T10:24:47Z</time>
      </trkpt>
      <trkpt lat="49.42437" lon="1.1183">
        <ele>141.449997</ele>
        <time>2020-12-01T10:24:48Z</time>
      </trkpt>
      <trkpt lat="49.42434" lon="1.11837">
        <ele>141.449997</ele>
        <time>2020-12-01T10:24:49Z</time>
      </trkpt>
      <trkpt lat="49.42432" lon="1.11843">
        <ele>141.449997</ele>
        <time>2020-12-01T10:24:50Z</time>
      </trkpt>
      <trkpt lat="49.42428" lon="1.11849">
        <ele>141.449997</ele>
        <time>2020-12-01T10:24:51Z</time>
      </trkpt>
      <trkpt lat="49.42425" lon="1.11856">
        <ele>141.449997</ele>
        <time>2020-12-01T10:24:52Z</time>
      </trkpt>
      <trkpt lat="49.42423" lon="1.11862">
        <ele>141.449997</ele>
        <time>2020-12-01T10:24:53Z</time>
      </trkpt>
      <trkpt lat="49.4242" lon="1.11868">
        <ele>141.449997</ele>
        <time>2020-12-01T10:24:54Z</time>
      </trkpt>
      <trkpt lat="49.42417" lon="1.11875">
        <ele>141.449997</ele>
        <time>2020-12-01T10:24:55Z</time>
      </trkpt>
      <trkpt lat="49.42414" lon="1.11881">
        <ele>141.449997</ele>
        <time>2020-12-01T10:24:56Z</time>
      </trkpt>
      <trkpt lat="49.42382" lon="1.11985">
        <ele>141.929993</ele>
        <time>2020-12-01T10:25:11Z</time>
      </trkpt>
      <trkpt lat="49.42367" lon="1.12063">
        <ele>142.410004</ele>
        <time>2020-12-01T10:25:21Z</time>
      </trkpt>
      <trkpt lat="49.42366" lon="1.1207">
        <ele>142.410004</ele>
        <time>2020-12-01T10:25:22Z</time>
      </trkpt>
      <trkpt lat="49.42364" lon="1.12077">
        <ele>142.410004</ele>
        <time>2020-12-01T10:25:23Z</time>
      </trkpt>
      <trkpt lat="49.42362" lon="1.12083">
        <ele>142.410004</ele>
        <time>2020-12-01T10:25:24Z</time>
      </trkpt>
      <trkpt lat="49.42358" lon="1.12089">
        <ele>142.410004</ele>
        <time>2020-12-01T10:25:25Z</time>
      </trkpt>
      <trkpt lat="49.42353" lon="1.12092">
        <ele>142.410004</ele>
        <time>2020-12-01T10:25:26Z</time>
      </trkpt>
      <trkpt lat="49.42349" lon="1.12093">
        <ele>142.410004</ele>
        <time>2020-12-01T10:25:27Z</time>
      </trkpt>
      <trkpt lat="49.42344" lon="1.12095">
        <ele>142.410004</ele>
        <time>2020-12-01T10:25:28Z</time>
      </trkpt>
      <trkpt lat="49.42339" lon="1.12098">
        <ele>142.410004</ele>
        <time>2020-12-01T10:25:29Z</time>
      </trkpt>
      <trkpt lat="49.42335" lon="1.12103">
        <ele>142.410004</ele>
        <time>2020-12-01T10:25:30Z</time>
      </trkpt>
      <trkpt lat="49.4233" lon="1.12106">
        <ele>142.410004</ele>
        <time>2020-12-01T10:25:31Z</time>
      </trkpt>
      <trkpt lat="49.42326" lon="1.12109">
        <ele>142.410004</ele>
        <time>2020-12-01T10:25:32Z</time>
      </trkpt>
      <trkpt lat="49.4231" lon="1.12116">
        <ele>142.410004</ele>
        <time>2020-12-01T10:25:35Z</time>
      </trkpt>
      <trkpt lat="49.42304" lon="1.12116">
        <ele>142.410004</ele>
        <time>2020-12-01T10:25:36Z</time>
      </trkpt>
      <trkpt lat="49.42298" lon="1.12116">
        <ele>142.410004</ele>
        <time>2020-12-01T10:25:37Z</time>
      </trkpt>
      <trkpt lat="49.42292" lon="1.12115">
        <ele>142.889999</ele>
        <time>2020-12-01T10:25:38Z</time>
      </trkpt>
      <trkpt lat="49.42285" lon="1.12114">
        <ele>142.889999</ele>
        <time>2020-12-01T10:25:39Z</time>
      </trkpt>
      <trkpt lat="49.42282" lon="1.12112">
        <ele>142.889999</ele>
        <time>2020-12-01T10:25:40Z</time>
      </trkpt>
      <trkpt lat="49.42277" lon="1.1211">
        <ele>142.889999</ele>
        <time>2020-12-01T10:25:41Z</time>
      </trkpt>
      <trkpt lat="49.42271" lon="1.12107">
        <ele>142.889999</ele>
        <time>2020-12-01T10:25:42Z</time>
      </trkpt>
      <trkpt lat="49.42265" lon="1.12106">
        <ele>142.889999</ele>
        <time>2020-12-01T10:25:43Z</time>
      </trkpt>
      <trkpt lat="49.42259" lon="1.12107">
        <ele>142.889999</ele>
        <time>2020-12-01T10:25:44Z</time>
      </trkpt>
      <trkpt lat="49.42253" lon="1.12108">
        <ele>142.889999</ele>
        <time>2020-12-01T10:25:45Z</time>
      </trkpt>
      <trkpt lat="49.42248" lon="1.12111">
        <ele>142.889999</ele>
        <time>2020-12-01T10:25:46Z</time>
      </trkpt>
      <trkpt lat="49.42242" lon="1.12113">
        <ele>142.889999</ele>
        <time>2020-12-01T10:25:47Z</time>
      </trkpt>
      <trkpt lat="49.42237" lon="1.12116">
        <ele>142.889999</ele>
        <time>2020-12-01T10:25:48Z</time>
      </trkpt>
      <trkpt lat="49.42233" lon="1.12119">
        <ele>142.889999</ele>
        <time>2020-12-01T10:25:49Z</time>
      </trkpt>
      <trkpt lat="49.42206" lon="1.12121">
        <ele>141.929993</ele>
        <time>2020-12-01T10:25:55Z</time>
      </trkpt>
      <trkpt lat="49.42197" lon="1.12119">
        <ele>140.490005</ele>
        <time>2020-12-01T10:25:59Z</time>
      </trkpt>
      <trkpt lat="49.42196" lon="1.12112">
        <ele>137.610001</ele>
        <time>2020-12-01T10:26:01Z</time>
      </trkpt>
      <trkpt lat="49.42198" lon="1.12108">
        <ele>137.610001</ele>
        <time>2020-12-01T10:26:02Z</time>
      </trkpt>
      <trkpt lat="49.42202" lon="1.12103">
        <ele>137.130005</ele>
        <time>2020-12-01T10:26:03Z</time>
      </trkpt>
      <trkpt lat="49.42206" lon="1.12097">
        <ele>136.160004</ele>
        <time>2020-12-01T10:26:04Z</time>
      </trkpt>
      <trkpt lat="49.42209" lon="1.12091">
        <ele>136.160004</ele>
        <time>2020-12-01T10:26:05Z</time>
      </trkpt>
      <trkpt lat="49.42226" lon="1.12063">
        <ele>133.279999</ele>
        <time>2020-12-01T10:26:09Z</time>
      </trkpt>
      <trkpt lat="49.4223" lon="1.12055">
        <ele>132.320007</ele>
        <time>2020-12-01T10:26:10Z</time>
      </trkpt>
      <trkpt lat="49.42233" lon="1.12047">
        <ele>131.360001</ele>
        <time>2020-12-01T10:26:11Z</time>
      </trkpt>
      <trkpt lat="49.42238" lon="1.12031">
        <ele>127.989998</ele>
        <time>2020-12-01T10:26:13Z</time>
      </trkpt>
      <trkpt lat="49.4224" lon="1.12023">
        <ele>126.550003</ele>
        <time>2020-12-01T10:26:14Z</time>
      </trkpt>
      <trkpt lat="49.42246" lon="1.12008">
        <ele>123.190002</ele>
        <time>2020-12-01T10:26:16Z</time>
      </trkpt>
      <trkpt lat="49.4225" lon="1.11999">
        <ele>120.300003</ele>
        <time>2020-12-01T10:26:17Z</time>
      </trkpt>
      <trkpt lat="49.42252" lon="1.11997">
        <ele>119.339996</ele>
        <time>2020-12-01T10:26:18Z</time>
      </trkpt>
      <trkpt lat="49.42256" lon="1.11992">
        <ele>118.379997</ele>
        <time>2020-12-01T10:26:19Z</time>
      </trkpt>
      <trkpt lat="49.4226" lon="1.11987">
        <ele>116.459999</ele>
        <time>2020-12-01T10:26:20Z</time>
      </trkpt>
      <trkpt lat="49.42264" lon="1.11981">
        <ele>115.010002</ele>
        <time>2020-12-01T10:26:21Z</time>
      </trkpt>
      <trkpt lat="49.42272" lon="1.11972">
        <ele>111.169998</ele>
        <time>2020-12-01T10:26:23Z</time>
      </trkpt>
      <trkpt lat="49.42277" lon="1.11966">
        <ele>109.25</ele>
        <time>2020-12-01T10:26:24Z</time>
      </trkpt>
      <trkpt lat="49.42281" lon="1.11959">
        <ele>108.290001</ele>
        <time>2020-12-01T10:26:25Z</time>
      </trkpt>
      <trkpt lat="49.42285" lon="1.11953">
        <ele>106.360001</ele>
        <time>2020-12-01T10:26:26Z</time>
      </trkpt>
      <trkpt lat="49.42291" lon="1.11936">
        <ele>102.040001</ele>
        <time>2020-12-01T10:26:28Z</time>
      </trkpt>
      <trkpt lat="49.42291" lon="1.11923">
        <ele>99.150002</ele>
        <time>2020-12-01T10:26:31Z</time>
      </trkpt>
      <trkpt lat="49.42291" lon="1.1192">
        <ele>98.190002</ele>
        <time>2020-12-01T10:26:32Z</time>
      </trkpt>
      <trkpt lat="49.4229" lon="1.11919">
        <ele>97.709999</ele>
        <time>2020-12-01T10:26:33Z</time>
      </trkpt>
      <trkpt lat="49.42286" lon="1.11916">
        <ele>96.269997</ele>
        <time>2020-12-01T10:26:35Z</time>
      </trkpt>
      <trkpt lat="49.42281" lon="1.11915">
        <ele>92.900002</ele>
        <time>2020-12-01T10:26:39Z</time>
      </trkpt>
      <trkpt lat="49.42276" lon="1.11913">
        <ele>90.5</ele>
        <time>2020-12-01T10:26:41Z</time>
      </trkpt>
      <trkpt lat="49.42273" lon="1.11908">
        <ele>88.580002</ele>
        <time>2020-12-01T10:26:42Z</time>
      </trkpt>
      <trkpt lat="49.42271" lon="1.11903">
        <ele>86.660004</ele>
        <time>2020-12-01T10:26:43Z</time>
      </trkpt>
      <trkpt lat="49.42264" lon="1.11897">
        <ele>84.730003</ele>
        <time>2020-12-01T10:26:45Z</time>
      </trkpt>
      <trkpt lat="49.42257" lon="1.11898">
        <ele>84.730003</ele>
        <time>2020-12-01T10:26:48Z</time>
      </trkpt>
      <trkpt lat="49.42257" lon="1.11882">
        <ele>85.209999</ele>
        <time>2020-12-01T10:26:53Z</time>
      </trkpt>
      <trkpt lat="49.42262" lon="1.11869">
        <ele>85.209999</ele>
        <time>2020-12-01T10:26:57Z</time>
      </trkpt>
      <trkpt lat="49.42262" lon="1.1186">
        <ele>83.290001</ele>
        <time>2020-12-01T10:27:00Z</time>
      </trkpt>
      <trkpt lat="49.4226" lon="1.11855">
        <ele>82.330002</ele>
        <time>2020-12-01T10:27:01Z</time>
      </trkpt>
      <trkpt lat="49.4226" lon="1.11852">
        <ele>80.889999</ele>
        <time>2020-12-01T10:27:02Z</time>
      </trkpt>
      <trkpt lat="49.42259" lon="1.11848">
        <ele>79.449997</ele>
        <time>2020-12-01T10:27:03Z</time>
      </trkpt>
      <trkpt lat="49.42258" lon="1.11843">
        <ele>78.480003</ele>
        <time>2020-12-01T10:27:04Z</time>
      </trkpt>
      <trkpt lat="49.42258" lon="1.11839">
        <ele>76.559998</ele>
        <time>2020-12-01T10:27:05Z</time>
      </trkpt>
      <trkpt lat="49.42259" lon="1.11816">
        <ele>71.269997</ele>
        <time>2020-12-01T10:27:09Z</time>
      </trkpt>
      <trkpt lat="49.42261" lon="1.11802">
        <ele>67.43</ele>
        <time>2020-12-01T10:27:11Z</time>
      </trkpt>
      <trkpt lat="49.4226" lon="1.11796">
        <ele>65.989998</ele>
        <time>2020-12-01T10:27:12Z</time>
      </trkpt>
      <trkpt lat="49.42258" lon="1.11789">
        <ele>64.550003</ele>
        <time>2020-12-01T10:27:13Z</time>
      </trkpt>
      <trkpt lat="49.42256" lon="1.11783">
        <ele>62.139999</ele>
        <time>2020-12-01T10:27:14Z</time>
      </trkpt>
      <trkpt lat="49.42256" lon="1.11779">
        <ele>61.18</ele>
        <time>2020-12-01T10:27:15Z</time>
      </trkpt>
      <trkpt lat="49.42258" lon="1.11768">
        <ele>59.740002</ele>
        <time>2020-12-01T10:27:17Z</time>
      </trkpt>
      <trkpt lat="49.42257" lon="1.11761">
        <ele>58.299999</ele>
        <time>2020-12-01T10:27:18Z</time>
      </trkpt>
      <trkpt lat="49.42256" lon="1.11754">
        <ele>55.889999</ele>
        <time>2020-12-01T10:27:19Z</time>
      </trkpt>
      <trkpt lat="49.42255" lon="1.11746">
        <ele>54.450001</ele>
        <time>2020-12-01T10:27:20Z</time>
      </trkpt>
      <trkpt lat="49.42256" lon="1.11738">
        <ele>52.529999</ele>
        <time>2020-12-01T10:27:21Z</time>
      </trkpt>
      <trkpt lat="49.42256" lon="1.11731">
        <ele>50.130001</ele>
        <time>2020-12-01T10:27:22Z</time>
      </trkpt>
      <trkpt lat="49.42255" lon="1.11724">
        <ele>48.200001</ele>
        <time>2020-12-01T10:27:23Z</time>
      </trkpt>
      <trkpt lat="49.42253" lon="1.11709">
        <ele>44.360001</ele>
        <time>2020-12-01T10:27:25Z</time>
      </trkpt>
      <trkpt lat="49.42252" lon="1.11698">
        <ele>41.950001</ele>
        <time>2020-12-01T10:27:26Z</time>
      </trkpt>
      <trkpt lat="49.4225" lon="1.11684">
        <ele>38.110001</ele>
        <time>2020-12-01T10:27:28Z</time>
      </trkpt>
      <trkpt lat="49.4225" lon="1.11668">
        <ele>34.259998</ele>
        <time>2020-12-01T10:27:30Z</time>
      </trkpt>
      <trkpt lat="49.42249" lon="1.11658">
        <ele>31.860001</ele>
        <time>2020-12-01T10:27:31Z</time>
      </trkpt>
      <trkpt lat="49.42246" lon="1.11651">
        <ele>28.02</ele>
        <time>2020-12-01T10:27:33Z</time>
      </trkpt>
      <trkpt lat="49.42244" lon="1.11649">
        <ele>27.049999</ele>
        <time>2020-12-01T10:27:34Z</time>
      </trkpt>
      <trkpt lat="49.42242" lon="1.11651">
        <ele>28.02</ele>
        <time>2020-12-01T10:27:38Z</time>
      </trkpt>
      <trkpt lat="49.42241" lon="1.11653">
        <ele>26.57</ele>
        <time>2020-12-01T10:27:39Z</time>
      </trkpt>
      <trkpt lat="49.4224" lon="1.11656">
        <ele>26.57</ele>
        <time>2020-12-01T10:27:40Z</time>
      </trkpt>
      <trkpt lat="49.42238" lon="1.11666">
        <ele>28.5</ele>
        <time>2020-12-01T10:27:43Z</time>
      </trkpt>
      <trkpt lat="49.42229" lon="1.11688">
        <ele>32.34</ele>
        <time>2020-12-01T10:27:49Z</time>
      </trkpt>
      <trkpt lat="49.42225" lon="1.11689">
        <ele>32.34</ele>
        <time>2020-12-01T10:27:50Z</time>
      </trkpt>
      <trkpt lat="49.42222" lon="1.11691">
        <ele>32.82</ele>
        <time>2020-12-01T10:27:51Z</time>
      </trkpt>
      <trkpt lat="49.42204" lon="1.11711">
        <ele>36.189999</ele>
        <time>2020-12-01T10:27:57Z</time>
      </trkpt>
      <trkpt lat="49.42195" lon="1.11746">
        <ele>39.549999</ele>
        <time>2020-12-01T10:28:06Z</time>
      </trkpt>
      <trkpt lat="49.42194" lon="1.11751">
        <ele>40.029999</ele>
        <time>2020-12-01T10:28:08Z</time>
      </trkpt>
      <trkpt lat="49.42171" lon="1.1178">
        <ele>42.919998</ele>
        <time>2020-12-01T10:28:20Z</time>
      </trkpt>
      <trkpt lat="49.42154" lon="1.11798">
        <ele>46.759998</ele>
        <time>2020-12-01T10:28:29Z</time>
      </trkpt>
      <trkpt lat="49.42152" lon="1.11798">
        <ele>46.759998</ele>
        <time>2020-12-01T10:28:30Z</time>
      </trkpt>
      <trkpt lat="49.42116" lon="1.11797">
        <ele>47.720001</ele>
        <time>2020-12-01T10:28:42Z</time>
      </trkpt>
      <trkpt lat="49.42103" lon="1.11809">
        <ele>48.68</ele>
        <time>2020-12-01T10:28:48Z</time>
      </trkpt>
      <trkpt lat="49.42097" lon="1.11849">
        <ele>51.09</ele>
        <time>2020-12-01T10:28:56Z</time>
      </trkpt>
      <trkpt lat="49.42096" lon="1.11873">
        <ele>52.049999</ele>
        <time>2020-12-01T10:29:00Z</time>
      </trkpt>
      <trkpt lat="49.42094" lon="1.11916">
        <ele>54.450001</ele>
        <time>2020-12-01T10:29:07Z</time>
      </trkpt>
      <trkpt lat="49.42059" lon="1.11921">
        <ele>56.860001</ele>
        <time>2020-12-01T10:29:16Z</time>
      </trkpt>
      <trkpt lat="49.42052" lon="1.11919">
        <ele>56.860001</ele>
        <time>2020-12-01T10:29:17Z</time>
      </trkpt>
      <trkpt lat="49.42046" lon="1.11918">
        <ele>57.82</ele>
        <time>2020-12-01T10:29:18Z</time>
      </trkpt>
      <trkpt lat="49.4204" lon="1.11917">
        <ele>57.82</ele>
        <time>2020-12-01T10:29:19Z</time>
      </trkpt>
      <trkpt lat="49.42036" lon="1.11917">
        <ele>57.82</ele>
        <time>2020-12-01T10:29:20Z</time>
      </trkpt>
      <trkpt lat="49.4198" lon="1.11921">
        <ele>60.220001</ele>
        <time>2020-12-01T10:29:32Z</time>
      </trkpt>
      <trkpt lat="49.41966" lon="1.11971">
        <ele>63.580002</ele>
        <time>2020-12-01T10:29:44Z</time>
      </trkpt>
      <trkpt lat="49.41958" lon="1.12025">
        <ele>66.470001</ele>
        <time>2020-12-01T10:29:55Z</time>
      </trkpt>
      <trkpt lat="49.41951" lon="1.12046">
        <ele>67.910004</ele>
        <time>2020-12-01T10:29:59Z</time>
      </trkpt>
      <trkpt lat="49.41948" lon="1.12049">
        <ele>67.910004</ele>
        <time>2020-12-01T10:30:00Z</time>
      </trkpt>
      <trkpt lat="49.41905" lon="1.12068">
        <ele>70.309998</ele>
        <time>2020-12-01T10:30:11Z</time>
      </trkpt>
      <trkpt lat="49.41876" lon="1.12048">
        <ele>72.720001</ele>
        <time>2020-12-01T10:30:20Z</time>
      </trkpt>
      <trkpt lat="49.41845" lon="1.12009">
        <ele>76.080002</ele>
        <time>2020-12-01T10:30:32Z</time>
      </trkpt>
      <trkpt lat="49.41835" lon="1.12006">
        <ele>76.559998</ele>
        <time>2020-12-01T10:30:35Z</time>
      </trkpt>
      <trkpt lat="49.41832" lon="1.12007">
        <ele>76.559998</ele>
        <time>2020-12-01T10:30:36Z</time>
      </trkpt>
      <trkpt lat="49.41794" lon="1.12023">
        <ele>79.93</ele>
        <time>2020-12-01T10:30:46Z</time>
      </trkpt>
      <trkpt lat="49.41747" lon="1.1205">
        <ele>82.809998</ele>
        <time>2020-12-01T10:30:59Z</time>
      </trkpt>
      <trkpt lat="49.41725" lon="1.12069">
        <ele>86.18</ele>
        <time>2020-12-01T10:31:06Z</time>
      </trkpt>
      <trkpt lat="49.41712" lon="1.1208">
        <ele>86.660004</ele>
        <time>2020-12-01T10:31:10Z</time>
      </trkpt>
      <trkpt lat="49.41676" lon="1.1213">
        <ele>90.019997</ele>
        <time>2020-12-01T10:31:24Z</time>
      </trkpt>
      <trkpt lat="49.41653" lon="1.12183">
        <ele>93.389999</ele>
        <time>2020-12-01T10:31:36Z</time>
      </trkpt>
      <trkpt lat="49.41629" lon="1.12239">
        <ele>96.269997</ele>
        <time>2020-12-01T10:31:50Z</time>
      </trkpt>
      <trkpt lat="49.41628" lon="1.12288">
        <ele>99.629997</ele>
        <time>2020-12-01T10:32:01Z</time>
      </trkpt>
      <trkpt lat="49.41631" lon="1.12347">
        <ele>102.519997</ele>
        <time>2020-12-01T10:32:14Z</time>
      </trkpt>
      <trkpt lat="49.41632" lon="1.12394">
        <ele>104.919998</ele>
        <time>2020-12-01T10:32:24Z</time>
      </trkpt>
      <trkpt lat="49.41642" lon="1.12432">
        <ele>107.32</ele>
        <time>2020-12-01T10:32:34Z</time>
      </trkpt>
      <trkpt lat="49.4165" lon="1.12469">
        <ele>109.25</ele>
        <time>2020-12-01T10:32:44Z</time>
      </trkpt>
      <trkpt lat="49.41664" lon="1.12515">
        <ele>112.610001</ele>
        <time>2020-12-01T10:32:55Z</time>
      </trkpt>
      <trkpt lat="49.41672" lon="1.12572">
        <ele>115.5</ele>
        <time>2020-12-01T10:33:08Z</time>
      </trkpt>
      <trkpt lat="49.41678" lon="1.1258">
        <ele>116.459999</ele>
        <time>2020-12-01T10:33:12Z</time>
      </trkpt>
      <trkpt lat="49.41685" lon="1.12624">
        <ele>119.339996</ele>
        <time>2020-12-01T10:33:22Z</time>
      </trkpt>
      <trkpt lat="49.41692" lon="1.12638">
        <ele>123.190002</ele>
        <time>2020-12-01T10:33:28Z</time>
      </trkpt>
      <trkpt lat="49.41694" lon="1.12645">
        <ele>123.669998</ele>
        <time>2020-12-01T10:33:38Z</time>
      </trkpt>
      <trkpt lat="49.417" lon="1.12642">
        <ele>124.150002</ele>
        <time>2020-12-01T10:33:55Z</time>
      </trkpt>
      <trkpt lat="49.417" lon="1.12648">
        <ele>126.07</ele>
        <time>2020-12-01T10:34:11Z</time>
      </trkpt>
      <trkpt lat="49.41704" lon="1.12648">
        <ele>129.429993</ele>
        <time>2020-12-01T10:34:24Z</time>
      </trkpt>
      <trkpt lat="49.41709" lon="1.12657">
        <ele>131.360001</ele>
        <time>2020-12-01T10:34:40Z</time>
      </trkpt>
      <trkpt lat="49.41711" lon="1.12674">
        <ele>131.360001</ele>
        <time>2020-12-01T10:35:00Z</time>
      </trkpt>
      <trkpt lat="49.41712" lon="1.12668">
        <ele>131.360001</ele>
        <time>2020-12-01T10:35:15Z</time>
      </trkpt>
      <trkpt lat="49.41711" lon="1.12667">
        <ele>131.839996</ele>
        <time>2020-12-01T10:35:37Z</time>
      </trkpt>
      <trkpt lat="49.41711" lon="1.12669">
        <ele>131.839996</ele>
        <time>2020-12-01T10:35:38Z</time>
      </trkpt>
      <trkpt lat="49.41711" lon="1.1267">
        <ele>131.839996</ele>
        <time>2020-12-01T10:35:39Z</time>
      </trkpt>
      <trkpt lat="49.4171" lon="1.12672">
        <ele>132.320007</ele>
        <time>2020-12-01T10:35:41Z</time>
      </trkpt>
      <trkpt lat="49.4171" lon="1.12674">
        <ele>132.320007</ele>
        <time>2020-12-01T10:35:42Z</time>
      </trkpt>
      <trkpt lat="49.41711" lon="1.12679">
        <ele>132.800003</ele>
        <time>2020-12-01T10:35:44Z</time>
      </trkpt>
      <trkpt lat="49.4171" lon="1.12702">
        <ele>133.279999</ele>
        <time>2020-12-01T10:35:49Z</time>
      </trkpt>
      <trkpt lat="49.41711" lon="1.12706">
        <ele>133.759995</ele>
        <time>2020-12-01T10:35:50Z</time>
      </trkpt>
      <trkpt lat="49.41711" lon="1.1271">
        <ele>134.240005</ele>
        <time>2020-12-01T10:35:51Z</time>
      </trkpt>
      <trkpt lat="49.41689" lon="1.12763">
        <ele>136.639999</ele>
        <time>2020-12-01T10:36:03Z</time>
      </trkpt>
      <trkpt lat="49.41677" lon="1.12833">
        <ele>139.050003</ele>
        <time>2020-12-01T10:36:16Z</time>
      </trkpt>
      <trkpt lat="49.41667" lon="1.12909">
        <ele>141.449997</ele>
        <time>2020-12-01T10:36:28Z</time>
      </trkpt>
      <trkpt lat="49.41665" lon="1.12936">
        <ele>142.410004</ele>
        <time>2020-12-01T10:36:32Z</time>
      </trkpt>
      <trkpt lat="49.41663" lon="1.12978">
        <ele>143.369995</ele>
        <time>2020-12-01T10:36:38Z</time>
      </trkpt>
      <trkpt lat="49.41669" lon="1.13059">
        <ele>145.300003</ele>
        <time>2020-12-01T10:36:49Z</time>
      </trkpt>
      <trkpt lat="49.41669" lon="1.13107">
        <ele>146.740005</ele>
        <time>2020-12-01T10:36:57Z</time>
      </trkpt>
      <trkpt lat="49.41667" lon="1.13111">
        <ele>146.740005</ele>
        <time>2020-12-01T10:36:58Z</time>
      </trkpt>
      <trkpt lat="49.41626" lon="1.13147">
        <ele>147.699997</ele>
        <time>2020-12-01T10:37:11Z</time>
      </trkpt>
      <trkpt lat="49.41591" lon="1.13174">
        <ele>148.179993</ele>
        <time>2020-12-01T10:37:19Z</time>
      </trkpt>
      <trkpt lat="49.41542" lon="1.13206">
        <ele>149.139999</ele>
        <time>2020-12-01T10:37:29Z</time>
      </trkpt>
      <trkpt lat="49.41435" lon="1.13259">
        <ele>151.059998</ele>
        <time>2020-12-01T10:37:50Z</time>
      </trkpt>
      <trkpt lat="49.41323" lon="1.13319">
        <ele>152.990005</ele>
        <time>2020-12-01T10:38:10Z</time>
      </trkpt>
      <trkpt lat="49.41261" lon="1.13354">
        <ele>153.470001</ele>
        <time>2020-12-01T10:38:20Z</time>
      </trkpt>
      <trkpt lat="49.41255" lon="1.13354">
        <ele>153.470001</ele>
        <time>2020-12-01T10:38:21Z</time>
      </trkpt>
      <trkpt lat="49.41248" lon="1.13351">
        <ele>153.470001</ele>
        <time>2020-12-01T10:38:22Z</time>
      </trkpt>
      <trkpt lat="49.41244" lon="1.13345">
        <ele>154.429993</ele>
        <time>2020-12-01T10:38:23Z</time>
      </trkpt>
      <trkpt lat="49.4124" lon="1.13337">
        <ele>154.429993</ele>
        <time>2020-12-01T10:38:24Z</time>
      </trkpt>
      <trkpt lat="49.41237" lon="1.13328">
        <ele>154.429993</ele>
        <time>2020-12-01T10:38:25Z</time>
      </trkpt>
      <trkpt lat="49.41235" lon="1.1332">
        <ele>154.429993</ele>
        <time>2020-12-01T10:38:26Z</time>
      </trkpt>
      <trkpt lat="49.41229" lon="1.13305">
        <ele>152.990005</ele>
        <time>2020-12-01T10:38:28Z</time>
      </trkpt>
      <trkpt lat="49.41225" lon="1.133">
        <ele>152.990005</ele>
        <time>2020-12-01T10:38:29Z</time>
      </trkpt>
      <trkpt lat="49.41219" lon="1.13295">
        <ele>152.509995</ele>
        <time>2020-12-01T10:38:30Z</time>
      </trkpt>
      <trkpt lat="49.41208" lon="1.13287">
        <ele>152.509995</ele>
        <time>2020-12-01T10:38:32Z</time>
      </trkpt>
      <trkpt lat="49.41203" lon="1.13282">
        <ele>152.509995</ele>
        <time>2020-12-01T10:38:33Z</time>
      </trkpt>
      <trkpt lat="49.41194" lon="1.13271">
        <ele>152.509995</ele>
        <time>2020-12-01T10:38:35Z</time>
      </trkpt>
      <trkpt lat="49.41188" lon="1.1327">
        <ele>152.509995</ele>
        <time>2020-12-01T10:38:36Z</time>
      </trkpt>
      <trkpt lat="49.41183" lon="1.13271">
        <ele>152.509995</ele>
        <time>2020-12-01T10:38:37Z</time>
      </trkpt>
      <trkpt lat="49.41177" lon="1.13273">
        <ele>152.509995</ele>
        <time>2020-12-01T10:38:38Z</time>
      </trkpt>
      <trkpt lat="49.41172" lon="1.13276">
        <ele>152.509995</ele>
        <time>2020-12-01T10:38:39Z</time>
      </trkpt>
      <trkpt lat="49.41117" lon="1.13301">
        <ele>153.949997</ele>
        <time>2020-12-01T10:38:49Z</time>
      </trkpt>
      <trkpt lat="49.41111" lon="1.13303">
        <ele>153.949997</ele>
        <time>2020-12-01T10:38:50Z</time>
      </trkpt>
      <trkpt lat="49.41105" lon="1.13303">
        <ele>153.949997</ele>
        <time>2020-12-01T10:38:51Z</time>
      </trkpt>
      <trkpt lat="49.41099" lon="1.13302">
        <ele>153.949997</ele>
        <time>2020-12-01T10:38:52Z</time>
      </trkpt>
      <trkpt lat="49.41093" lon="1.13299">
        <ele>153.949997</ele>
        <time>2020-12-01T10:38:53Z</time>
      </trkpt>
      <trkpt lat="49.41087" lon="1.13295">
        <ele>153.949997</ele>
        <time>2020-12-01T10:38:54Z</time>
      </trkpt>
      <trkpt lat="49.41082" lon="1.13289">
        <ele>153.949997</ele>
        <time>2020-12-01T10:38:55Z</time>
      </trkpt>
      <trkpt lat="49.4108" lon="1.13285">
        <ele>153.949997</ele>
        <time>2020-12-01T10:38:56Z</time>
      </trkpt>
      <trkpt lat="49.41078" lon="1.13279">
        <ele>153.949997</ele>
        <time>2020-12-01T10:38:57Z</time>
      </trkpt>
      <trkpt lat="49.41076" lon="1.13271">
        <ele>153.949997</ele>
        <time>2020-12-01T10:38:58Z</time>
      </trkpt>
      <trkpt lat="49.41075" lon="1.13261">
        <ele>153.949997</ele>
        <time>2020-12-01T10:38:59Z</time>
      </trkpt>
      <trkpt lat="49.41074" lon="1.13252">
        <ele>152.509995</ele>
        <time>2020-12-01T10:39:00Z</time>
      </trkpt>
      <trkpt lat="49.41065" lon="1.13218">
        <ele>152.509995</ele>
        <time>2020-12-01T10:39:04Z</time>
      </trkpt>
      <trkpt lat="49.41059" lon="1.13213">
        <ele>152.029999</ele>
        <time>2020-12-01T10:39:05Z</time>
      </trkpt>
      <trkpt lat="49.41056" lon="1.13213">
        <ele>152.029999</ele>
        <time>2020-12-01T10:39:06Z</time>
      </trkpt>
      <trkpt lat="49.41051" lon="1.13213">
        <ele>152.029999</ele>
        <time>2020-12-01T10:39:07Z</time>
      </trkpt>
      <trkpt lat="49.41046" lon="1.13214">
        <ele>152.029999</ele>
        <time>2020-12-01T10:39:08Z</time>
      </trkpt>
      <trkpt lat="49.41023" lon="1.1322">
        <ele>152.029999</ele>
        <time>2020-12-01T10:39:12Z</time>
      </trkpt>
      <trkpt lat="49.41018" lon="1.1322">
        <ele>152.029999</ele>
        <time>2020-12-01T10:39:13Z</time>
      </trkpt>
      <trkpt lat="49.41013" lon="1.13216">
        <ele>152.029999</ele>
        <time>2020-12-01T10:39:14Z</time>
      </trkpt>
      <trkpt lat="49.41009" lon="1.13212">
        <ele>152.029999</ele>
        <time>2020-12-01T10:39:15Z</time>
      </trkpt>
      <trkpt lat="49.41007" lon="1.13207">
        <ele>152.029999</ele>
        <time>2020-12-01T10:39:16Z</time>
      </trkpt>
      <trkpt lat="49.41004" lon="1.132">
        <ele>152.029999</ele>
        <time>2020-12-01T10:39:17Z</time>
      </trkpt>
      <trkpt lat="49.41001" lon="1.13191">
        <ele>152.029999</ele>
        <time>2020-12-01T10:39:18Z</time>
      </trkpt>
      <trkpt lat="49.40999" lon="1.13181">
        <ele>152.029999</ele>
        <time>2020-12-01T10:39:19Z</time>
      </trkpt>
      <trkpt lat="49.40998" lon="1.13172">
        <ele>152.029999</ele>
        <time>2020-12-01T10:39:20Z</time>
      </trkpt>
      <trkpt lat="49.40979" lon="1.13063">
        <ele>152.029999</ele>
        <time>2020-12-01T10:39:31Z</time>
      </trkpt>
      <trkpt lat="49.40976" lon="1.13044">
        <ele>152.029999</ele>
        <time>2020-12-01T10:39:33Z</time>
      </trkpt>
      <trkpt lat="49.40976" lon="1.13034">
        <ele>152.029999</ele>
        <time>2020-12-01T10:39:34Z</time>
      </trkpt>
      <trkpt lat="49.40978" lon="1.13026">
        <ele>151.059998</ele>
        <time>2020-12-01T10:39:35Z</time>
      </trkpt>
      <trkpt lat="49.40981" lon="1.13021">
        <ele>151.059998</ele>
        <time>2020-12-01T10:39:36Z</time>
      </trkpt>
      <trkpt lat="49.40986" lon="1.13016">
        <ele>151.059998</ele>
        <time>2020-12-01T10:39:37Z</time>
      </trkpt>
      <trkpt lat="49.40992" lon="1.13012">
        <ele>151.059998</ele>
        <time>2020-12-01T10:39:38Z</time>
      </trkpt>
      <trkpt lat="49.40998" lon="1.13009">
        <ele>151.059998</ele>
        <time>2020-12-01T10:39:39Z</time>
      </trkpt>
      <trkpt lat="49.41027" lon="1.12993">
        <ele>152.990005</ele>
        <time>2020-12-01T10:39:44Z</time>
      </trkpt>
      <trkpt lat="49.41053" lon="1.12978">
        <ele>151.059998</ele>
        <time>2020-12-01T10:39:49Z</time>
      </trkpt>
      <trkpt lat="49.41157" lon="1.12925">
        <ele>150.580002</ele>
        <time>2020-12-01T10:40:07Z</time>
      </trkpt>
      <trkpt lat="49.41196" lon="1.12898">
        <ele>147.699997</ele>
        <time>2020-12-01T10:40:14Z</time>
      </trkpt>
      <trkpt lat="49.41198" lon="1.12891">
        <ele>146.740005</ele>
        <time>2020-12-01T10:40:15Z</time>
      </trkpt>
      <trkpt lat="49.41198" lon="1.12884">
        <ele>146.259995</ele>
        <time>2020-12-01T10:40:16Z</time>
      </trkpt>
      <trkpt lat="49.41196" lon="1.12877">
        <ele>146.259995</ele>
        <time>2020-12-01T10:40:17Z</time>
      </trkpt>
      <trkpt lat="49.41194" lon="1.12868">
        <ele>145.300003</ele>
        <time>2020-12-01T10:40:18Z</time>
      </trkpt>
      <trkpt lat="49.4118" lon="1.12823">
        <ele>144.820007</ele>
        <time>2020-12-01T10:40:23Z</time>
      </trkpt>
      <trkpt lat="49.41176" lon="1.12815">
        <ele>144.339996</ele>
        <time>2020-12-01T10:40:24Z</time>
      </trkpt>
      <trkpt lat="49.41172" lon="1.12809">
        <ele>144.820007</ele>
        <time>2020-12-01T10:40:25Z</time>
      </trkpt>
      <trkpt lat="49.41137" lon="1.12751">
        <ele>145.779999</ele>
        <time>2020-12-01T10:40:33Z</time>
      </trkpt>
      <trkpt lat="49.41104" lon="1.1268">
        <ele>144.820007</ele>
        <time>2020-12-01T10:40:44Z</time>
      </trkpt>
      <trkpt lat="49.41077" lon="1.12635">
        <ele>145.779999</ele>
        <time>2020-12-01T10:40:51Z</time>
      </trkpt>
      <trkpt lat="49.41075" lon="1.12629">
        <ele>145.779999</ele>
        <time>2020-12-01T10:40:52Z</time>
      </trkpt>
      <trkpt lat="49.41063" lon="1.12597">
        <ele>146.259995</ele>
        <time>2020-12-01T10:40:58Z</time>
      </trkpt>
      <trkpt lat="49.41058" lon="1.12571">
        <ele>143.369995</ele>
        <time>2020-12-01T10:41:01Z</time>
      </trkpt>
      <trkpt lat="49.41052" lon="1.12545">
        <ele>139.529999</ele>
        <time>2020-12-01T10:41:04Z</time>
      </trkpt>
      <trkpt lat="49.41045" lon="1.12533">
        <ele>135.679993</ele>
        <time>2020-12-01T10:41:07Z</time>
      </trkpt>
      <trkpt lat="49.4104" lon="1.12528">
        <ele>131.839996</ele>
        <time>2020-12-01T10:41:09Z</time>
      </trkpt>
      <trkpt lat="49.41034" lon="1.12525">
        <ele>128.470001</ele>
        <time>2020-12-01T10:41:11Z</time>
      </trkpt>
      <trkpt lat="49.41031" lon="1.12524">
        <ele>127.029999</ele>
        <time>2020-12-01T10:41:12Z</time>
      </trkpt>
      <trkpt lat="49.41027" lon="1.12526">
        <ele>126.550003</ele>
        <time>2020-12-01T10:41:13Z</time>
      </trkpt>
      <trkpt lat="49.41023" lon="1.1253">
        <ele>126.550003</ele>
        <time>2020-12-01T10:41:14Z</time>
      </trkpt>
      <trkpt lat="49.40997" lon="1.12557">
        <ele>123.190002</ele>
        <time>2020-12-01T10:41:19Z</time>
      </trkpt>
      <trkpt lat="49.40976" lon="1.12583">
        <ele>120.300003</ele>
        <time>2020-12-01T10:41:23Z</time>
      </trkpt>
      <trkpt lat="49.40971" lon="1.12587">
        <ele>117.419998</ele>
        <time>2020-12-01T10:41:26Z</time>
      </trkpt>
      <trkpt lat="49.4097" lon="1.12584">
        <ele>115.980003</ele>
        <time>2020-12-01T10:41:27Z</time>
      </trkpt>
      <trkpt lat="49.40971" lon="1.1258">
        <ele>115.5</ele>
        <time>2020-12-01T10:41:28Z</time>
      </trkpt>
      <trkpt lat="49.40971" lon="1.12576">
        <ele>114.529999</ele>
        <time>2020-12-01T10:41:29Z</time>
      </trkpt>
      <trkpt lat="49.40973" lon="1.1255">
        <ele>111.169998</ele>
        <time>2020-12-01T10:41:32Z</time>
      </trkpt>
      <trkpt lat="49.40979" lon="1.12507">
        <ele>106.839996</ele>
        <time>2020-12-01T10:41:36Z</time>
      </trkpt>
      <trkpt lat="49.40982" lon="1.12493">
        <ele>105.879997</ele>
        <time>2020-12-01T10:41:38Z</time>
      </trkpt>
      <trkpt lat="49.40982" lon="1.12489">
        <ele>104.440002</ele>
        <time>2020-12-01T10:41:40Z</time>
      </trkpt>
      <trkpt lat="49.4098" lon="1.12491">
        <ele>103.480003</ele>
        <time>2020-12-01T10:41:41Z</time>
      </trkpt>
      <trkpt lat="49.40966" lon="1.12513">
        <ele>99.629997</ele>
        <time>2020-12-01T10:41:46Z</time>
      </trkpt>
      <trkpt lat="49.40967" lon="1.12511">
        <ele>100.110001</ele>
        <time>2020-12-01T10:41:47Z</time>
      </trkpt>
      <trkpt lat="49.40967" lon="1.1251">
        <ele>100.110001</ele>
        <time>2020-12-01T10:41:48Z</time>
      </trkpt>
      <trkpt lat="49.40967" lon="1.12507">
        <ele>99.150002</ele>
        <time>2020-12-01T10:41:49Z</time>
      </trkpt>
      <trkpt lat="49.40978" lon="1.12462">
        <ele>95.790001</ele>
        <time>2020-12-01T10:41:55Z</time>
      </trkpt>
      <trkpt lat="49.40982" lon="1.12447">
        <ele>94.349998</ele>
        <time>2020-12-01T10:41:58Z</time>
      </trkpt>
      <trkpt lat="49.40978" lon="1.12444">
        <ele>92.419998</ele>
        <time>2020-12-01T10:42:00Z</time>
      </trkpt>
      <trkpt lat="49.40975" lon="1.12446">
        <ele>91.459999</ele>
        <time>2020-12-01T10:42:01Z</time>
      </trkpt>
      <trkpt lat="49.40971" lon="1.1245">
        <ele>90.5</ele>
        <time>2020-12-01T10:42:02Z</time>
      </trkpt>
      <trkpt lat="49.40967" lon="1.12455">
        <ele>90.5</ele>
        <time>2020-12-01T10:42:03Z</time>
      </trkpt>
      <trkpt lat="49.40956" lon="1.12466">
        <ele>88.580002</ele>
        <time>2020-12-01T10:42:05Z</time>
      </trkpt>
      <trkpt lat="49.4094" lon="1.12483">
        <ele>84.730003</ele>
        <time>2020-12-01T10:42:08Z</time>
      </trkpt>
      <trkpt lat="49.40929" lon="1.12491">
        <ele>80.889999</ele>
        <time>2020-12-01T10:42:11Z</time>
      </trkpt>
      <trkpt lat="49.40928" lon="1.12489">
        <ele>80.410004</ele>
        <time>2020-12-01T10:42:12Z</time>
      </trkpt>
      <trkpt lat="49.40927" lon="1.12486">
        <ele>79.449997</ele>
        <time>2020-12-01T10:42:13Z</time>
      </trkpt>
      <trkpt lat="49.40926" lon="1.12473">
        <ele>75.599998</ele>
        <time>2020-12-01T10:42:16Z</time>
      </trkpt>
      <trkpt lat="49.40928" lon="1.12463">
        <ele>74.639999</ele>
        <time>2020-12-01T10:42:18Z</time>
      </trkpt>
      <trkpt lat="49.40927" lon="1.1246">
        <ele>73.199997</ele>
        <time>2020-12-01T10:42:20Z</time>
      </trkpt>
      <trkpt lat="49.40923" lon="1.12461">
        <ele>72.720001</ele>
        <time>2020-12-01T10:42:22Z</time>
      </trkpt>
      <trkpt lat="49.4092" lon="1.12465">
        <ele>70.790001</ele>
        <time>2020-12-01T10:42:23Z</time>
      </trkpt>
      <trkpt lat="49.40918" lon="1.12468">
        <ele>70.309998</ele>
        <time>2020-12-01T10:42:24Z</time>
      </trkpt>
      <trkpt lat="49.40916" lon="1.12471">
        <ele>70.309998</ele>
        <time>2020-12-01T10:42:25Z</time>
      </trkpt>
      <trkpt lat="49.40914" lon="1.12476">
        <ele>70.309998</ele>
        <time>2020-12-01T10:42:26Z</time>
      </trkpt>
      <trkpt lat="49.40903" lon="1.12492">
        <ele>66.949997</ele>
        <time>2020-12-01T10:42:33Z</time>
      </trkpt>
      <trkpt lat="49.40904" lon="1.12482">
        <ele>64.07</ele>
        <time>2020-12-01T10:42:35Z</time>
      </trkpt>
      <trkpt lat="49.40903" lon="1.12479">
        <ele>62.139999</ele>
        <time>2020-12-01T10:42:36Z</time>
      </trkpt>
      <trkpt lat="49.40902" lon="1.12476">
        <ele>60.220001</ele>
        <time>2020-12-01T10:42:37Z</time>
      </trkpt>
      <trkpt lat="49.40902" lon="1.1247">
        <ele>59.259998</ele>
        <time>2020-12-01T10:42:38Z</time>
      </trkpt>
      <trkpt lat="49.40902" lon="1.12464">
        <ele>57.34</ele>
        <time>2020-12-01T10:42:39Z</time>
      </trkpt>
      <trkpt lat="49.40901" lon="1.12455">
        <ele>53.970001</ele>
        <time>2020-12-01T10:42:41Z</time>
      </trkpt>
      <trkpt lat="49.40898" lon="1.12448">
        <ele>51.57</ele>
        <time>2020-12-01T10:42:44Z</time>
      </trkpt>
      <trkpt lat="49.40895" lon="1.1245">
        <ele>53.009998</ele>
        <time>2020-12-01T10:42:50Z</time>
      </trkpt>
      <trkpt lat="49.40892" lon="1.12451">
        <ele>54.450001</ele>
        <time>2020-12-01T10:42:52Z</time>
      </trkpt>
      <trkpt lat="49.4089" lon="1.12452">
        <ele>54.450001</ele>
        <time>2020-12-01T10:42:53Z</time>
      </trkpt>
      <trkpt lat="49.40887" lon="1.12452">
        <ele>54.93</ele>
        <time>2020-12-01T10:42:54Z</time>
      </trkpt>
      <trkpt lat="49.40885" lon="1.12451">
        <ele>54.93</ele>
        <time>2020-12-01T10:42:55Z</time>
      </trkpt>
      <trkpt lat="49.40883" lon="1.12451">
        <ele>55.889999</ele>
        <time>2020-12-01T10:42:56Z</time>
      </trkpt>
      <trkpt lat="49.40881" lon="1.1245">
        <ele>56.369999</ele>
        <time>2020-12-01T10:42:57Z</time>
      </trkpt>
      <trkpt lat="49.40855" lon="1.12443">
        <ele>60.220001</ele>
        <time>2020-12-01T10:43:09Z</time>
      </trkpt>
      <trkpt lat="49.40832" lon="1.12449">
        <ele>63.099998</ele>
        <time>2020-12-01T10:43:18Z</time>
      </trkpt>
      <trkpt lat="49.40813" lon="1.12464">
        <ele>66.949997</ele>
        <time>2020-12-01T10:43:28Z</time>
      </trkpt>
      <trkpt lat="49.40797" lon="1.12477">
        <ele>69.830002</ele>
        <time>2020-12-01T10:43:36Z</time>
      </trkpt>
      <trkpt lat="49.40776" lon="1.12493">
        <ele>73.199997</ele>
        <time>2020-12-01T10:43:47Z</time>
      </trkpt>
      <trkpt lat="49.40749" lon="1.12513">
        <ele>75.120003</ele>
        <time>2020-12-01T10:44:02Z</time>
      </trkpt>
      <trkpt lat="49.40743" lon="1.12519">
        <ele>73.199997</ele>
        <time>2020-12-01T10:44:16Z</time>
      </trkpt>
      <trkpt lat="49.40737" lon="1.12517">
        <ele>72.720001</ele>
        <time>2020-12-01T10:44:36Z</time>
      </trkpt>
      <trkpt lat="49.40733" lon="1.12515">
        <ele>71.760002</ele>
        <time>2020-12-01T10:44:52Z</time>
      </trkpt>
      <trkpt lat="49.40724" lon="1.1252">
        <ele>73.199997</ele>
        <time>2020-12-01T10:45:09Z</time>
      </trkpt>
      <trkpt lat="49.40707" lon="1.12523">
        <ele>71.760002</ele>
        <time>2020-12-01T10:45:20Z</time>
      </trkpt>
      <trkpt lat="49.40696" lon="1.12533">
        <ele>73.199997</ele>
        <time>2020-12-01T10:45:27Z</time>
      </trkpt>
      <trkpt lat="49.40681" lon="1.12538">
        <ele>72.720001</ele>
        <time>2020-12-01T10:45:40Z</time>
      </trkpt>
      <trkpt lat="49.40681" lon="1.12532">
        <ele>68.870003</ele>
        <time>2020-12-01T10:45:42Z</time>
      </trkpt>
      <trkpt lat="49.40682" lon="1.1253">
        <ele>68.870003</ele>
        <time>2020-12-01T10:45:43Z</time>
      </trkpt>
      <trkpt lat="49.40696" lon="1.12518">
        <ele>65.989998</ele>
        <time>2020-12-01T10:45:51Z</time>
      </trkpt>
      <trkpt lat="49.40699" lon="1.12511">
        <ele>63.099998</ele>
        <time>2020-12-01T10:45:54Z</time>
      </trkpt>
      <trkpt lat="49.40696" lon="1.12508">
        <ele>62.619999</ele>
        <time>2020-12-01T10:45:56Z</time>
      </trkpt>
      <trkpt lat="49.40686" lon="1.12511">
        <ele>62.139999</ele>
        <time>2020-12-01T10:46:01Z</time>
      </trkpt>
      <trkpt lat="49.40685" lon="1.1251">
        <ele>60.700001</ele>
        <time>2020-12-01T10:46:02Z</time>
      </trkpt>
      <trkpt lat="49.40682" lon="1.12506">
        <ele>57.82</ele>
        <time>2020-12-01T10:46:04Z</time>
      </trkpt>
      <trkpt lat="49.40681" lon="1.12506">
        <ele>57.82</ele>
        <time>2020-12-01T10:46:05Z</time>
      </trkpt>
      <trkpt lat="49.40661" lon="1.125">
        <ele>58.299999</ele>
        <time>2020-12-01T10:46:18Z</time>
      </trkpt>
      <trkpt lat="49.40655" lon="1.12501">
        <ele>57.34</ele>
        <time>2020-12-01T10:46:28Z</time>
      </trkpt>
      <trkpt lat="49.40653" lon="1.12501">
        <ele>57.34</ele>
        <time>2020-12-01T10:46:29Z</time>
      </trkpt>
      <trkpt lat="49.40651" lon="1.12501">
        <ele>57.34</ele>
        <time>2020-12-01T10:46:30Z</time>
      </trkpt>
      <trkpt lat="49.40625" lon="1.125">
        <ele>58.779999</ele>
        <time>2020-12-01T10:46:38Z</time>
      </trkpt>
      <trkpt lat="49.4062" lon="1.12502">
        <ele>59.740002</ele>
        <time>2020-12-01T10:46:40Z</time>
      </trkpt>
      <trkpt lat="49.40594" lon="1.12511">
        <ele>63.580002</ele>
        <time>2020-12-01T10:46:51Z</time>
      </trkpt>
      <trkpt lat="49.40533" lon="1.12524">
        <ele>65.029999</ele>
        <time>2020-12-01T10:47:06Z</time>
      </trkpt>
      <trkpt lat="49.4052" lon="1.12534">
        <ele>67.910004</ele>
        <time>2020-12-01T10:47:12Z</time>
      </trkpt>
      <trkpt lat="49.40517" lon="1.12543">
        <ele>70.790001</ele>
        <time>2020-12-01T10:47:18Z</time>
      </trkpt>
      <trkpt lat="49.40514" lon="1.12551">
        <ele>74.160004</ele>
        <time>2020-12-01T10:47:28Z</time>
      </trkpt>
      <trkpt lat="49.40507" lon="1.12557">
        <ele>76.080002</ele>
        <time>2020-12-01T10:47:44Z</time>
      </trkpt>
      <trkpt lat="49.40505" lon="1.12558">
        <ele>76.080002</ele>
        <time>2020-12-01T10:47:45Z</time>
      </trkpt>
      <trkpt lat="49.40504" lon="1.12558">
        <ele>76.559998</ele>
        <time>2020-12-01T10:47:46Z</time>
      </trkpt>
      <trkpt lat="49.40496" lon="1.12567">
        <ele>79.449997</ele>
        <time>2020-12-01T10:47:52Z</time>
      </trkpt>
      <trkpt lat="49.40463" lon="1.12578">
        <ele>80.889999</ele>
        <time>2020-12-01T10:48:05Z</time>
      </trkpt>
      <trkpt lat="49.40419" lon="1.12597">
        <ele>78.480003</ele>
        <time>2020-12-01T10:48:15Z</time>
      </trkpt>
      <trkpt lat="49.40401" lon="1.12612">
        <ele>80.889999</ele>
        <time>2020-12-01T10:48:21Z</time>
      </trkpt>
      <trkpt lat="49.404" lon="1.12626">
        <ele>81.849998</ele>
        <time>2020-12-01T10:48:34Z</time>
      </trkpt>
      <trkpt lat="49.404" lon="1.12627">
        <ele>82.330002</ele>
        <time>2020-12-01T10:48:58Z</time>
      </trkpt>
      <trkpt lat="49.404" lon="1.12626">
        <ele>81.849998</ele>
        <time>2020-12-01T10:49:31Z</time>
      </trkpt>
      <trkpt lat="49.40397" lon="1.12627">
        <ele>81.849998</ele>
        <time>2020-12-01T10:50:01Z</time>
      </trkpt>
      <trkpt lat="49.40396" lon="1.12625">
        <ele>82.330002</ele>
        <time>2020-12-01T10:50:33Z</time>
      </trkpt>
      <trkpt lat="49.40395" lon="1.12623">
        <ele>82.330002</ele>
        <time>2020-12-01T10:50:34Z</time>
      </trkpt>
      <trkpt lat="49.40392" lon="1.12621">
        <ele>82.330002</ele>
        <time>2020-12-01T10:50:35Z</time>
      </trkpt>
      <trkpt lat="49.40376" lon="1.12617">
        <ele>78.970001</ele>
        <time>2020-12-01T10:50:38Z</time>
      </trkpt>
      <trkpt lat="49.40353" lon="1.12615">
        <ele>75.599998</ele>
        <time>2020-12-01T10:50:41Z</time>
      </trkpt>
      <trkpt lat="49.40344" lon="1.12615">
        <ele>75.599998</ele>
        <time>2020-12-01T10:50:42Z</time>
      </trkpt>
      <trkpt lat="49.40301" lon="1.12613">
        <ele>71.760002</ele>
        <time>2020-12-01T10:50:47Z</time>
      </trkpt>
      <trkpt lat="49.40281" lon="1.12613">
        <ele>68.389999</ele>
        <time>2020-12-01T10:50:49Z</time>
      </trkpt>
      <trkpt lat="49.4025" lon="1.12615">
        <ele>63.580002</ele>
        <time>2020-12-01T10:50:52Z</time>
      </trkpt>
      <trkpt lat="49.40209" lon="1.12618">
        <ele>60.220001</ele>
        <time>2020-12-01T10:50:56Z</time>
      </trkpt>
      <trkpt lat="49.40191" lon="1.12619">
        <ele>56.369999</ele>
        <time>2020-12-01T10:50:58Z</time>
      </trkpt>
      <trkpt lat="49.40168" lon="1.12616">
        <ele>52.049999</ele>
        <time>2020-12-01T10:51:01Z</time>
      </trkpt>
      <trkpt lat="49.40149" lon="1.12615">
        <ele>48.68</ele>
        <time>2020-12-01T10:51:04Z</time>
      </trkpt>
      <trkpt lat="49.40143" lon="1.12614">
        <ele>48.68</ele>
        <time>2020-12-01T10:51:05Z</time>
      </trkpt>
      <trkpt lat="49.4013" lon="1.12617">
        <ele>45.32</ele>
        <time>2020-12-01T10:51:07Z</time>
      </trkpt>
      <trkpt lat="49.40124" lon="1.12618">
        <ele>44.360001</ele>
        <time>2020-12-01T10:51:08Z</time>
      </trkpt>
      <trkpt lat="49.40118" lon="1.1262">
        <ele>42.919998</ele>
        <time>2020-12-01T10:51:09Z</time>
      </trkpt>
      <trkpt lat="49.40111" lon="1.1262">
        <ele>40.029999</ele>
        <time>2020-12-01T10:51:10Z</time>
      </trkpt>
      <trkpt lat="49.40104" lon="1.1262">
        <ele>40.029999</ele>
        <time>2020-12-01T10:51:11Z</time>
      </trkpt>
      <trkpt lat="49.40091" lon="1.1262">
        <ele>37.630001</ele>
        <time>2020-12-01T10:51:13Z</time>
      </trkpt>
      <trkpt lat="49.40075" lon="1.12613">
        <ele>34.740002</ele>
        <time>2020-12-01T10:51:16Z</time>
      </trkpt>
      <trkpt lat="49.40067" lon="1.12604">
        <ele>31.379999</ele>
        <time>2020-12-01T10:51:18Z</time>
      </trkpt>
      <trkpt lat="49.4005" lon="1.12594">
        <ele>27.530001</ele>
        <time>2020-12-01T10:51:21Z</time>
      </trkpt>
      <trkpt lat="49.40045" lon="1.12593">
        <ele>26.57</ele>
        <time>2020-12-01T10:51:22Z</time>
      </trkpt>
      <trkpt lat="49.40041" lon="1.12593">
        <ele>25.129999</ele>
        <time>2020-12-01T10:51:23Z</time>
      </trkpt>
      <trkpt lat="49.40037" lon="1.12596">
        <ele>23.690001</ele>
        <time>2020-12-01T10:51:24Z</time>
      </trkpt>
      <trkpt lat="49.40034" lon="1.126">
        <ele>22.73</ele>
        <time>2020-12-01T10:51:25Z</time>
      </trkpt>
      <trkpt lat="49.40033" lon="1.12603">
        <ele>21.77</ele>
        <time>2020-12-01T10:51:26Z</time>
      </trkpt>
      <trkpt lat="49.40031" lon="1.12607">
        <ele>20.809999</ele>
        <time>2020-12-01T10:51:27Z</time>
      </trkpt>
      <trkpt lat="49.4003" lon="1.12609">
        <ele>20.809999</ele>
        <time>2020-12-01T10:51:28Z</time>
      </trkpt>
      <trkpt lat="49.4003" lon="1.12612">
        <ele>19.84</ele>
        <time>2020-12-01T10:51:41Z</time>
      </trkpt>
      <trkpt lat="49.40034" lon="1.12606">
        <ele>19.84</ele>
        <time>2020-12-01T10:52:05Z</time>
      </trkpt>
      <trkpt lat="49.40032" lon="1.12604">
        <ele>19.84</ele>
        <time>2020-12-01T10:52:18Z</time>
      </trkpt>
      <trkpt lat="49.40031" lon="1.12601">
        <ele>19.84</ele>
        <time>2020-12-01T10:52:19Z</time>
      </trkpt>
      <trkpt lat="49.40029" lon="1.12597">
        <ele>18.879999</ele>
        <time>2020-12-01T10:52:20Z</time>
      </trkpt>
      <trkpt lat="49.40025" lon="1.12592">
        <ele>18.879999</ele>
        <time>2020-12-01T10:52:21Z</time>
      </trkpt>
      <trkpt lat="49.40021" lon="1.12588">
        <ele>17.440001</ele>
        <time>2020-12-01T10:52:22Z</time>
      </trkpt>
      <trkpt lat="49.40016" lon="1.12584">
        <ele>16</ele>
        <time>2020-12-01T10:52:23Z</time>
      </trkpt>
      <trkpt lat="49.40012" lon="1.12583">
        <ele>15.04</ele>
        <time>2020-12-01T10:52:24Z</time>
      </trkpt>
      <trkpt lat="49.40008" lon="1.12585">
        <ele>15.04</ele>
        <time>2020-12-01T10:52:25Z</time>
      </trkpt>
      <trkpt lat="49.40004" lon="1.1259">
        <ele>13.6</ele>
        <time>2020-12-01T10:52:26Z</time>
      </trkpt>
      <trkpt lat="49.40001" lon="1.12595">
        <ele>13.6</ele>
        <time>2020-12-01T10:52:27Z</time>
      </trkpt>
      <trkpt lat="49.39999" lon="1.126">
        <ele>14.08</ele>
        <time>2020-12-01T10:52:28Z</time>
      </trkpt>
      <trkpt lat="49.39997" lon="1.12606">
        <ele>14.08</ele>
        <time>2020-12-01T10:52:29Z</time>
      </trkpt>
      <trkpt lat="49.39995" lon="1.12611">
        <ele>14.08</ele>
        <time>2020-12-01T10:52:30Z</time>
      </trkpt>
      <trkpt lat="49.39992" lon="1.12616">
        <ele>14.08</ele>
        <time>2020-12-01T10:52:31Z</time>
      </trkpt>
      <trkpt lat="49.39989" lon="1.12618">
        <ele>14.08</ele>
        <time>2020-12-01T10:52:32Z</time>
      </trkpt>
      <trkpt lat="49.39987" lon="1.12621">
        <ele>14.08</ele>
        <time>2020-12-01T10:52:33Z</time>
      </trkpt>
      <trkpt lat="49.39962" lon="1.12641">
        <ele>15.52</ele>
        <time>2020-12-01T10:52:40Z</time>
      </trkpt>
      <trkpt lat="49.39959" lon="1.12645">
        <ele>15.52</ele>
        <time>2020-12-01T10:52:41Z</time>
      </trkpt>
      <trkpt lat="49.39956" lon="1.1265">
        <ele>16</ele>
        <time>2020-12-01T10:52:42Z</time>
      </trkpt>
      <trkpt lat="49.39955" lon="1.12657">
        <ele>16.48</ele>
        <time>2020-12-01T10:52:43Z</time>
      </trkpt>
      <trkpt lat="49.39956" lon="1.12663">
        <ele>16.48</ele>
        <time>2020-12-01T10:52:44Z</time>
      </trkpt>
      <trkpt lat="49.39957" lon="1.12669">
        <ele>16.959999</ele>
        <time>2020-12-01T10:52:45Z</time>
      </trkpt>
      <trkpt lat="49.39958" lon="1.12675">
        <ele>17.440001</ele>
        <time>2020-12-01T10:52:46Z</time>
      </trkpt>
      <trkpt lat="49.39983" lon="1.12725">
        <ele>20.809999</ele>
        <time>2020-12-01T10:52:57Z</time>
      </trkpt>
      <trkpt lat="49.40004" lon="1.12759">
        <ele>24.17</ele>
        <time>2020-12-01T10:53:06Z</time>
      </trkpt>
      <trkpt lat="49.40012" lon="1.12788">
        <ele>27.530001</ele>
        <time>2020-12-01T10:53:15Z</time>
      </trkpt>
      <trkpt lat="49.40011" lon="1.12802">
        <ele>29.459999</ele>
        <time>2020-12-01T10:53:20Z</time>
      </trkpt>
      <trkpt lat="49.40009" lon="1.12815">
        <ele>31.860001</ele>
        <time>2020-12-01T10:53:25Z</time>
      </trkpt>
      <trkpt lat="49.40011" lon="1.12827">
        <ele>32.82</ele>
        <time>2020-12-01T10:53:29Z</time>
      </trkpt>
      <trkpt lat="49.40013" lon="1.12855">
        <ele>36.189999</ele>
        <time>2020-12-01T10:53:38Z</time>
      </trkpt>
      <trkpt lat="49.40014" lon="1.12881">
        <ele>40.029999</ele>
        <time>2020-12-01T10:53:47Z</time>
      </trkpt>
      <trkpt lat="49.40017" lon="1.12901">
        <ele>42.439999</ele>
        <time>2020-12-01T10:53:54Z</time>
      </trkpt>
      <trkpt lat="49.4002" lon="1.12933">
        <ele>45.32</ele>
        <time>2020-12-01T10:54:05Z</time>
      </trkpt>
      <trkpt lat="49.40022" lon="1.12945">
        <ele>47.720001</ele>
        <time>2020-12-01T10:54:14Z</time>
      </trkpt>
      <trkpt lat="49.40021" lon="1.12943">
        <ele>48.200001</ele>
        <time>2020-12-01T10:54:15Z</time>
      </trkpt>
      <trkpt lat="49.40021" lon="1.1294">
        <ele>47.720001</ele>
        <time>2020-12-01T10:54:16Z</time>
      </trkpt>
      <trkpt lat="49.40022" lon="1.12937">
        <ele>46.279999</ele>
        <time>2020-12-01T10:54:17Z</time>
      </trkpt>
      <trkpt lat="49.40022" lon="1.12934">
        <ele>46.279999</ele>
        <time>2020-12-01T10:54:18Z</time>
      </trkpt>
      <trkpt lat="49.40021" lon="1.1293">
        <ele>45.32</ele>
        <time>2020-12-01T10:54:19Z</time>
      </trkpt>
      <trkpt lat="49.40021" lon="1.12926">
        <ele>44.360001</ele>
        <time>2020-12-01T10:54:20Z</time>
      </trkpt>
      <trkpt lat="49.40021" lon="1.12915">
        <ele>43.400002</ele>
        <time>2020-12-01T10:54:22Z</time>
      </trkpt>
      <trkpt lat="49.4002" lon="1.12909">
        <ele>42.919998</ele>
        <time>2020-12-01T10:54:24Z</time>
      </trkpt>
      <trkpt lat="49.40017" lon="1.12911">
        <ele>42.919998</ele>
        <time>2020-12-01T10:54:27Z</time>
      </trkpt>
      <trkpt lat="49.40018" lon="1.12914">
        <ele>42.919998</ele>
        <time>2020-12-01T10:54:28Z</time>
      </trkpt>
      <trkpt lat="49.40018" lon="1.12917">
        <ele>42.919998</ele>
        <time>2020-12-01T10:54:29Z</time>
      </trkpt>
      <trkpt lat="49.40021" lon="1.12939">
        <ele>46.759998</ele>
        <time>2020-12-01T10:54:35Z</time>
      </trkpt>
      <trkpt lat="49.40022" lon="1.12962">
        <ele>49.650002</ele>
        <time>2020-12-01T10:54:43Z</time>
      </trkpt>
      <trkpt lat="49.40021" lon="1.12998">
        <ele>53.490002</ele>
        <time>2020-12-01T10:54:57Z</time>
      </trkpt>
      <trkpt lat="49.40021" lon="1.13037">
        <ele>56.860001</ele>
        <time>2020-12-01T10:55:08Z</time>
      </trkpt>
      <trkpt lat="49.40017" lon="1.13083">
        <ele>59.740002</ele>
        <time>2020-12-01T10:55:22Z</time>
      </trkpt>
      <trkpt lat="49.40011" lon="1.1315">
        <ele>62.619999</ele>
        <time>2020-12-01T10:55:38Z</time>
      </trkpt>
      <trkpt lat="49.40008" lon="1.13181">
        <ele>64.07</ele>
        <time>2020-12-01T10:55:47Z</time>
      </trkpt>
      <trkpt lat="49.40007" lon="1.13184">
        <ele>64.07</ele>
        <time>2020-12-01T10:55:48Z</time>
      </trkpt>
      <trkpt lat="49.40006" lon="1.13187">
        <ele>65.989998</ele>
        <time>2020-12-01T10:55:49Z</time>
      </trkpt>
      <trkpt lat="49.40004" lon="1.13189">
        <ele>66.470001</ele>
        <time>2020-12-01T10:55:51Z</time>
      </trkpt>
      <trkpt lat="49.40003" lon="1.13189">
        <ele>66.949997</ele>
        <time>2020-12-01T10:55:53Z</time>
      </trkpt>
      <trkpt lat="49.40001" lon="1.13189">
        <ele>66.949997</ele>
        <time>2020-12-01T10:55:54Z</time>
      </trkpt>
      <trkpt lat="49.39999" lon="1.13189">
        <ele>66.949997</ele>
        <time>2020-12-01T10:55:55Z</time>
      </trkpt>
      <trkpt lat="49.39997" lon="1.13189">
        <ele>67.43</ele>
        <time>2020-12-01T10:55:56Z</time>
      </trkpt>
      <trkpt lat="49.39996" lon="1.13189">
        <ele>67.43</ele>
        <time>2020-12-01T10:55:57Z</time>
      </trkpt>
      <trkpt lat="49.39988" lon="1.13193">
        <ele>68.870003</ele>
        <time>2020-12-01T10:56:01Z</time>
      </trkpt>
      <trkpt lat="49.3998" lon="1.132">
        <ele>70.309998</ele>
        <time>2020-12-01T10:56:06Z</time>
      </trkpt>
      <trkpt lat="49.39979" lon="1.13201">
        <ele>70.790001</ele>
        <time>2020-12-01T10:56:07Z</time>
      </trkpt>
      <trkpt lat="49.39977" lon="1.13202">
        <ele>70.790001</ele>
        <time>2020-12-01T10:56:08Z</time>
      </trkpt>
      <trkpt lat="49.39976" lon="1.13202">
        <ele>70.790001</ele>
        <time>2020-12-01T10:56:09Z</time>
      </trkpt>
      <trkpt lat="49.39975" lon="1.13203">
        <ele>71.269997</ele>
        <time>2020-12-01T10:56:10Z</time>
      </trkpt>
      <trkpt lat="49.39965" lon="1.13215">
        <ele>73.68</ele>
        <time>2020-12-01T10:56:22Z</time>
      </trkpt>
      <trkpt lat="49.39953" lon="1.13223">
        <ele>76.559998</ele>
        <time>2020-12-01T10:56:36Z</time>
      </trkpt>
      <trkpt lat="49.39946" lon="1.13229">
        <ele>76.559998</ele>
        <time>2020-12-01T10:56:39Z</time>
      </trkpt>
      <trkpt lat="49.39945" lon="1.13233">
        <ele>76.559998</ele>
        <time>2020-12-01T10:56:40Z</time>
      </trkpt>
      <trkpt lat="49.39925" lon="1.13272">
        <ele>77.040001</ele>
        <time>2020-12-01T10:56:50Z</time>
      </trkpt>
      <trkpt lat="49.39894" lon="1.13289">
        <ele>79.93</ele>
        <time>2020-12-01T10:57:02Z</time>
      </trkpt>
      <trkpt lat="49.39872" lon="1.13302">
        <ele>83.769997</ele>
        <time>2020-12-01T10:57:12Z</time>
      </trkpt>
      <trkpt lat="49.39856" lon="1.1331">
        <ele>86.660004</ele>
        <time>2020-12-01T10:57:21Z</time>
      </trkpt>
      <trkpt lat="49.39855" lon="1.13312">
        <ele>87.620003</ele>
        <time>2020-12-01T10:57:22Z</time>
      </trkpt>
      <trkpt lat="49.39843" lon="1.13325">
        <ele>90.5</ele>
        <time>2020-12-01T10:57:31Z</time>
      </trkpt>
      <trkpt lat="49.39833" lon="1.13333">
        <ele>94.349998</ele>
        <time>2020-12-01T10:57:38Z</time>
      </trkpt>
      <trkpt lat="49.39828" lon="1.13352">
        <ele>97.709999</ele>
        <time>2020-12-01T10:57:47Z</time>
      </trkpt>
      <trkpt lat="49.39828" lon="1.13367">
        <ele>99.629997</ele>
        <time>2020-12-01T10:57:53Z</time>
      </trkpt>
      <trkpt lat="49.39824" lon="1.13388">
        <ele>102.519997</ele>
        <time>2020-12-01T10:58:03Z</time>
      </trkpt>
      <trkpt lat="49.39824" lon="1.1339">
        <ele>103</ele>
        <time>2020-12-01T10:58:04Z</time>
      </trkpt>
      <trkpt lat="49.39822" lon="1.13407">
        <ele>105.879997</ele>
        <time>2020-12-01T10:58:12Z</time>
      </trkpt>
      <trkpt lat="49.39801" lon="1.13429">
        <ele>109.25</ele>
        <time>2020-12-01T10:58:26Z</time>
      </trkpt>
      <trkpt lat="49.39796" lon="1.13432">
        <ele>110.690002</ele>
        <time>2020-12-01T10:58:29Z</time>
      </trkpt>
      <trkpt lat="49.39789" lon="1.13441">
        <ele>112.610001</ele>
        <time>2020-12-01T10:58:34Z</time>
      </trkpt>
      <trkpt lat="49.39788" lon="1.13442">
        <ele>112.610001</ele>
        <time>2020-12-01T10:58:35Z</time>
      </trkpt>
      <trkpt lat="49.39783" lon="1.13443">
        <ele>114.529999</ele>
        <time>2020-12-01T10:58:38Z</time>
      </trkpt>
      <trkpt lat="49.39769" lon="1.13444">
        <ele>117.419998</ele>
        <time>2020-12-01T10:58:46Z</time>
      </trkpt>
      <trkpt lat="49.39767" lon="1.13444">
        <ele>117.419998</ele>
        <time>2020-12-01T10:58:47Z</time>
      </trkpt>
      <trkpt lat="49.39755" lon="1.13443">
        <ele>120.300003</ele>
        <time>2020-12-01T10:58:54Z</time>
      </trkpt>
      <trkpt lat="49.39739" lon="1.13443">
        <ele>123.190002</ele>
        <time>2020-12-01T10:59:03Z</time>
      </trkpt>
      <trkpt lat="49.39716" lon="1.13462">
        <ele>126.550003</ele>
        <time>2020-12-01T10:59:16Z</time>
      </trkpt>
      <trkpt lat="49.39678" lon="1.13491">
        <ele>128.470001</ele>
        <time>2020-12-01T10:59:31Z</time>
      </trkpt>
      <trkpt lat="49.39636" lon="1.13539">
        <ele>132.320007</ele>
        <time>2020-12-01T10:59:47Z</time>
      </trkpt>
      <trkpt lat="49.39585" lon="1.13612">
        <ele>133.279999</ele>
        <time>2020-12-01T11:00:01Z</time>
      </trkpt>
      <trkpt lat="49.39508" lon="1.13719">
        <ele>136.639999</ele>
        <time>2020-12-01T11:00:19Z</time>
      </trkpt>
      <trkpt lat="49.3945" lon="1.13807">
        <ele>139.050003</ele>
        <time>2020-12-01T11:00:35Z</time>
      </trkpt>
      <trkpt lat="49.39421" lon="1.13879">
        <ele>142.889999</ele>
        <time>2020-12-01T11:00:46Z</time>
      </trkpt>
      <trkpt lat="49.39407" lon="1.13913">
        <ele>143.369995</ele>
        <time>2020-12-01T11:00:51Z</time>
      </trkpt>
      <trkpt lat="49.39403" lon="1.13918">
        <ele>143.369995</ele>
        <time>2020-12-01T11:00:52Z</time>
      </trkpt>
      <trkpt lat="49.39365" lon="1.13958">
        <ele>147.220001</ele>
        <time>2020-12-01T11:01:01Z</time>
      </trkpt>
      <trkpt lat="49.39334" lon="1.13995">
        <ele>148.179993</ele>
        <time>2020-12-01T11:01:09Z</time>
      </trkpt>
      <trkpt lat="49.39332" lon="1.14002">
        <ele>148.660004</ele>
        <time>2020-12-01T11:01:10Z</time>
      </trkpt>
      <trkpt lat="49.39296" lon="1.1412">
        <ele>148.660004</ele>
        <time>2020-12-01T11:01:26Z</time>
      </trkpt>
      <trkpt lat="49.39266" lon="1.14219">
        <ele>152.029999</ele>
        <time>2020-12-01T11:01:39Z</time>
      </trkpt>
      <trkpt lat="49.39228" lon="1.14355">
        <ele>152.509995</ele>
        <time>2020-12-01T11:01:57Z</time>
      </trkpt>
      <trkpt lat="49.39225" lon="1.14362">
        <ele>152.509995</ele>
        <time>2020-12-01T11:01:58Z</time>
      </trkpt>
      <trkpt lat="49.39222" lon="1.14369">
        <ele>152.509995</ele>
        <time>2020-12-01T11:01:59Z</time>
      </trkpt>
      <trkpt lat="49.39218" lon="1.14375">
        <ele>152.509995</ele>
        <time>2020-12-01T11:02:00Z</time>
      </trkpt>
      <trkpt lat="49.39169" lon="1.14453">
        <ele>152.509995</ele>
        <time>2020-12-01T11:02:13Z</time>
      </trkpt>
      <trkpt lat="49.39164" lon="1.14457">
        <ele>152.990005</ele>
        <time>2020-12-01T11:02:14Z</time>
      </trkpt>
      <trkpt lat="49.39157" lon="1.1446">
        <ele>152.990005</ele>
        <time>2020-12-01T11:02:15Z</time>
      </trkpt>
      <trkpt lat="49.3914" lon="1.14464">
        <ele>152.990005</ele>
        <time>2020-12-01T11:02:18Z</time>
      </trkpt>
      <trkpt lat="49.39055" lon="1.14469">
        <ele>152.029999</ele>
        <time>2020-12-01T11:02:30Z</time>
      </trkpt>
      <trkpt lat="49.39048" lon="1.14467">
        <ele>152.029999</ele>
        <time>2020-12-01T11:02:31Z</time>
      </trkpt>
      <trkpt lat="49.39042" lon="1.14462">
        <ele>152.029999</ele>
        <time>2020-12-01T11:02:32Z</time>
      </trkpt>
      <trkpt lat="49.39035" lon="1.14454">
        <ele>152.029999</ele>
        <time>2020-12-01T11:02:33Z</time>
      </trkpt>
      <trkpt lat="49.39031" lon="1.14446">
        <ele>152.029999</ele>
        <time>2020-12-01T11:02:34Z</time>
      </trkpt>
      <trkpt lat="49.39027" lon="1.14437">
        <ele>151.059998</ele>
        <time>2020-12-01T11:02:35Z</time>
      </trkpt>
      <trkpt lat="49.39023" lon="1.14427">
        <ele>151.539993</ele>
        <time>2020-12-01T11:02:36Z</time>
      </trkpt>
      <trkpt lat="49.38969" lon="1.14258">
        <ele>148.179993</ele>
        <time>2020-12-01T11:02:52Z</time>
      </trkpt>
      <trkpt lat="49.38951" lon="1.14202">
        <ele>149.139999</ele>
        <time>2020-12-01T11:02:57Z</time>
      </trkpt>
      <trkpt lat="49.38932" lon="1.14142">
        <ele>145.779999</ele>
        <time>2020-12-01T11:03:02Z</time>
      </trkpt>
      <trkpt lat="49.38896" lon="1.14015">
        <ele>146.740005</ele>
        <time>2020-12-01T11:03:12Z</time>
      </trkpt>
      <trkpt lat="49.38851" lon="1.13848">
        <ele>143.850006</ele>
        <time>2020-12-01T11:03:25Z</time>
      </trkpt>
      <trkpt lat="49.38832" lon="1.13783">
        <ele>142.410004</ele>
        <time>2020-12-01T11:03:32Z</time>
      </trkpt>
      <trkpt lat="49.38828" lon="1.13771">
        <ele>142.410004</ele>
        <time>2020-12-01T11:03:34Z</time>
      </trkpt>
      <trkpt lat="49.38817" lon="1.13737">
        <ele>140.009995</ele>
        <time>2020-12-01T11:03:39Z</time>
      </trkpt>
      <trkpt lat="49.38814" lon="1.1373">
        <ele>140.009995</ele>
        <time>2020-12-01T11:03:40Z</time>
      </trkpt>
      <trkpt lat="49.3881" lon="1.13723">
        <ele>139.050003</ele>
        <time>2020-12-01T11:03:41Z</time>
      </trkpt>
      <trkpt lat="49.38805" lon="1.13717">
        <ele>139.050003</ele>
        <time>2020-12-01T11:03:42Z</time>
      </trkpt>
      <trkpt lat="49.388" lon="1.13711">
        <ele>140.490005</ele>
        <time>2020-12-01T11:03:43Z</time>
      </trkpt>
      <trkpt lat="49.38793" lon="1.13707">
        <ele>140.490005</ele>
        <time>2020-12-01T11:03:44Z</time>
      </trkpt>
      <trkpt lat="49.38786" lon="1.13704">
        <ele>140.490005</ele>
        <time>2020-12-01T11:03:45Z</time>
      </trkpt>
      <trkpt lat="49.38778" lon="1.13701">
        <ele>137.610001</ele>
        <time>2020-12-01T11:03:46Z</time>
      </trkpt>
      <trkpt lat="49.38769" lon="1.13699">
        <ele>137.610001</ele>
        <time>2020-12-01T11:03:47Z</time>
      </trkpt>
      <trkpt lat="49.3876" lon="1.13697">
        <ele>137.610001</ele>
        <time>2020-12-01T11:03:48Z</time>
      </trkpt>
      <trkpt lat="49.38663" lon="1.13665">
        <ele>133.279999</ele>
        <time>2020-12-01T11:03:59Z</time>
      </trkpt>
      <trkpt lat="49.38657" lon="1.13663">
        <ele>133.759995</ele>
        <time>2020-12-01T11:04:00Z</time>
      </trkpt>
      <trkpt lat="49.38596" lon="1.13603">
        <ele>136.160004</ele>
        <time>2020-12-01T11:04:09Z</time>
      </trkpt>
      <trkpt lat="49.38535" lon="1.13543">
        <ele>139.050003</ele>
        <time>2020-12-01T11:04:20Z</time>
      </trkpt>
      <trkpt lat="49.38447" lon="1.13475">
        <ele>137.610001</ele>
        <time>2020-12-01T11:04:35Z</time>
      </trkpt>
      <trkpt lat="49.38374" lon="1.13405">
        <ele>137.130005</ele>
        <time>2020-12-01T11:04:48Z</time>
      </trkpt>
      <trkpt lat="49.38369" lon="1.13402">
        <ele>137.130005</ele>
        <time>2020-12-01T11:04:49Z</time>
      </trkpt>
      <trkpt lat="49.38363" lon="1.13401">
        <ele>137.130005</ele>
        <time>2020-12-01T11:04:50Z</time>
      </trkpt>
      <trkpt lat="49.38357" lon="1.134">
        <ele>137.130005</ele>
        <time>2020-12-01T11:04:51Z</time>
      </trkpt>
      <trkpt lat="49.38351" lon="1.13399">
        <ele>137.130005</ele>
        <time>2020-12-01T11:04:52Z</time>
      </trkpt>
      <trkpt lat="49.38245" lon="1.13393">
        <ele>136.160004</ele>
        <time>2020-12-01T11:05:05Z</time>
      </trkpt>
      <trkpt lat="49.3814" lon="1.13379">
        <ele>136.160004</ele>
        <time>2020-12-01T11:05:20Z</time>
      </trkpt>
      <trkpt lat="49.38135" lon="1.13384">
        <ele>136.160004</ele>
        <time>2020-12-01T11:05:21Z</time>
      </trkpt>
      <trkpt lat="49.38131" lon="1.1339">
        <ele>136.160004</ele>
        <time>2020-12-01T11:05:22Z</time>
      </trkpt>
      <trkpt lat="49.3813" lon="1.13397">
        <ele>137.130005</ele>
        <time>2020-12-01T11:05:23Z</time>
      </trkpt>
      <trkpt lat="49.3813" lon="1.13406">
        <ele>137.130005</ele>
        <time>2020-12-01T11:05:24Z</time>
      </trkpt>
      <trkpt lat="49.38132" lon="1.13415">
        <ele>137.130005</ele>
        <time>2020-12-01T11:05:25Z</time>
      </trkpt>
      <trkpt lat="49.38133" lon="1.13423">
        <ele>137.130005</ele>
        <time>2020-12-01T11:05:26Z</time>
      </trkpt>
      <trkpt lat="49.38136" lon="1.13436">
        <ele>138.570007</ele>
        <time>2020-12-01T11:05:28Z</time>
      </trkpt>
      <trkpt lat="49.38137" lon="1.13441">
        <ele>138.570007</ele>
        <time>2020-12-01T11:05:29Z</time>
      </trkpt>
      <trkpt lat="49.38138" lon="1.13446">
        <ele>138.570007</ele>
        <time>2020-12-01T11:05:30Z</time>
      </trkpt>
      <trkpt lat="49.38138" lon="1.13451">
        <ele>138.570007</ele>
        <time>2020-12-01T11:05:31Z</time>
      </trkpt>
      <trkpt lat="49.38138" lon="1.13455">
        <ele>138.570007</ele>
        <time>2020-12-01T11:05:32Z</time>
      </trkpt>
      <trkpt lat="49.38138" lon="1.13458">
        <ele>138.570007</ele>
        <time>2020-12-01T11:05:33Z</time>
      </trkpt>
      <trkpt lat="49.38137" lon="1.1346">
        <ele>138.570007</ele>
        <time>2020-12-01T11:05:34Z</time>
      </trkpt>
      <trkpt lat="49.38139" lon="1.13458">
        <ele>137.610001</ele>
        <time>2020-12-01T11:05:43Z</time>
      </trkpt>
      <trkpt lat="49.38139" lon="1.1346">
        <ele>139.050003</ele>
        <time>2020-12-01T11:05:51Z</time>
      </trkpt>
      <trkpt lat="49.38138" lon="1.13463">
        <ele>139.050003</ele>
        <time>2020-12-01T11:05:52Z</time>
      </trkpt>
      <trkpt lat="49.38137" lon="1.13466">
        <ele>139.050003</ele>
        <time>2020-12-01T11:05:53Z</time>
      </trkpt>
      <trkpt lat="49.38135" lon="1.13471">
        <ele>137.130005</ele>
        <time>2020-12-01T11:05:54Z</time>
      </trkpt>
      <trkpt lat="49.38133" lon="1.13475">
        <ele>136.639999</ele>
        <time>2020-12-01T11:05:55Z</time>
      </trkpt>
      <trkpt lat="49.38133" lon="1.13479">
        <ele>136.639999</ele>
        <time>2020-12-01T11:05:56Z</time>
      </trkpt>
      <trkpt lat="49.38133" lon="1.13483">
        <ele>136.160004</ele>
        <time>2020-12-01T11:05:57Z</time>
      </trkpt>
      <trkpt lat="49.38134" lon="1.13487">
        <ele>136.160004</ele>
        <time>2020-12-01T11:05:58Z</time>
      </trkpt>
      <trkpt lat="49.38135" lon="1.13495">
        <ele>135.679993</ele>
        <time>2020-12-01T11:06:00Z</time>
      </trkpt>
      <trkpt lat="49.38134" lon="1.13498">
        <ele>135.679993</ele>
        <time>2020-12-01T11:06:01Z</time>
      </trkpt>
      <trkpt lat="49.38132" lon="1.13499">
        <ele>135.679993</ele>
        <time>2020-12-01T11:06:02Z</time>
      </trkpt>
      <trkpt lat="49.38126" lon="1.13497">
        <ele>135.199997</ele>
        <time>2020-12-01T11:06:04Z</time>
      </trkpt>
      <trkpt lat="49.38122" lon="1.13495">
        <ele>135.199997</ele>
        <time>2020-12-01T11:06:05Z</time>
      </trkpt>
      <trkpt lat="49.38079" lon="1.13461">
        <ele>135.679993</ele>
        <time>2020-12-01T11:06:17Z</time>
      </trkpt>
      <trkpt lat="49.38076" lon="1.13455">
        <ele>135.679993</ele>
        <time>2020-12-01T11:06:18Z</time>
      </trkpt>
      <trkpt lat="49.38062" lon="1.13435">
        <ele>136.160004</ele>
        <time>2020-12-01T11:06:23Z</time>
      </trkpt>
      <trkpt lat="49.3806" lon="1.13434">
        <ele>136.160004</ele>
        <time>2020-12-01T11:06:24Z</time>
      </trkpt>
      <trkpt lat="49.38058" lon="1.13434">
        <ele>135.199997</ele>
        <time>2020-12-01T11:06:25Z</time>
      </trkpt>
      <trkpt lat="49.38053" lon="1.13438">
        <ele>135.199997</ele>
        <time>2020-12-01T11:06:29Z</time>
      </trkpt>
      <trkpt lat="49.38054" lon="1.13442">
        <ele>135.199997</ele>
        <time>2020-12-01T11:06:32Z</time>
      </trkpt>
      <trkpt lat="49.38056" lon="1.13443">
        <ele>135.199997</ele>
        <time>2020-12-01T11:06:33Z</time>
      </trkpt>
      <trkpt lat="49.3806" lon="1.13448">
        <ele>135.199997</ele>
        <time>2020-12-01T11:06:34Z</time>
      </trkpt>
      <trkpt lat="49.38063" lon="1.13452">
        <ele>134.720001</ele>
        <time>2020-12-01T11:06:35Z</time>
      </trkpt>
      <trkpt lat="49.38065" lon="1.13456">
        <ele>134.720001</ele>
        <time>2020-12-01T11:06:36Z</time>
      </trkpt>
      <trkpt lat="49.38068" lon="1.1346">
        <ele>134.720001</ele>
        <time>2020-12-01T11:06:37Z</time>
      </trkpt>
      <trkpt lat="49.38071" lon="1.13464">
        <ele>134.240005</ele>
        <time>2020-12-01T11:06:38Z</time>
      </trkpt>
      <trkpt lat="49.38075" lon="1.1347">
        <ele>134.240005</ele>
        <time>2020-12-01T11:06:39Z</time>
      </trkpt>
      <trkpt lat="49.38078" lon="1.13476">
        <ele>134.240005</ele>
        <time>2020-12-01T11:06:40Z</time>
      </trkpt>
      <trkpt lat="49.38083" lon="1.13483">
        <ele>134.240005</ele>
        <time>2020-12-01T11:06:41Z</time>
      </trkpt>
      <trkpt lat="49.3809" lon="1.13489">
        <ele>134.240005</ele>
        <time>2020-12-01T11:06:42Z</time>
      </trkpt>
      <trkpt lat="49.3812" lon="1.13519">
        <ele>134.240005</ele>
        <time>2020-12-01T11:06:49Z</time>
      </trkpt>
      <trkpt lat="49.38114" lon="1.13532">
        <ele>133.279999</ele>
        <time>2020-12-01T11:06:52Z</time>
      </trkpt>
      <trkpt lat="49.38095" lon="1.13556">
        <ele>129.429993</ele>
        <time>2020-12-01T11:06:58Z</time>
      </trkpt>
      <trkpt lat="49.38086" lon="1.13562">
        <ele>129.429993</ele>
        <time>2020-12-01T11:07:02Z</time>
      </trkpt>
      <trkpt lat="49.38075" lon="1.13561">
        <ele>127.989998</ele>
        <time>2020-12-01T11:07:05Z</time>
      </trkpt>
      <trkpt lat="49.38068" lon="1.13555">
        <ele>128.470001</ele>
        <time>2020-12-01T11:07:07Z</time>
      </trkpt>
      <trkpt lat="49.38032" lon="1.13527">
        <ele>126.550003</ele>
        <time>2020-12-01T11:07:17Z</time>
      </trkpt>
      <trkpt lat="49.3803" lon="1.13528">
        <ele>125.589996</ele>
        <time>2020-12-01T11:07:18Z</time>
      </trkpt>
      <trkpt lat="49.38025" lon="1.1354">
        <ele>120.779999</ele>
        <time>2020-12-01T11:07:21Z</time>
      </trkpt>
      <trkpt lat="49.38024" lon="1.13545">
        <ele>120.300003</ele>
        <time>2020-12-01T11:07:22Z</time>
      </trkpt>
      <trkpt lat="49.3802" lon="1.1357">
        <ele>115.5</ele>
        <time>2020-12-01T11:07:25Z</time>
      </trkpt>
      <trkpt lat="49.38004" lon="1.13587">
        <ele>111.169998</ele>
        <time>2020-12-01T11:07:30Z</time>
      </trkpt>
      <trkpt lat="49.37995" lon="1.13586">
        <ele>113.57</ele>
        <time>2020-12-01T11:07:34Z</time>
      </trkpt>
      <trkpt lat="49.37982" lon="1.13561">
        <ele>115.980003</ele>
        <time>2020-12-01T11:07:40Z</time>
      </trkpt>
      <trkpt lat="49.37976" lon="1.13549">
        <ele>119.339996</ele>
        <time>2020-12-01T11:07:43Z</time>
      </trkpt>
      <trkpt lat="49.37975" lon="1.13544">
        <ele>119.339996</ele>
        <time>2020-12-01T11:07:44Z</time>
      </trkpt>
      <trkpt lat="49.37967" lon="1.13524">
        <ele>122.709999</ele>
        <time>2020-12-01T11:07:49Z</time>
      </trkpt>
      <trkpt lat="49.37964" lon="1.13495">
        <ele>126.07</ele>
        <time>2020-12-01T11:07:57Z</time>
      </trkpt>
      <trkpt lat="49.37967" lon="1.13477">
        <ele>127.510002</ele>
        <time>2020-12-01T11:08:02Z</time>
      </trkpt>
      <trkpt lat="49.37974" lon="1.13441">
        <ele>130.880005</ele>
        <time>2020-12-01T11:08:11Z</time>
      </trkpt>
      <trkpt lat="49.37982" lon="1.13418">
        <ele>132.800003</ele>
        <time>2020-12-01T11:08:17Z</time>
      </trkpt>
      <trkpt lat="49.38021" lon="1.13419">
        <ele>134.720001</ele>
        <time>2020-12-01T11:08:33Z</time>
      </trkpt>
      <trkpt lat="49.38048" lon="1.13427">
        <ele>135.199997</ele>
        <time>2020-12-01T11:08:43Z</time>
      </trkpt>
      <trkpt lat="49.3805" lon="1.13431">
        <ele>135.199997</ele>
        <time>2020-12-01T11:08:44Z</time>
      </trkpt>
      <trkpt lat="49.38072" lon="1.13464">
        <ele>135.199997</ele>
        <time>2020-12-01T11:08:56Z</time>
      </trkpt>
      <trkpt lat="49.38094" lon="1.13484">
        <ele>134.720001</ele>
        <time>2020-12-01T11:09:08Z</time>
      </trkpt>
      <trkpt lat="49.3812" lon="1.13509">
        <ele>134.240005</ele>
        <time>2020-12-01T11:09:19Z</time>
      </trkpt>
      <trkpt lat="49.3812" lon="1.13512">
        <ele>134.240005</ele>
        <time>2020-12-01T11:09:20Z</time>
      </trkpt>
      <trkpt lat="49.38112" lon="1.13529">
        <ele>134.240005</ele>
        <time>2020-12-01T11:09:24Z</time>
      </trkpt>
      <trkpt lat="49.38104" lon="1.13538">
        <ele>132.320007</ele>
        <time>2020-12-01T11:09:26Z</time>
      </trkpt>
      <trkpt lat="49.38083" lon="1.13556">
        <ele>129.919998</ele>
        <time>2020-12-01T11:09:35Z</time>
      </trkpt>
      <trkpt lat="49.38076" lon="1.1356">
        <ele>128.949997</ele>
        <time>2020-12-01T11:09:38Z</time>
      </trkpt>
      <trkpt lat="49.38038" lon="1.13528">
        <ele>129.429993</ele>
        <time>2020-12-01T11:09:48Z</time>
      </trkpt>
      <trkpt lat="49.3803" lon="1.13547">
        <ele>122.220001</ele>
        <time>2020-12-01T11:09:53Z</time>
      </trkpt>
      <trkpt lat="49.38026" lon="1.13575">
        <ele>116.940002</ele>
        <time>2020-12-01T11:09:57Z</time>
      </trkpt>
      <trkpt lat="49.38019" lon="1.13592">
        <ele>113.57</ele>
        <time>2020-12-01T11:10:00Z</time>
      </trkpt>
      <trkpt lat="49.3801" lon="1.13597">
        <ele>112.129997</ele>
        <time>2020-12-01T11:10:03Z</time>
      </trkpt>
      <trkpt lat="49.38003" lon="1.13596">
        <ele>114.050003</ele>
        <time>2020-12-01T11:10:06Z</time>
      </trkpt>
      <trkpt lat="49.37984" lon="1.13571">
        <ele>117.419998</ele>
        <time>2020-12-01T11:10:15Z</time>
      </trkpt>
      <trkpt lat="49.37977" lon="1.13551">
        <ele>120.779999</ele>
        <time>2020-12-01T11:10:20Z</time>
      </trkpt>
      <trkpt lat="49.37975" lon="1.13545">
        <ele>120.779999</ele>
        <time>2020-12-01T11:10:21Z</time>
      </trkpt>
      <trkpt lat="49.3797" lon="1.13521">
        <ele>123.669998</ele>
        <time>2020-12-01T11:10:26Z</time>
      </trkpt>
      <trkpt lat="49.37967" lon="1.13499">
        <ele>126.07</ele>
        <time>2020-12-01T11:10:30Z</time>
      </trkpt>
      <trkpt lat="49.3797" lon="1.1347">
        <ele>128.949997</ele>
        <time>2020-12-01T11:10:37Z</time>
      </trkpt>
      <trkpt lat="49.37977" lon="1.13432">
        <ele>132.800003</ele>
        <time>2020-12-01T11:10:48Z</time>
      </trkpt>
      <trkpt lat="49.37978" lon="1.13428">
        <ele>132.320007</ele>
        <time>2020-12-01T11:10:49Z</time>
      </trkpt>
      <trkpt lat="49.37976" lon="1.13422">
        <ele>132.320007</ele>
        <time>2020-12-01T11:10:51Z</time>
      </trkpt>
      <trkpt lat="49.37961" lon="1.13426">
        <ele>132.320007</ele>
        <time>2020-12-01T11:10:56Z</time>
      </trkpt>
      <trkpt lat="49.379" lon="1.1342">
        <ele>134.240005</ele>
        <time>2020-12-01T11:11:16Z</time>
      </trkpt>
      <trkpt lat="49.37896" lon="1.13418">
        <ele>133.279999</ele>
        <time>2020-12-01T11:11:20Z</time>
      </trkpt>
      <trkpt lat="49.37924" lon="1.13425">
        <ele>133.279999</ele>
        <time>2020-12-01T11:11:37Z</time>
      </trkpt>
      <trkpt lat="49.37923" lon="1.13428">
        <ele>133.279999</ele>
        <time>2020-12-01T11:11:39Z</time>
      </trkpt>
      <trkpt lat="49.37917" lon="1.13445">
        <ele>128.949997</ele>
        <time>2020-12-01T11:11:44Z</time>
      </trkpt>
      <trkpt lat="49.37917" lon="1.13454">
        <ele>128.949997</ele>
        <time>2020-12-01T11:11:45Z</time>
      </trkpt>
      <trkpt lat="49.37882" lon="1.13483">
        <ele>125.589996</ele>
        <time>2020-12-01T11:11:55Z</time>
      </trkpt>
      <trkpt lat="49.37854" lon="1.13507">
        <ele>128.949997</ele>
        <time>2020-12-01T11:12:05Z</time>
      </trkpt>
      <trkpt lat="49.37815" lon="1.13471">
        <ele>129.919998</ele>
        <time>2020-12-01T11:12:19Z</time>
      </trkpt>
      <trkpt lat="49.37801" lon="1.13469">
        <ele>126.07</ele>
        <time>2020-12-01T11:12:23Z</time>
      </trkpt>
      <trkpt lat="49.37776" lon="1.13462">
        <ele>124.150002</ele>
        <time>2020-12-01T11:12:30Z</time>
      </trkpt>
      <trkpt lat="49.37786" lon="1.13418">
        <ele>128.470001</ele>
        <time>2020-12-01T11:12:39Z</time>
      </trkpt>
      <trkpt lat="49.37788" lon="1.13412">
        <ele>128.470001</ele>
        <time>2020-12-01T11:12:40Z</time>
      </trkpt>
      <trkpt lat="49.37788" lon="1.13339">
        <ele>130.399994</ele>
        <time>2020-12-01T11:12:53Z</time>
      </trkpt>
      <trkpt lat="49.37774" lon="1.13309">
        <ele>130.399994</ele>
        <time>2020-12-01T11:12:59Z</time>
      </trkpt>
      <trkpt lat="49.37771" lon="1.13307">
        <ele>130.399994</ele>
        <time>2020-12-01T11:13:00Z</time>
      </trkpt>
      <trkpt lat="49.37767" lon="1.13306">
        <ele>131.360001</ele>
        <time>2020-12-01T11:13:01Z</time>
      </trkpt>
      <trkpt lat="49.37711" lon="1.13322">
        <ele>131.360001</ele>
        <time>2020-12-01T11:13:14Z</time>
      </trkpt>
      <trkpt lat="49.37684" lon="1.13337">
        <ele>129.919998</ele>
        <time>2020-12-01T11:13:21Z</time>
      </trkpt>
      <trkpt lat="49.37678" lon="1.13377">
        <ele>128.470001</ele>
        <time>2020-12-01T11:13:28Z</time>
      </trkpt>
      <trkpt lat="49.37678" lon="1.13517">
        <ele>125.589996</ele>
        <time>2020-12-01T11:13:45Z</time>
      </trkpt>
      <trkpt lat="49.37674" lon="1.13564">
        <ele>124.150002</ele>
        <time>2020-12-01T11:13:51Z</time>
      </trkpt>
      <trkpt lat="49.37675" lon="1.13614">
        <ele>120.779999</ele>
        <time>2020-12-01T11:14:00Z</time>
      </trkpt>
      <trkpt lat="49.37664" lon="1.13629">
        <ele>119.339996</ele>
        <time>2020-12-01T11:14:13Z</time>
      </trkpt>
      <trkpt lat="49.37665" lon="1.13634">
        <ele>119.339996</ele>
        <time>2020-12-01T11:14:19Z</time>
      </trkpt>
      <trkpt lat="49.37657" lon="1.13655">
        <ele>115.5</ele>
        <time>2020-12-01T11:14:24Z</time>
      </trkpt>
      <trkpt lat="49.37655" lon="1.13661">
        <ele>115.5</ele>
        <time>2020-12-01T11:14:25Z</time>
      </trkpt>
      <trkpt lat="49.37653" lon="1.13665">
        <ele>114.050003</ele>
        <time>2020-12-01T11:14:26Z</time>
      </trkpt>
      <trkpt lat="49.37649" lon="1.1367">
        <ele>112.610001</ele>
        <time>2020-12-01T11:14:28Z</time>
      </trkpt>
      <trkpt lat="49.37638" lon="1.13666">
        <ele>112.610001</ele>
        <time>2020-12-01T11:14:34Z</time>
      </trkpt>
      <trkpt lat="49.37617" lon="1.13664">
        <ele>108.769997</ele>
        <time>2020-12-01T11:14:40Z</time>
      </trkpt>
      <trkpt lat="49.37602" lon="1.13669">
        <ele>105.400002</ele>
        <time>2020-12-01T11:14:43Z</time>
      </trkpt>
      <trkpt lat="49.37587" lon="1.13674">
        <ele>102.040001</ele>
        <time>2020-12-01T11:14:47Z</time>
      </trkpt>
      <trkpt lat="49.37584" lon="1.13674">
        <ele>101.080002</ele>
        <time>2020-12-01T11:14:58Z</time>
      </trkpt>
      <trkpt lat="49.37578" lon="1.13672">
        <ele>99.150002</ele>
        <time>2020-12-01T11:15:02Z</time>
      </trkpt>
      <trkpt lat="49.37577" lon="1.13671">
        <ele>98.190002</ele>
        <time>2020-12-01T11:15:14Z</time>
      </trkpt>
      <trkpt lat="49.37577" lon="1.13678">
        <ele>99.150002</ele>
        <time>2020-12-01T11:15:50Z</time>
      </trkpt>
      <trkpt lat="49.3757" lon="1.13676">
        <ele>99.150002</ele>
        <time>2020-12-01T11:16:14Z</time>
      </trkpt>
      <trkpt lat="49.37573" lon="1.13675">
        <ele>98.669998</ele>
        <time>2020-12-01T11:16:32Z</time>
      </trkpt>
      <trkpt lat="49.37583" lon="1.13688">
        <ele>101.559998</ele>
        <time>2020-12-01T11:16:52Z</time>
      </trkpt>
      <trkpt lat="49.37592" lon="1.13687">
        <ele>104.440002</ele>
        <time>2020-12-01T11:17:02Z</time>
      </trkpt>
      <trkpt lat="49.37598" lon="1.13688">
        <ele>106.360001</ele>
        <time>2020-12-01T11:17:06Z</time>
      </trkpt>
      <trkpt lat="49.37611" lon="1.13686">
        <ele>110.209999</ele>
        <time>2020-12-01T11:17:15Z</time>
      </trkpt>
      <trkpt lat="49.37636" lon="1.13687">
        <ele>112.610001</ele>
        <time>2020-12-01T11:17:32Z</time>
      </trkpt>
      <trkpt lat="49.3764" lon="1.13696">
        <ele>107.809998</ele>
        <time>2020-12-01T11:17:37Z</time>
      </trkpt>
      <trkpt lat="49.37639" lon="1.13698">
        <ele>106.360001</ele>
        <time>2020-12-01T11:17:39Z</time>
      </trkpt>
      <trkpt lat="49.37638" lon="1.13695">
        <ele>106.360001</ele>
        <time>2020-12-01T11:17:58Z</time>
      </trkpt>
      <trkpt lat="49.37634" lon="1.13701">
        <ele>105.879997</ele>
        <time>2020-12-01T11:18:23Z</time>
      </trkpt>
      <trkpt lat="49.37638" lon="1.13701">
        <ele>105.879997</ele>
        <time>2020-12-01T11:18:44Z</time>
      </trkpt>
      <trkpt lat="49.3764" lon="1.13701">
        <ele>105.879997</ele>
        <time>2020-12-01T11:19:03Z</time>
      </trkpt>
      <trkpt lat="49.37634" lon="1.13704">
        <ele>102.040001</ele>
        <time>2020-12-01T11:19:09Z</time>
      </trkpt>
      <trkpt lat="49.37633" lon="1.13707">
        <ele>100.599998</ele>
        <time>2020-12-01T11:19:10Z</time>
      </trkpt>
      <trkpt lat="49.37629" lon="1.1371">
        <ele>98.190002</ele>
        <time>2020-12-01T11:19:13Z</time>
      </trkpt>
      <trkpt lat="49.37627" lon="1.13712">
        <ele>97.709999</ele>
        <time>2020-12-01T11:19:20Z</time>
      </trkpt>
      <trkpt lat="49.37624" lon="1.1372">
        <ele>93.389999</ele>
        <time>2020-12-01T11:19:23Z</time>
      </trkpt>
      <trkpt lat="49.3762" lon="1.13723">
        <ele>91.940002</ele>
        <time>2020-12-01T11:19:25Z</time>
      </trkpt>
      <trkpt lat="49.37613" lon="1.1373">
        <ele>89.059998</ele>
        <time>2020-12-01T11:19:42Z</time>
      </trkpt>
      <trkpt lat="49.37619" lon="1.13742">
        <ele>89.059998</ele>
        <time>2020-12-01T11:20:10Z</time>
      </trkpt>
      <trkpt lat="49.37621" lon="1.13746">
        <ele>92.419998</ele>
        <time>2020-12-01T11:20:21Z</time>
      </trkpt>
      <trkpt lat="49.37623" lon="1.13738">
        <ele>95.309998</ele>
        <time>2020-12-01T11:20:30Z</time>
      </trkpt>
      <trkpt lat="49.37629" lon="1.13723">
        <ele>98.190002</ele>
        <time>2020-12-01T11:20:47Z</time>
      </trkpt>
      <trkpt lat="49.3763" lon="1.13722">
        <ele>101.559998</ele>
        <time>2020-12-01T11:20:59Z</time>
      </trkpt>
      <trkpt lat="49.37631" lon="1.13716">
        <ele>105.400002</ele>
        <time>2020-12-01T11:21:12Z</time>
      </trkpt>
      <trkpt lat="49.37638" lon="1.13706">
        <ele>107.32</ele>
        <time>2020-12-01T11:21:20Z</time>
      </trkpt>
      <trkpt lat="49.37649" lon="1.13689">
        <ele>110.690002</ele>
        <time>2020-12-01T11:21:34Z</time>
      </trkpt>
      <trkpt lat="49.37645" lon="1.13669">
        <ele>111.650002</ele>
        <time>2020-12-01T11:21:52Z</time>
      </trkpt>
      <trkpt lat="49.3764" lon="1.13665">
        <ele>110.209999</ele>
        <time>2020-12-01T11:21:56Z</time>
      </trkpt>
      <trkpt lat="49.37625" lon="1.13664">
        <ele>106.839996</ele>
        <time>2020-12-01T11:22:03Z</time>
      </trkpt>
      <trkpt lat="49.37622" lon="1.13664">
        <ele>106.360001</ele>
        <time>2020-12-01T11:22:04Z</time>
      </trkpt>
      <trkpt lat="49.37611" lon="1.13667">
        <ele>102.519997</ele>
        <time>2020-12-01T11:22:07Z</time>
      </trkpt>
      <trkpt lat="49.376" lon="1.1367">
        <ele>100.110001</ele>
        <time>2020-12-01T11:22:10Z</time>
      </trkpt>
      <trkpt lat="49.37587" lon="1.13668">
        <ele>96.75</ele>
        <time>2020-12-01T11:22:15Z</time>
      </trkpt>
      <trkpt lat="49.37575" lon="1.13671">
        <ele>92.900002</ele>
        <time>2020-12-01T11:22:19Z</time>
      </trkpt>
      <trkpt lat="49.37572" lon="1.13676">
        <ele>90.980003</ele>
        <time>2020-12-01T11:22:21Z</time>
      </trkpt>
      <trkpt lat="49.37567" lon="1.13684">
        <ele>89.540001</ele>
        <time>2020-12-01T11:22:25Z</time>
      </trkpt>
      <trkpt lat="49.37564" lon="1.13687">
        <ele>88.099998</ele>
        <time>2020-12-01T11:22:27Z</time>
      </trkpt>
      <trkpt lat="49.37562" lon="1.13688">
        <ele>86.18</ele>
        <time>2020-12-01T11:22:28Z</time>
      </trkpt>
      <trkpt lat="49.37557" lon="1.13686">
        <ele>82.809998</ele>
        <time>2020-12-01T11:22:31Z</time>
      </trkpt>
      <trkpt lat="49.3755" lon="1.1368">
        <ele>78.970001</ele>
        <time>2020-12-01T11:22:35Z</time>
      </trkpt>
      <trkpt lat="49.37545" lon="1.13677">
        <ele>76.080002</ele>
        <time>2020-12-01T11:22:37Z</time>
      </trkpt>
      <trkpt lat="49.37538" lon="1.13674">
        <ele>71.760002</ele>
        <time>2020-12-01T11:22:39Z</time>
      </trkpt>
      <trkpt lat="49.37533" lon="1.1367">
        <ele>68.389999</ele>
        <time>2020-12-01T11:22:42Z</time>
      </trkpt>
      <trkpt lat="49.3753" lon="1.13667">
        <ele>65.989998</ele>
        <time>2020-12-01T11:22:44Z</time>
      </trkpt>
      <trkpt lat="49.37528" lon="1.13667">
        <ele>64.07</ele>
        <time>2020-12-01T11:22:45Z</time>
      </trkpt>
      <trkpt lat="49.37525" lon="1.13666">
        <ele>62.139999</ele>
        <time>2020-12-01T11:22:46Z</time>
      </trkpt>
      <trkpt lat="49.37512" lon="1.13674">
        <ele>56.860001</ele>
        <time>2020-12-01T11:22:50Z</time>
      </trkpt>
      <trkpt lat="49.37498" lon="1.13686">
        <ele>53.970001</ele>
        <time>2020-12-01T11:22:54Z</time>
      </trkpt>
      <trkpt lat="49.37488" lon="1.13693">
        <ele>50.610001</ele>
        <time>2020-12-01T11:22:57Z</time>
      </trkpt>
      <trkpt lat="49.37482" lon="1.13694">
        <ele>49.16</ele>
        <time>2020-12-01T11:22:59Z</time>
      </trkpt>
      <trkpt lat="49.3748" lon="1.13692">
        <ele>49.16</ele>
        <time>2020-12-01T11:23:00Z</time>
      </trkpt>
      <trkpt lat="49.37479" lon="1.13688">
        <ele>48.200001</ele>
        <time>2020-12-01T11:23:01Z</time>
      </trkpt>
      <trkpt lat="49.37471" lon="1.13671">
        <ele>52.049999</ele>
        <time>2020-12-01T11:23:08Z</time>
      </trkpt>
      <trkpt lat="49.37469" lon="1.13669">
        <ele>52.049999</ele>
        <time>2020-12-01T11:23:09Z</time>
      </trkpt>
      <trkpt lat="49.37465" lon="1.1366">
        <ele>55.41</ele>
        <time>2020-12-01T11:23:14Z</time>
      </trkpt>
      <trkpt lat="49.37463" lon="1.13658">
        <ele>55.41</ele>
        <time>2020-12-01T11:23:15Z</time>
      </trkpt>
      <trkpt lat="49.37461" lon="1.13652">
        <ele>56.860001</ele>
        <time>2020-12-01T11:23:18Z</time>
      </trkpt>
      <trkpt lat="49.37455" lon="1.13641">
        <ele>60.220001</ele>
        <time>2020-12-01T11:23:24Z</time>
      </trkpt>
      <trkpt lat="49.37447" lon="1.13621">
        <ele>63.099998</ele>
        <time>2020-12-01T11:23:33Z</time>
      </trkpt>
      <trkpt lat="49.37442" lon="1.13601">
        <ele>66.470001</ele>
        <time>2020-12-01T11:23:41Z</time>
      </trkpt>
      <trkpt lat="49.37438" lon="1.13586">
        <ele>69.349998</ele>
        <time>2020-12-01T11:23:50Z</time>
      </trkpt>
      <trkpt lat="49.37434" lon="1.13562">
        <ele>73.199997</ele>
        <time>2020-12-01T11:24:00Z</time>
      </trkpt>
      <trkpt lat="49.37429" lon="1.1354">
        <ele>76.559998</ele>
        <time>2020-12-01T11:24:10Z</time>
      </trkpt>
      <trkpt lat="49.37426" lon="1.13522">
        <ele>79.449997</ele>
        <time>2020-12-01T11:24:18Z</time>
      </trkpt>
      <trkpt lat="49.37422" lon="1.13502">
        <ele>82.809998</ele>
        <time>2020-12-01T11:24:28Z</time>
      </trkpt>
      <trkpt lat="49.3742" lon="1.13484">
        <ele>86.18</ele>
        <time>2020-12-01T11:24:37Z</time>
      </trkpt>
      <trkpt lat="49.37422" lon="1.13449">
        <ele>89.059998</ele>
        <time>2020-12-01T11:24:48Z</time>
      </trkpt>
      <trkpt lat="49.37399" lon="1.13405">
        <ele>90.5</ele>
        <time>2020-12-01T11:25:01Z</time>
      </trkpt>
      <trkpt lat="49.37382" lon="1.13331">
        <ele>92.900002</ele>
        <time>2020-12-01T11:25:14Z</time>
      </trkpt>
      <trkpt lat="49.3736" lon="1.13236">
        <ele>95.790001</ele>
        <time>2020-12-01T11:25:30Z</time>
      </trkpt>
      <trkpt lat="49.37346" lon="1.13142">
        <ele>99.150002</ele>
        <time>2020-12-01T11:25:45Z</time>
      </trkpt>
      <trkpt lat="49.37347" lon="1.13119">
        <ele>102.040001</ele>
        <time>2020-12-01T11:25:52Z</time>
      </trkpt>
      <trkpt lat="49.3735" lon="1.13101">
        <ele>104.919998</ele>
        <time>2020-12-01T11:25:58Z</time>
      </trkpt>
      <trkpt lat="49.3735" lon="1.13089">
        <ele>106.839996</ele>
        <time>2020-12-01T11:26:03Z</time>
      </trkpt>
      <trkpt lat="49.37337" lon="1.13033">
        <ele>108.290001</ele>
        <time>2020-12-01T11:26:14Z</time>
      </trkpt>
      <trkpt lat="49.37334" lon="1.13015">
        <ele>110.209999</ele>
        <time>2020-12-01T11:26:20Z</time>
      </trkpt>
      <trkpt lat="49.37335" lon="1.13002">
        <ele>113.57</ele>
        <time>2020-12-01T11:26:27Z</time>
      </trkpt>
      <trkpt lat="49.37335" lon="1.12998">
        <ele>114.529999</ele>
        <time>2020-12-01T11:26:29Z</time>
      </trkpt>
      <trkpt lat="49.37335" lon="1.12994">
        <ele>115.010002</ele>
        <time>2020-12-01T11:26:31Z</time>
      </trkpt>
      <trkpt lat="49.37333" lon="1.12991">
        <ele>115.010002</ele>
        <time>2020-12-01T11:26:32Z</time>
      </trkpt>
      <trkpt lat="49.37329" lon="1.12986">
        <ele>113.57</ele>
        <time>2020-12-01T11:26:34Z</time>
      </trkpt>
      <trkpt lat="49.3732" lon="1.12979">
        <ele>110.690002</ele>
        <time>2020-12-01T11:26:36Z</time>
      </trkpt>
      <trkpt lat="49.3731" lon="1.1297">
        <ele>111.169998</ele>
        <time>2020-12-01T11:26:39Z</time>
      </trkpt>
      <trkpt lat="49.37308" lon="1.12965">
        <ele>111.169998</ele>
        <time>2020-12-01T11:26:40Z</time>
      </trkpt>
      <trkpt lat="49.37288" lon="1.12931">
        <ele>109.730003</ele>
        <time>2020-12-01T11:26:47Z</time>
      </trkpt>
      <trkpt lat="49.37282" lon="1.12928">
        <ele>109.25</ele>
        <time>2020-12-01T11:26:48Z</time>
      </trkpt>
      <trkpt lat="49.37269" lon="1.12919">
        <ele>108.290001</ele>
        <time>2020-12-01T11:26:50Z</time>
      </trkpt>
      <trkpt lat="49.3722" lon="1.12877">
        <ele>105.879997</ele>
        <time>2020-12-01T11:26:58Z</time>
      </trkpt>
      <trkpt lat="49.37216" lon="1.12872">
        <ele>107.32</ele>
        <time>2020-12-01T11:26:59Z</time>
      </trkpt>
      <trkpt lat="49.37212" lon="1.12866">
        <ele>107.32</ele>
        <time>2020-12-01T11:27:00Z</time>
      </trkpt>
      <trkpt lat="49.37209" lon="1.12861">
        <ele>107.809998</ele>
        <time>2020-12-01T11:27:01Z</time>
      </trkpt>
      <trkpt lat="49.37207" lon="1.12856">
        <ele>108.290001</ele>
        <time>2020-12-01T11:27:02Z</time>
      </trkpt>
      <trkpt lat="49.37205" lon="1.12851">
        <ele>108.290001</ele>
        <time>2020-12-01T11:27:03Z</time>
      </trkpt>
      <trkpt lat="49.37203" lon="1.12847">
        <ele>108.290001</ele>
        <time>2020-12-01T11:27:04Z</time>
      </trkpt>
      <trkpt lat="49.37201" lon="1.12845">
        <ele>108.290001</ele>
        <time>2020-12-01T11:27:05Z</time>
      </trkpt>
      <trkpt lat="49.37199" lon="1.12845">
        <ele>108.769997</ele>
        <time>2020-12-01T11:27:06Z</time>
      </trkpt>
      <trkpt lat="49.37196" lon="1.12848">
        <ele>108.769997</ele>
        <time>2020-12-01T11:27:20Z</time>
      </trkpt>
      <trkpt lat="49.37194" lon="1.12853">
        <ele>107.809998</ele>
        <time>2020-12-01T11:27:43Z</time>
      </trkpt>
      <trkpt lat="49.37195" lon="1.12856">
        <ele>107.809998</ele>
        <time>2020-12-01T11:27:44Z</time>
      </trkpt>
      <trkpt lat="49.37196" lon="1.12859">
        <ele>107.809998</ele>
        <time>2020-12-01T11:27:45Z</time>
      </trkpt>
      <trkpt lat="49.37199" lon="1.12862">
        <ele>107.809998</ele>
        <time>2020-12-01T11:27:46Z</time>
      </trkpt>
      <trkpt lat="49.37202" lon="1.12865">
        <ele>109.25</ele>
        <time>2020-12-01T11:27:47Z</time>
      </trkpt>
      <trkpt lat="49.37205" lon="1.12868">
        <ele>109.25</ele>
        <time>2020-12-01T11:27:48Z</time>
      </trkpt>
      <trkpt lat="49.37217" lon="1.12881">
        <ele>106.839996</ele>
        <time>2020-12-01T11:27:51Z</time>
      </trkpt>
      <trkpt lat="49.37261" lon="1.1292">
        <ele>106.360001</ele>
        <time>2020-12-01T11:28:00Z</time>
      </trkpt>
      <trkpt lat="49.37279" lon="1.12928">
        <ele>108.290001</ele>
        <time>2020-12-01T11:28:04Z</time>
      </trkpt>
      <trkpt lat="49.37294" lon="1.12934">
        <ele>111.169998</ele>
        <time>2020-12-01T11:28:09Z</time>
      </trkpt>
      <trkpt lat="49.37314" lon="1.12943">
        <ele>114.050003</ele>
        <time>2020-12-01T11:28:17Z</time>
      </trkpt>
      <trkpt lat="49.37318" lon="1.12947">
        <ele>115.010002</ele>
        <time>2020-12-01T11:28:19Z</time>
      </trkpt>
      <trkpt lat="49.37342" lon="1.12978">
        <ele>117.419998</ele>
        <time>2020-12-01T11:28:32Z</time>
      </trkpt>
      <trkpt lat="49.37355" lon="1.12986">
        <ele>120.779999</ele>
        <time>2020-12-01T11:28:39Z</time>
      </trkpt>
      <trkpt lat="49.37365" lon="1.12991">
        <ele>123.669998</ele>
        <time>2020-12-01T11:28:45Z</time>
      </trkpt>
      <trkpt lat="49.37367" lon="1.12992">
        <ele>123.669998</ele>
        <time>2020-12-01T11:28:46Z</time>
      </trkpt>
      <trkpt lat="49.37384" lon="1.12998">
        <ele>127.029999</ele>
        <time>2020-12-01T11:28:56Z</time>
      </trkpt>
      <trkpt lat="49.37413" lon="1.13034">
        <ele>129.429993</ele>
        <time>2020-12-01T11:29:11Z</time>
      </trkpt>
      <trkpt lat="49.37428" lon="1.13084">
        <ele>127.989998</ele>
        <time>2020-12-01T11:29:23Z</time>
      </trkpt>
      <trkpt lat="49.37445" lon="1.13166">
        <ele>127.989998</ele>
        <time>2020-12-01T11:29:36Z</time>
      </trkpt>
      <trkpt lat="49.3745" lon="1.13194">
        <ele>127.989998</ele>
        <time>2020-12-01T11:29:40Z</time>
      </trkpt>
      <trkpt lat="49.37471" lon="1.13255">
        <ele>126.07</ele>
        <time>2020-12-01T11:29:49Z</time>
      </trkpt>
      <trkpt lat="49.37458" lon="1.13276">
        <ele>121.739998</ele>
        <time>2020-12-01T11:29:55Z</time>
      </trkpt>
      <trkpt lat="49.37455" lon="1.13278">
        <ele>121.739998</ele>
        <time>2020-12-01T11:29:56Z</time>
      </trkpt>
      <trkpt lat="49.37451" lon="1.13279">
        <ele>121.739998</ele>
        <time>2020-12-01T11:29:57Z</time>
      </trkpt>
      <trkpt lat="49.37442" lon="1.13284">
        <ele>118.379997</ele>
        <time>2020-12-01T11:30:00Z</time>
      </trkpt>
      <trkpt lat="49.37433" lon="1.1329">
        <ele>115.980003</ele>
        <time>2020-12-01T11:30:03Z</time>
      </trkpt>
      <trkpt lat="49.37429" lon="1.13299">
        <ele>113.089996</ele>
        <time>2020-12-01T11:30:06Z</time>
      </trkpt>
      <trkpt lat="49.37426" lon="1.13304">
        <ele>111.650002</ele>
        <time>2020-12-01T11:30:08Z</time>
      </trkpt>
      <trkpt lat="49.37415" lon="1.13311">
        <ele>106.360001</ele>
        <time>2020-12-01T11:30:12Z</time>
      </trkpt>
      <trkpt lat="49.37412" lon="1.13314">
        <ele>104.440002</ele>
        <time>2020-12-01T11:30:13Z</time>
      </trkpt>
      <trkpt lat="49.37407" lon="1.13322">
        <ele>103</ele>
        <time>2020-12-01T11:30:16Z</time>
      </trkpt>
      <trkpt lat="49.37404" lon="1.13328">
        <ele>99.150002</ele>
        <time>2020-12-01T11:30:18Z</time>
      </trkpt>
      <trkpt lat="49.37401" lon="1.13331">
        <ele>95.790001</ele>
        <time>2020-12-01T11:30:20Z</time>
      </trkpt>
      <trkpt lat="49.37393" lon="1.13339">
        <ele>92.419998</ele>
        <time>2020-12-01T11:30:23Z</time>
      </trkpt>
      <trkpt lat="49.37388" lon="1.13339">
        <ele>90.980003</ele>
        <time>2020-12-01T11:30:25Z</time>
      </trkpt>
      <trkpt lat="49.37377" lon="1.13327">
        <ele>92.419998</ele>
        <time>2020-12-01T11:30:29Z</time>
      </trkpt>
      <trkpt lat="49.37366" lon="1.13319">
        <ele>93.870003</ele>
        <time>2020-12-01T11:30:32Z</time>
      </trkpt>
      <trkpt lat="49.37355" lon="1.13271">
        <ele>95.309998</ele>
        <time>2020-12-01T11:30:39Z</time>
      </trkpt>
      <trkpt lat="49.37355" lon="1.13262">
        <ele>95.309998</ele>
        <time>2020-12-01T11:30:40Z</time>
      </trkpt>
      <trkpt lat="49.37354" lon="1.13254">
        <ele>95.309998</ele>
        <time>2020-12-01T11:30:41Z</time>
      </trkpt>
      <trkpt lat="49.37353" lon="1.13245">
        <ele>95.790001</ele>
        <time>2020-12-01T11:30:42Z</time>
      </trkpt>
      <trkpt lat="49.37352" lon="1.13236">
        <ele>95.790001</ele>
        <time>2020-12-01T11:30:43Z</time>
      </trkpt>
      <trkpt lat="49.37349" lon="1.13132">
        <ele>99.629997</ele>
        <time>2020-12-01T11:30:57Z</time>
      </trkpt>
      <trkpt lat="49.37351" lon="1.13107">
        <ele>102.519997</ele>
        <time>2020-12-01T11:31:04Z</time>
      </trkpt>
      <trkpt lat="49.37357" lon="1.13093">
        <ele>105.400002</ele>
        <time>2020-12-01T11:31:12Z</time>
      </trkpt>
      <trkpt lat="49.37346" lon="1.13046">
        <ele>107.809998</ele>
        <time>2020-12-01T11:31:27Z</time>
      </trkpt>
      <trkpt lat="49.37338" lon="1.13003">
        <ele>111.650002</ele>
        <time>2020-12-01T11:31:39Z</time>
      </trkpt>
      <trkpt lat="49.37341" lon="1.12991">
        <ele>115.010002</ele>
        <time>2020-12-01T11:31:46Z</time>
      </trkpt>
      <trkpt lat="49.37345" lon="1.12992">
        <ele>117.900002</ele>
        <time>2020-12-01T11:31:53Z</time>
      </trkpt>
      <trkpt lat="49.37355" lon="1.12997">
        <ele>121.260002</ele>
        <time>2020-12-01T11:32:04Z</time>
      </trkpt>
      <trkpt lat="49.37368" lon="1.13">
        <ele>124.629997</ele>
        <time>2020-12-01T11:32:13Z</time>
      </trkpt>
      <trkpt lat="49.37391" lon="1.13007">
        <ele>127.510002</ele>
        <time>2020-12-01T11:32:25Z</time>
      </trkpt>
      <trkpt lat="49.3743" lon="1.13014">
        <ele>129.919998</ele>
        <time>2020-12-01T11:32:40Z</time>
      </trkpt>
      <trkpt lat="49.37486" lon="1.13039">
        <ele>129.919998</ele>
        <time>2020-12-01T11:32:55Z</time>
      </trkpt>
      <trkpt lat="49.37535" lon="1.13107">
        <ele>129.919998</ele>
        <time>2020-12-01T11:33:10Z</time>
      </trkpt>
      <trkpt lat="49.37592" lon="1.13121">
        <ele>131.839996</ele>
        <time>2020-12-01T11:33:22Z</time>
      </trkpt>
      <trkpt lat="49.37676" lon="1.13118">
        <ele>133.759995</ele>
        <time>2020-12-01T11:33:39Z</time>
      </trkpt>
      <trkpt lat="49.37762" lon="1.13112">
        <ele>135.679993</ele>
        <time>2020-12-01T11:33:55Z</time>
      </trkpt>
      <trkpt lat="49.37777" lon="1.13115">
        <ele>135.679993</ele>
        <time>2020-12-01T11:33:58Z</time>
      </trkpt>
      <trkpt lat="49.37821" lon="1.13152">
        <ele>136.160004</ele>
        <time>2020-12-01T11:34:11Z</time>
      </trkpt>
      <trkpt lat="49.37835" lon="1.13165">
        <ele>132.320007</ele>
        <time>2020-12-01T11:34:16Z</time>
      </trkpt>
      <trkpt lat="49.37844" lon="1.13171">
        <ele>127.029999</ele>
        <time>2020-12-01T11:34:19Z</time>
      </trkpt>
      <trkpt lat="49.37852" lon="1.13177">
        <ele>123.190002</ele>
        <time>2020-12-01T11:34:21Z</time>
      </trkpt>
      <trkpt lat="49.37861" lon="1.13184">
        <ele>119.82</ele>
        <time>2020-12-01T11:34:23Z</time>
      </trkpt>
      <trkpt lat="49.3787" lon="1.13188">
        <ele>116.459999</ele>
        <time>2020-12-01T11:34:25Z</time>
      </trkpt>
      <trkpt lat="49.37874" lon="1.1319">
        <ele>115.5</ele>
        <time>2020-12-01T11:34:26Z</time>
      </trkpt>
      <trkpt lat="49.37879" lon="1.1321">
        <ele>117.900002</ele>
        <time>2020-12-01T11:34:33Z</time>
      </trkpt>
      <trkpt lat="49.37872" lon="1.13217">
        <ele>121.260002</ele>
        <time>2020-12-01T11:34:37Z</time>
      </trkpt>
      <trkpt lat="49.3786" lon="1.13225">
        <ele>123.669998</ele>
        <time>2020-12-01T11:34:42Z</time>
      </trkpt>
      <trkpt lat="49.37839" lon="1.13249">
        <ele>127.029999</ele>
        <time>2020-12-01T11:34:50Z</time>
      </trkpt>
      <trkpt lat="49.37833" lon="1.13306">
        <ele>128.949997</ele>
        <time>2020-12-01T11:35:04Z</time>
      </trkpt>
      <trkpt lat="49.37858" lon="1.13336">
        <ele>131.839996</ele>
        <time>2020-12-01T11:35:13Z</time>
      </trkpt>
      <trkpt lat="49.37897" lon="1.13337">
        <ele>134.240005</ele>
        <time>2020-12-01T11:35:27Z</time>
      </trkpt>
      <trkpt lat="49.37933" lon="1.13323">
        <ele>135.199997</ele>
        <time>2020-12-01T11:35:39Z</time>
      </trkpt>
      <trkpt lat="49.37978" lon="1.13279">
        <ele>135.679993</ele>
        <time>2020-12-01T11:35:52Z</time>
      </trkpt>
      <trkpt lat="49.38006" lon="1.13242">
        <ele>134.240005</ele>
        <time>2020-12-01T11:36:05Z</time>
      </trkpt>
      <trkpt lat="49.38012" lon="1.13235">
        <ele>132.800003</ele>
        <time>2020-12-01T11:36:07Z</time>
      </trkpt>
      <trkpt lat="49.38027" lon="1.1322">
        <ele>129.429993</ele>
        <time>2020-12-01T11:36:12Z</time>
      </trkpt>
      <trkpt lat="49.38029" lon="1.13213">
        <ele>129.429993</ele>
        <time>2020-12-01T11:36:13Z</time>
      </trkpt>
      <trkpt lat="49.38039" lon="1.13177">
        <ele>127.510002</ele>
        <time>2020-12-01T11:36:18Z</time>
      </trkpt>
      <trkpt lat="49.38044" lon="1.13133">
        <ele>127.029999</ele>
        <time>2020-12-01T11:36:27Z</time>
      </trkpt>
      <trkpt lat="49.38048" lon="1.13125">
        <ele>126.550003</ele>
        <time>2020-12-01T11:36:29Z</time>
      </trkpt>
      <trkpt lat="49.3805" lon="1.13116">
        <ele>123.669998</ele>
        <time>2020-12-01T11:36:31Z</time>
      </trkpt>
      <trkpt lat="49.38052" lon="1.13096">
        <ele>119.82</ele>
        <time>2020-12-01T11:36:35Z</time>
      </trkpt>
      <trkpt lat="49.3805" lon="1.13085">
        <ele>116.459999</ele>
        <time>2020-12-01T11:36:37Z</time>
      </trkpt>
      <trkpt lat="49.38048" lon="1.13069">
        <ele>113.089996</ele>
        <time>2020-12-01T11:36:40Z</time>
      </trkpt>
      <trkpt lat="49.3806" lon="1.12942">
        <ele>111.169998</ele>
        <time>2020-12-01T11:36:52Z</time>
      </trkpt>
      <trkpt lat="49.38061" lon="1.12917">
        <ele>108.290001</ele>
        <time>2020-12-01T11:36:56Z</time>
      </trkpt>
      <trkpt lat="49.38077" lon="1.129">
        <ele>106.839996</ele>
        <time>2020-12-01T11:37:03Z</time>
      </trkpt>
      <trkpt lat="49.38114" lon="1.12873">
        <ele>103.480003</ele>
        <time>2020-12-01T11:37:12Z</time>
      </trkpt>
      <trkpt lat="49.3812" lon="1.12869">
        <ele>102.519997</ele>
        <time>2020-12-01T11:37:13Z</time>
      </trkpt>
      <trkpt lat="49.38144" lon="1.12844">
        <ele>99.629997</ele>
        <time>2020-12-01T11:37:17Z</time>
      </trkpt>
      <trkpt lat="49.38173" lon="1.12814">
        <ele>101.559998</ele>
        <time>2020-12-01T11:37:22Z</time>
      </trkpt>
      <trkpt lat="49.382" lon="1.12794">
        <ele>98.190002</ele>
        <time>2020-12-01T11:37:27Z</time>
      </trkpt>
      <trkpt lat="49.3822" lon="1.12786">
        <ele>92.900002</ele>
        <time>2020-12-01T11:37:30Z</time>
      </trkpt>
      <trkpt lat="49.38226" lon="1.12785">
        <ele>91.459999</ele>
        <time>2020-12-01T11:37:31Z</time>
      </trkpt>
      <trkpt lat="49.38236" lon="1.12787">
        <ele>89.059998</ele>
        <time>2020-12-01T11:37:33Z</time>
      </trkpt>
      <trkpt lat="49.38255" lon="1.12799">
        <ele>83.290001</ele>
        <time>2020-12-01T11:37:37Z</time>
      </trkpt>
      <trkpt lat="49.38265" lon="1.12807">
        <ele>81.370003</ele>
        <time>2020-12-01T11:37:39Z</time>
      </trkpt>
      <trkpt lat="49.38272" lon="1.12817">
        <ele>80.889999</ele>
        <time>2020-12-01T11:37:41Z</time>
      </trkpt>
      <trkpt lat="49.38275" lon="1.12825">
        <ele>80.889999</ele>
        <time>2020-12-01T11:37:42Z</time>
      </trkpt>
      <trkpt lat="49.38215" lon="1.12899">
        <ele>80.889999</ele>
        <time>2020-12-01T11:37:43Z</time>
      </trkpt>
      <trkpt lat="49.38177" lon="1.12918">
        <ele>83.290001</ele>
        <time>2020-12-01T11:37:55Z</time>
      </trkpt>
      <trkpt lat="49.38177" lon="1.12924">
        <ele>83.769997</ele>
        <time>2020-12-01T11:37:57Z</time>
      </trkpt>
      <trkpt lat="49.38179" lon="1.12927">
        <ele>83.769997</ele>
        <time>2020-12-01T11:37:58Z</time>
      </trkpt>
      <trkpt lat="49.38185" lon="1.1294">
        <ele>82.330002</ele>
        <time>2020-12-01T11:38:00Z</time>
      </trkpt>
      <trkpt lat="49.38196" lon="1.12953">
        <ele>79.93</ele>
        <time>2020-12-01T11:38:04Z</time>
      </trkpt>
      <trkpt lat="49.3821" lon="1.12965">
        <ele>79.93</ele>
        <time>2020-12-01T11:38:11Z</time>
      </trkpt>
      <trkpt lat="49.38209" lon="1.12971">
        <ele>79.93</ele>
        <time>2020-12-01T11:38:12Z</time>
      </trkpt>
      <trkpt lat="49.38185" lon="1.13053">
        <ele>81.849998</ele>
        <time>2020-12-01T11:38:26Z</time>
      </trkpt>
      <trkpt lat="49.3819" lon="1.13086">
        <ele>83.290001</ele>
        <time>2020-12-01T11:38:34Z</time>
      </trkpt>
      <trkpt lat="49.38192" lon="1.13089">
        <ele>83.290001</ele>
        <time>2020-12-01T11:38:35Z</time>
      </trkpt>
      <trkpt lat="49.38194" lon="1.13092">
        <ele>83.290001</ele>
        <time>2020-12-01T11:38:36Z</time>
      </trkpt>
      <trkpt lat="49.38196" lon="1.13096">
        <ele>83.769997</ele>
        <time>2020-12-01T11:38:37Z</time>
      </trkpt>
      <trkpt lat="49.38197" lon="1.131">
        <ele>84.25</ele>
        <time>2020-12-01T11:38:38Z</time>
      </trkpt>
      <trkpt lat="49.38199" lon="1.13104">
        <ele>84.730003</ele>
        <time>2020-12-01T11:38:39Z</time>
      </trkpt>
      <trkpt lat="49.38209" lon="1.13136">
        <ele>87.139999</ele>
        <time>2020-12-01T11:38:46Z</time>
      </trkpt>
      <trkpt lat="49.38207" lon="1.13147">
        <ele>88.580002</ele>
        <time>2020-12-01T11:38:49Z</time>
      </trkpt>
      <trkpt lat="49.38206" lon="1.13166">
        <ele>91.940002</ele>
        <time>2020-12-01T11:38:56Z</time>
      </trkpt>
      <trkpt lat="49.38218" lon="1.13188">
        <ele>94.830002</ele>
        <time>2020-12-01T11:39:03Z</time>
      </trkpt>
      <trkpt lat="49.3824" lon="1.13201">
        <ele>98.669998</ele>
        <time>2020-12-01T11:39:14Z</time>
      </trkpt>
      <trkpt lat="49.38242" lon="1.13203">
        <ele>101.559998</ele>
        <time>2020-12-01T11:39:23Z</time>
      </trkpt>
      <trkpt lat="49.3825" lon="1.13227">
        <ele>105.400002</ele>
        <time>2020-12-01T11:39:36Z</time>
      </trkpt>
      <trkpt lat="49.38268" lon="1.13224">
        <ele>108.290001</ele>
        <time>2020-12-01T11:39:46Z</time>
      </trkpt>
      <trkpt lat="49.38289" lon="1.13203">
        <ele>111.650002</ele>
        <time>2020-12-01T11:39:58Z</time>
      </trkpt>
      <trkpt lat="49.38296" lon="1.13196">
        <ele>112.610001</ele>
        <time>2020-12-01T11:40:01Z</time>
      </trkpt>
      <trkpt lat="49.38308" lon="1.13175">
        <ele>113.57</ele>
        <time>2020-12-01T11:40:08Z</time>
      </trkpt>
      <trkpt lat="49.38337" lon="1.13136">
        <ele>116.459999</ele>
        <time>2020-12-01T11:40:24Z</time>
      </trkpt>
      <trkpt lat="49.38342" lon="1.13135">
        <ele>115.010002</ele>
        <time>2020-12-01T11:40:27Z</time>
      </trkpt>
      <trkpt lat="49.38338" lon="1.13136">
        <ele>114.529999</ele>
        <time>2020-12-01T11:40:33Z</time>
      </trkpt>
      <trkpt lat="49.38337" lon="1.13149">
        <ele>114.529999</ele>
        <time>2020-12-01T11:40:40Z</time>
      </trkpt>
      <trkpt lat="49.38333" lon="1.13157">
        <ele>116.459999</ele>
        <time>2020-12-01T11:40:44Z</time>
      </trkpt>
      <trkpt lat="49.38331" lon="1.13172">
        <ele>118.379997</ele>
        <time>2020-12-01T11:40:50Z</time>
      </trkpt>
      <trkpt lat="49.3833" lon="1.13178">
        <ele>119.82</ele>
        <time>2020-12-01T11:40:53Z</time>
      </trkpt>
      <trkpt lat="49.38331" lon="1.13185">
        <ele>120.779999</ele>
        <time>2020-12-01T11:40:55Z</time>
      </trkpt>
      <trkpt lat="49.38338" lon="1.13207">
        <ele>123.190002</ele>
        <time>2020-12-01T11:41:01Z</time>
      </trkpt>
      <trkpt lat="49.38356" lon="1.13266">
        <ele>125.110001</ele>
        <time>2020-12-01T11:41:14Z</time>
      </trkpt>
      <trkpt lat="49.38337" lon="1.13317">
        <ele>127.989998</ele>
        <time>2020-12-01T11:41:25Z</time>
      </trkpt>
      <trkpt lat="49.38333" lon="1.13346">
        <ele>131.360001</ele>
        <time>2020-12-01T11:41:31Z</time>
      </trkpt>
      <trkpt lat="49.3833" lon="1.1337">
        <ele>133.279999</ele>
        <time>2020-12-01T11:41:36Z</time>
      </trkpt>
      <trkpt lat="49.38333" lon="1.13381">
        <ele>133.279999</ele>
        <time>2020-12-01T11:41:40Z</time>
      </trkpt>
      <trkpt lat="49.38335" lon="1.13398">
        <ele>134.720001</ele>
        <time>2020-12-01T11:41:46Z</time>
      </trkpt>
      <trkpt lat="49.38337" lon="1.13401">
        <ele>134.720001</ele>
        <time>2020-12-01T11:41:47Z</time>
      </trkpt>
      <trkpt lat="49.3834" lon="1.13403">
        <ele>134.720001</ele>
        <time>2020-12-01T11:41:48Z</time>
      </trkpt>
      <trkpt lat="49.38343" lon="1.13404">
        <ele>134.720001</ele>
        <time>2020-12-01T11:41:49Z</time>
      </trkpt>
      <trkpt lat="49.38345" lon="1.13405">
        <ele>135.199997</ele>
        <time>2020-12-01T11:41:50Z</time>
      </trkpt>
      <trkpt lat="49.38348" lon="1.13405">
        <ele>135.199997</ele>
        <time>2020-12-01T11:41:51Z</time>
      </trkpt>
      <trkpt lat="49.38367" lon="1.13408">
        <ele>136.639999</ele>
        <time>2020-12-01T11:41:57Z</time>
      </trkpt>
      <trkpt lat="49.38369" lon="1.1341">
        <ele>136.160004</ele>
        <time>2020-12-01T11:41:58Z</time>
      </trkpt>
      <trkpt lat="49.38371" lon="1.13418">
        <ele>137.130005</ele>
        <time>2020-12-01T11:42:00Z</time>
      </trkpt>
      <trkpt lat="49.3837" lon="1.13422">
        <ele>137.130005</ele>
        <time>2020-12-01T11:42:01Z</time>
      </trkpt>
      <trkpt lat="49.38368" lon="1.13425">
        <ele>137.130005</ele>
        <time>2020-12-01T11:42:02Z</time>
      </trkpt>
      <trkpt lat="49.38365" lon="1.13429">
        <ele>137.130005</ele>
        <time>2020-12-01T11:42:03Z</time>
      </trkpt>
      <trkpt lat="49.38362" lon="1.13432">
        <ele>137.130005</ele>
        <time>2020-12-01T11:42:04Z</time>
      </trkpt>
      <trkpt lat="49.38328" lon="1.13465">
        <ele>140.009995</ele>
        <time>2020-12-01T11:42:15Z</time>
      </trkpt>
      <trkpt lat="49.38259" lon="1.13539">
        <ele>141.929993</ele>
        <time>2020-12-01T11:42:33Z</time>
      </trkpt>
      <trkpt lat="49.38229" lon="1.1357">
        <ele>140.009995</ele>
        <time>2020-12-01T11:42:39Z</time>
      </trkpt>
      <trkpt lat="49.38225" lon="1.13577">
        <ele>139.529999</ele>
        <time>2020-12-01T11:42:40Z</time>
      </trkpt>
      <trkpt lat="49.38221" lon="1.13585">
        <ele>139.529999</ele>
        <time>2020-12-01T11:42:41Z</time>
      </trkpt>
      <trkpt lat="49.3822" lon="1.13595">
        <ele>139.529999</ele>
        <time>2020-12-01T11:42:42Z</time>
      </trkpt>
      <trkpt lat="49.3822" lon="1.13606">
        <ele>139.529999</ele>
        <time>2020-12-01T11:42:43Z</time>
      </trkpt>
      <trkpt lat="49.38222" lon="1.13616">
        <ele>139.529999</ele>
        <time>2020-12-01T11:42:44Z</time>
      </trkpt>
      <trkpt lat="49.38224" lon="1.13627">
        <ele>139.050003</ele>
        <time>2020-12-01T11:42:45Z</time>
      </trkpt>
      <trkpt lat="49.38226" lon="1.13638">
        <ele>139.050003</ele>
        <time>2020-12-01T11:42:46Z</time>
      </trkpt>
      <trkpt lat="49.38277" lon="1.13759">
        <ele>140.490005</ele>
        <time>2020-12-01T11:42:59Z</time>
      </trkpt>
      <trkpt lat="49.38282" lon="1.13765">
        <ele>140.490005</ele>
        <time>2020-12-01T11:43:00Z</time>
      </trkpt>
      <trkpt lat="49.38354" lon="1.13836">
        <ele>143.850006</ele>
        <time>2020-12-01T11:43:14Z</time>
      </trkpt>
      <trkpt lat="49.38447" lon="1.13966">
        <ele>145.779999</ele>
        <time>2020-12-01T11:43:35Z</time>
      </trkpt>
      <trkpt lat="49.38489" lon="1.14033">
        <ele>146.740005</ele>
        <time>2020-12-01T11:43:44Z</time>
      </trkpt>
      <trkpt lat="49.38497" lon="1.14048">
        <ele>144.820007</ele>
        <time>2020-12-01T11:43:46Z</time>
      </trkpt>
      <trkpt lat="49.38536" lon="1.14136">
        <ele>144.339996</ele>
        <time>2020-12-01T11:44:00Z</time>
      </trkpt>
      <trkpt lat="49.38539" lon="1.14141">
        <ele>144.339996</ele>
        <time>2020-12-01T11:44:01Z</time>
      </trkpt>
      <trkpt lat="49.38593" lon="1.14188">
        <ele>147.699997</ele>
        <time>2020-12-01T11:44:14Z</time>
      </trkpt>
      <trkpt lat="49.38625" lon="1.14217">
        <ele>146.259995</ele>
        <time>2020-12-01T11:44:22Z</time>
      </trkpt>
      <trkpt lat="49.38647" lon="1.14236">
        <ele>148.179993</ele>
        <time>2020-12-01T11:44:27Z</time>
      </trkpt>
      <trkpt lat="49.38734" lon="1.14272">
        <ele>148.179993</ele>
        <time>2020-12-01T11:44:44Z</time>
      </trkpt>
      <trkpt lat="49.38738" lon="1.14274">
        <ele>148.179993</ele>
        <time>2020-12-01T11:44:45Z</time>
      </trkpt>
      <trkpt lat="49.3882" lon="1.14315">
        <ele>148.179993</ele>
        <time>2020-12-01T11:45:01Z</time>
      </trkpt>
      <trkpt lat="49.38841" lon="1.14319">
        <ele>149.139999</ele>
        <time>2020-12-01T11:45:05Z</time>
      </trkpt>
      <trkpt lat="49.38856" lon="1.14322">
        <ele>148.179993</ele>
        <time>2020-12-01T11:45:08Z</time>
      </trkpt>
      <trkpt lat="49.38905" lon="1.14345">
        <ele>147.220001</ele>
        <time>2020-12-01T11:45:17Z</time>
      </trkpt>
      <trkpt lat="49.3891" lon="1.14349">
        <ele>147.220001</ele>
        <time>2020-12-01T11:45:18Z</time>
      </trkpt>
      <trkpt lat="49.38914" lon="1.14355">
        <ele>147.699997</ele>
        <time>2020-12-01T11:45:19Z</time>
      </trkpt>
      <trkpt lat="49.38992" lon="1.14438">
        <ele>149.139999</ele>
        <time>2020-12-01T11:45:36Z</time>
      </trkpt>
      <trkpt lat="49.39015" lon="1.14461">
        <ele>148.179993</ele>
        <time>2020-12-01T11:45:41Z</time>
      </trkpt>
      <trkpt lat="49.39028" lon="1.14477">
        <ele>147.699997</ele>
        <time>2020-12-01T11:45:45Z</time>
      </trkpt>
      <trkpt lat="49.39026" lon="1.14483">
        <ele>147.699997</ele>
        <time>2020-12-01T11:45:46Z</time>
      </trkpt>
      <trkpt lat="49.39024" lon="1.14487">
        <ele>147.699997</ele>
        <time>2020-12-01T11:45:47Z</time>
      </trkpt>
      <trkpt lat="49.3902" lon="1.14491">
        <ele>147.699997</ele>
        <time>2020-12-01T11:45:48Z</time>
      </trkpt>
      <trkpt lat="49.39015" lon="1.14497">
        <ele>149.139999</ele>
        <time>2020-12-01T11:45:49Z</time>
      </trkpt>
      <trkpt lat="49.38994" lon="1.14517">
        <ele>149.139999</ele>
        <time>2020-12-01T11:45:53Z</time>
      </trkpt>
      <trkpt lat="49.3899" lon="1.14524">
        <ele>148.660004</ele>
        <time>2020-12-01T11:45:54Z</time>
      </trkpt>
      <trkpt lat="49.38986" lon="1.14532">
        <ele>148.660004</ele>
        <time>2020-12-01T11:45:55Z</time>
      </trkpt>
      <trkpt lat="49.38982" lon="1.14541">
        <ele>148.660004</ele>
        <time>2020-12-01T11:45:56Z</time>
      </trkpt>
      <trkpt lat="49.3898" lon="1.14549">
        <ele>148.660004</ele>
        <time>2020-12-01T11:45:57Z</time>
      </trkpt>
      <trkpt lat="49.38978" lon="1.1456">
        <ele>149.139999</ele>
        <time>2020-12-01T11:45:58Z</time>
      </trkpt>
      <trkpt lat="49.38977" lon="1.1457">
        <ele>149.139999</ele>
        <time>2020-12-01T11:45:59Z</time>
      </trkpt>
      <trkpt lat="49.38976" lon="1.1474">
        <ele>149.139999</ele>
        <time>2020-12-01T11:46:15Z</time>
      </trkpt>
      <trkpt lat="49.38996" lon="1.14913">
        <ele>150.100006</ele>
        <time>2020-12-01T11:46:32Z</time>
      </trkpt>
      <trkpt lat="49.39024" lon="1.15105">
        <ele>147.699997</ele>
        <time>2020-12-01T11:46:51Z</time>
      </trkpt>
      <trkpt lat="49.39056" lon="1.15288">
        <ele>145.779999</ele>
        <time>2020-12-01T11:47:08Z</time>
      </trkpt>
      <trkpt lat="49.39057" lon="1.15306">
        <ele>147.220001</ele>
        <time>2020-12-01T11:47:10Z</time>
      </trkpt>
      <trkpt lat="49.39076" lon="1.15437">
        <ele>150.100006</ele>
        <time>2020-12-01T11:47:26Z</time>
      </trkpt>
      <trkpt lat="49.39107" lon="1.15575">
        <ele>150.580002</ele>
        <time>2020-12-01T11:47:41Z</time>
      </trkpt>
      <trkpt lat="49.3914" lon="1.15705">
        <ele>150.100006</ele>
        <time>2020-12-01T11:47:55Z</time>
      </trkpt>
      <trkpt lat="49.3915" lon="1.1575">
        <ele>150.100006</ele>
        <time>2020-12-01T11:48:00Z</time>
      </trkpt>
      <trkpt lat="49.39154" lon="1.15756">
        <ele>149.619995</ele>
        <time>2020-12-01T11:48:01Z</time>
      </trkpt>
      <trkpt lat="49.39158" lon="1.1576">
        <ele>149.619995</ele>
        <time>2020-12-01T11:48:02Z</time>
      </trkpt>
      <trkpt lat="49.39162" lon="1.15762">
        <ele>149.619995</ele>
        <time>2020-12-01T11:48:03Z</time>
      </trkpt>
      <trkpt lat="49.39165" lon="1.15762">
        <ele>149.619995</ele>
        <time>2020-12-01T11:48:04Z</time>
      </trkpt>
      <trkpt lat="49.3917" lon="1.1576">
        <ele>149.619995</ele>
        <time>2020-12-01T11:48:05Z</time>
      </trkpt>
      <trkpt lat="49.39174" lon="1.15758">
        <ele>149.619995</ele>
        <time>2020-12-01T11:48:06Z</time>
      </trkpt>
      <trkpt lat="49.39177" lon="1.15755">
        <ele>149.619995</ele>
        <time>2020-12-01T11:48:07Z</time>
      </trkpt>
      <trkpt lat="49.39182" lon="1.15751">
        <ele>149.619995</ele>
        <time>2020-12-01T11:48:08Z</time>
      </trkpt>
      <trkpt lat="49.39186" lon="1.15747">
        <ele>149.619995</ele>
        <time>2020-12-01T11:48:09Z</time>
      </trkpt>
      <trkpt lat="49.39202" lon="1.15731">
        <ele>151.059998</ele>
        <time>2020-12-01T11:48:13Z</time>
      </trkpt>
      <trkpt lat="49.39217" lon="1.15715">
        <ele>153.470001</ele>
        <time>2020-12-01T11:48:17Z</time>
      </trkpt>
      <trkpt lat="49.39225" lon="1.15707">
        <ele>152.029999</ele>
        <time>2020-12-01T11:48:19Z</time>
      </trkpt>
      <trkpt lat="49.39247" lon="1.15681">
        <ele>153.470001</ele>
        <time>2020-12-01T11:48:25Z</time>
      </trkpt>
      <trkpt lat="49.3927" lon="1.15648">
        <ele>154.910004</ele>
        <time>2020-12-01T11:48:32Z</time>
      </trkpt>
      <trkpt lat="49.39343" lon="1.15558">
        <ele>156.350006</ele>
        <time>2020-12-01T11:48:53Z</time>
      </trkpt>
      <trkpt lat="49.39394" lon="1.15504">
        <ele>158.270004</ele>
        <time>2020-12-01T11:49:05Z</time>
      </trkpt>
      <trkpt lat="49.39427" lon="1.15467">
        <ele>159.240005</ele>
        <time>2020-12-01T11:49:13Z</time>
      </trkpt>
      <trkpt lat="49.39439" lon="1.15455">
        <ele>157.789993</ele>
        <time>2020-12-01T11:49:16Z</time>
      </trkpt>
      <trkpt lat="49.39444" lon="1.15452">
        <ele>157.789993</ele>
        <time>2020-12-01T11:49:17Z</time>
      </trkpt>
      <trkpt lat="49.39448" lon="1.15451">
        <ele>157.789993</ele>
        <time>2020-12-01T11:49:18Z</time>
      </trkpt>
      <trkpt lat="49.39451" lon="1.15451">
        <ele>157.789993</ele>
        <time>2020-12-01T11:49:19Z</time>
      </trkpt>
      <trkpt lat="49.39454" lon="1.15451">
        <ele>157.789993</ele>
        <time>2020-12-01T11:49:20Z</time>
      </trkpt>
      <trkpt lat="49.39457" lon="1.15451">
        <ele>157.789993</ele>
        <time>2020-12-01T11:49:21Z</time>
      </trkpt>
      <trkpt lat="49.39459" lon="1.1545">
        <ele>157.789993</ele>
        <time>2020-12-01T11:49:22Z</time>
      </trkpt>
      <trkpt lat="49.39461" lon="1.15448">
        <ele>157.789993</ele>
        <time>2020-12-01T11:49:23Z</time>
      </trkpt>
      <trkpt lat="49.39463" lon="1.15445">
        <ele>157.789993</ele>
        <time>2020-12-01T11:49:24Z</time>
      </trkpt>
      <trkpt lat="49.39465" lon="1.15441">
        <ele>157.789993</ele>
        <time>2020-12-01T11:49:25Z</time>
      </trkpt>
      <trkpt lat="49.39467" lon="1.15436">
        <ele>157.789993</ele>
        <time>2020-12-01T11:49:26Z</time>
      </trkpt>
      <trkpt lat="49.39473" lon="1.15427">
        <ele>157.789993</ele>
        <time>2020-12-01T11:49:28Z</time>
      </trkpt>
      <trkpt lat="49.39476" lon="1.15423">
        <ele>157.789993</ele>
        <time>2020-12-01T11:49:29Z</time>
      </trkpt>
      <trkpt lat="49.39525" lon="1.15375">
        <ele>157.789993</ele>
        <time>2020-12-01T11:49:40Z</time>
      </trkpt>
      <trkpt lat="49.39611" lon="1.15316">
        <ele>157.789993</ele>
        <time>2020-12-01T11:49:57Z</time>
      </trkpt>
      <trkpt lat="49.39697" lon="1.15232">
        <ele>155.389999</ele>
        <time>2020-12-01T11:50:13Z</time>
      </trkpt>
      <trkpt lat="49.39762" lon="1.15164">
        <ele>152.509995</ele>
        <time>2020-12-01T11:50:24Z</time>
      </trkpt>
      <trkpt lat="49.39789" lon="1.15134">
        <ele>149.619995</ele>
        <time>2020-12-01T11:50:29Z</time>
      </trkpt>
      <trkpt lat="49.39792" lon="1.15129">
        <ele>148.179993</ele>
        <time>2020-12-01T11:50:30Z</time>
      </trkpt>
      <trkpt lat="49.39795" lon="1.15123">
        <ele>147.699997</ele>
        <time>2020-12-01T11:50:31Z</time>
      </trkpt>
      <trkpt lat="49.39797" lon="1.15116">
        <ele>147.699997</ele>
        <time>2020-12-01T11:50:32Z</time>
      </trkpt>
      <trkpt lat="49.39796" lon="1.15109">
        <ele>147.699997</ele>
        <time>2020-12-01T11:50:33Z</time>
      </trkpt>
      <trkpt lat="49.39794" lon="1.15103">
        <ele>147.220001</ele>
        <time>2020-12-01T11:50:34Z</time>
      </trkpt>
      <trkpt lat="49.39791" lon="1.15095">
        <ele>147.220001</ele>
        <time>2020-12-01T11:50:35Z</time>
      </trkpt>
      <trkpt lat="49.39787" lon="1.15089">
        <ele>147.220001</ele>
        <time>2020-12-01T11:50:36Z</time>
      </trkpt>
      <trkpt lat="49.3973" lon="1.14991">
        <ele>145.300003</ele>
        <time>2020-12-01T11:50:50Z</time>
      </trkpt>
      <trkpt lat="49.39676" lon="1.14911">
        <ele>144.339996</ele>
        <time>2020-12-01T11:51:03Z</time>
      </trkpt>
      <trkpt lat="49.39644" lon="1.14857">
        <ele>143.850006</ele>
        <time>2020-12-01T11:51:11Z</time>
      </trkpt>
      <trkpt lat="49.39642" lon="1.1485">
        <ele>143.369995</ele>
        <time>2020-12-01T11:51:12Z</time>
      </trkpt>
      <trkpt lat="49.39641" lon="1.14844">
        <ele>143.369995</ele>
        <time>2020-12-01T11:51:13Z</time>
      </trkpt>
      <trkpt lat="49.39639" lon="1.1484">
        <ele>142.889999</ele>
        <time>2020-12-01T11:51:14Z</time>
      </trkpt>
      <trkpt lat="49.39638" lon="1.14838">
        <ele>142.889999</ele>
        <time>2020-12-01T11:51:15Z</time>
      </trkpt>
      <trkpt lat="49.39638" lon="1.14836">
        <ele>142.889999</ele>
        <time>2020-12-01T11:51:16Z</time>
      </trkpt>
      <trkpt lat="49.39642" lon="1.14837">
        <ele>142.410004</ele>
        <time>2020-12-01T11:51:22Z</time>
      </trkpt>
      <trkpt lat="49.39644" lon="1.14837">
        <ele>142.410004</ele>
        <time>2020-12-01T11:51:23Z</time>
      </trkpt>
      <trkpt lat="49.39646" lon="1.14836">
        <ele>142.410004</ele>
        <time>2020-12-01T11:51:24Z</time>
      </trkpt>
      <trkpt lat="49.39648" lon="1.14834">
        <ele>141.929993</ele>
        <time>2020-12-01T11:51:25Z</time>
      </trkpt>
      <trkpt lat="49.39649" lon="1.14833">
        <ele>141.929993</ele>
        <time>2020-12-01T11:51:26Z</time>
      </trkpt>
      <trkpt lat="49.39651" lon="1.14833">
        <ele>141.449997</ele>
        <time>2020-12-01T11:51:27Z</time>
      </trkpt>
      <trkpt lat="49.39656" lon="1.14834">
        <ele>140.490005</ele>
        <time>2020-12-01T11:51:43Z</time>
      </trkpt>
      <trkpt lat="49.39657" lon="1.1483">
        <ele>139.529999</ele>
        <time>2020-12-01T11:51:44Z</time>
      </trkpt>
      <trkpt lat="49.39659" lon="1.14818">
        <ele>136.160004</ele>
        <time>2020-12-01T11:51:47Z</time>
      </trkpt>
      <trkpt lat="49.39661" lon="1.1481">
        <ele>132.320007</ele>
        <time>2020-12-01T11:51:49Z</time>
      </trkpt>
      <trkpt lat="49.39666" lon="1.14797">
        <ele>128.949997</ele>
        <time>2020-12-01T11:51:52Z</time>
      </trkpt>
      <trkpt lat="49.39674" lon="1.14781">
        <ele>124.629997</ele>
        <time>2020-12-01T11:51:55Z</time>
      </trkpt>
      <trkpt lat="49.39684" lon="1.14757">
        <ele>121.739998</ele>
        <time>2020-12-01T11:51:59Z</time>
      </trkpt>
      <trkpt lat="49.3969" lon="1.14735">
        <ele>118.379997</ele>
        <time>2020-12-01T11:52:02Z</time>
      </trkpt>
      <trkpt lat="49.39694" lon="1.14638">
        <ele>116.459999</ele>
        <time>2020-12-01T11:52:04Z</time>
      </trkpt>
      <trkpt lat="49.39693" lon="1.14624">
        <ele>116.459999</ele>
        <time>2020-12-01T11:52:05Z</time>
      </trkpt>
      <trkpt lat="49.39689" lon="1.14546">
        <ele>113.089996</ele>
        <time>2020-12-01T11:52:11Z</time>
      </trkpt>
      <trkpt lat="49.39689" lon="1.14479">
        <ele>109.25</ele>
        <time>2020-12-01T11:52:16Z</time>
      </trkpt>
      <trkpt lat="49.39689" lon="1.14439">
        <ele>105.879997</ele>
        <time>2020-12-01T11:52:19Z</time>
      </trkpt>
      <trkpt lat="49.39694" lon="1.14388">
        <ele>102.040001</ele>
        <time>2020-12-01T11:52:23Z</time>
      </trkpt>
      <trkpt lat="49.39695" lon="1.14377">
        <ele>102.040001</ele>
        <time>2020-12-01T11:52:24Z</time>
      </trkpt>
      <trkpt lat="49.39703" lon="1.1434">
        <ele>98.669998</ele>
        <time>2020-12-01T11:52:27Z</time>
      </trkpt>
      <trkpt lat="49.39707" lon="1.14328">
        <ele>98.669998</ele>
        <time>2020-12-01T11:52:28Z</time>
      </trkpt>
      <trkpt lat="49.39713" lon="1.14305">
        <ele>94.349998</ele>
        <time>2020-12-01T11:52:30Z</time>
      </trkpt>
      <trkpt lat="49.39715" lon="1.14295">
        <ele>92.900002</ele>
        <time>2020-12-01T11:52:31Z</time>
      </trkpt>
      <trkpt lat="49.39715" lon="1.14285">
        <ele>91.940002</ele>
        <time>2020-12-01T11:52:32Z</time>
      </trkpt>
      <trkpt lat="49.39711" lon="1.1419">
        <ele>88.099998</ele>
        <time>2020-12-01T11:52:42Z</time>
      </trkpt>
      <trkpt lat="49.39708" lon="1.14144">
        <ele>84.730003</ele>
        <time>2020-12-01T11:52:46Z</time>
      </trkpt>
      <trkpt lat="49.39702" lon="1.14123">
        <ele>83.769997</ele>
        <time>2020-12-01T11:52:48Z</time>
      </trkpt>
      <trkpt lat="49.39698" lon="1.14112">
        <ele>83.290001</ele>
        <time>2020-12-01T11:52:49Z</time>
      </trkpt>
      <trkpt lat="49.39694" lon="1.141">
        <ele>82.809998</ele>
        <time>2020-12-01T11:52:50Z</time>
      </trkpt>
      <trkpt lat="49.39693" lon="1.14095">
        <ele>82.330002</ele>
        <time>2020-12-01T11:52:51Z</time>
      </trkpt>
      <trkpt lat="49.39691" lon="1.1409">
        <ele>82.330002</ele>
        <time>2020-12-01T11:52:52Z</time>
      </trkpt>
      <trkpt lat="49.39689" lon="1.14084">
        <ele>81.849998</ele>
        <time>2020-12-01T11:52:53Z</time>
      </trkpt>
      <trkpt lat="49.39685" lon="1.14078">
        <ele>81.849998</ele>
        <time>2020-12-01T11:52:54Z</time>
      </trkpt>
      <trkpt lat="49.39679" lon="1.14073">
        <ele>81.849998</ele>
        <time>2020-12-01T11:52:55Z</time>
      </trkpt>
      <trkpt lat="49.39674" lon="1.1407">
        <ele>81.849998</ele>
        <time>2020-12-01T11:52:56Z</time>
      </trkpt>
      <trkpt lat="49.39657" lon="1.14057">
        <ele>81.370003</ele>
        <time>2020-12-01T11:52:59Z</time>
      </trkpt>
      <trkpt lat="49.39653" lon="1.14051">
        <ele>81.370003</ele>
        <time>2020-12-01T11:53:00Z</time>
      </trkpt>
      <trkpt lat="49.39649" lon="1.14044">
        <ele>80.889999</ele>
        <time>2020-12-01T11:53:01Z</time>
      </trkpt>
      <trkpt lat="49.39646" lon="1.14035">
        <ele>80.889999</ele>
        <time>2020-12-01T11:53:02Z</time>
      </trkpt>
      <trkpt lat="49.39644" lon="1.14025">
        <ele>80.889999</ele>
        <time>2020-12-01T11:53:03Z</time>
      </trkpt>
      <trkpt lat="49.39642" lon="1.14016">
        <ele>80.889999</ele>
        <time>2020-12-01T11:53:04Z</time>
      </trkpt>
      <trkpt lat="49.39641" lon="1.14006">
        <ele>79.93</ele>
        <time>2020-12-01T11:53:05Z</time>
      </trkpt>
      <trkpt lat="49.39641" lon="1.13995">
        <ele>78.970001</ele>
        <time>2020-12-01T11:53:06Z</time>
      </trkpt>
      <trkpt lat="49.39641" lon="1.13984">
        <ele>78.480003</ele>
        <time>2020-12-01T11:53:07Z</time>
      </trkpt>
      <trkpt lat="49.39642" lon="1.13973">
        <ele>78.480003</ele>
        <time>2020-12-01T11:53:08Z</time>
      </trkpt>
      <trkpt lat="49.39644" lon="1.13961">
        <ele>78.480003</ele>
        <time>2020-12-01T11:53:09Z</time>
      </trkpt>
      <trkpt lat="49.39648" lon="1.1395">
        <ele>77.519997</ele>
        <time>2020-12-01T11:53:10Z</time>
      </trkpt>
      <trkpt lat="49.39678" lon="1.13884">
        <ele>74.160004</ele>
        <time>2020-12-01T11:53:16Z</time>
      </trkpt>
      <trkpt lat="49.39682" lon="1.13874">
        <ele>74.160004</ele>
        <time>2020-12-01T11:53:17Z</time>
      </trkpt>
      <trkpt lat="49.39696" lon="1.13843">
        <ele>72.720001</ele>
        <time>2020-12-01T11:53:20Z</time>
      </trkpt>
      <trkpt lat="49.39715" lon="1.13809">
        <ele>70.790001</ele>
        <time>2020-12-01T11:53:24Z</time>
      </trkpt>
      <trkpt lat="49.39723" lon="1.13804">
        <ele>69.830002</ele>
        <time>2020-12-01T11:53:25Z</time>
      </trkpt>
      <trkpt lat="49.3973" lon="1.138">
        <ele>69.830002</ele>
        <time>2020-12-01T11:53:26Z</time>
      </trkpt>
      <trkpt lat="49.39784" lon="1.13776">
        <ele>65.510002</ele>
        <time>2020-12-01T11:53:33Z</time>
      </trkpt>
      <trkpt lat="49.39802" lon="1.13769">
        <ele>64.07</ele>
        <time>2020-12-01T11:53:36Z</time>
      </trkpt>
      <trkpt lat="49.39806" lon="1.13766">
        <ele>63.580002</ele>
        <time>2020-12-01T11:53:37Z</time>
      </trkpt>
      <trkpt lat="49.39827" lon="1.13778">
        <ele>63.099998</ele>
        <time>2020-12-01T11:53:48Z</time>
      </trkpt>
      <trkpt lat="49.39831" lon="1.13786">
        <ele>64.550003</ele>
        <time>2020-12-01T11:53:50Z</time>
      </trkpt>
      <trkpt lat="49.39861" lon="1.13794">
        <ele>66.470001</ele>
        <time>2020-12-01T11:54:00Z</time>
      </trkpt>
      <trkpt lat="49.39911" lon="1.13774">
        <ele>69.349998</ele>
        <time>2020-12-01T11:54:11Z</time>
      </trkpt>
      <trkpt lat="49.39914" lon="1.13772">
        <ele>69.830002</ele>
        <time>2020-12-01T11:54:12Z</time>
      </trkpt>
      <trkpt lat="49.39957" lon="1.13751">
        <ele>68.870003</ele>
        <time>2020-12-01T11:54:24Z</time>
      </trkpt>
      <trkpt lat="49.40027" lon="1.13738">
        <ele>66.470001</ele>
        <time>2020-12-01T11:54:36Z</time>
      </trkpt>
      <trkpt lat="49.40038" lon="1.13742">
        <ele>66.470001</ele>
        <time>2020-12-01T11:54:38Z</time>
      </trkpt>
      <trkpt lat="49.40062" lon="1.13757">
        <ele>66.949997</ele>
        <time>2020-12-01T11:54:45Z</time>
      </trkpt>
      <trkpt lat="49.40063" lon="1.1376">
        <ele>66.949997</ele>
        <time>2020-12-01T11:54:46Z</time>
      </trkpt>
      <trkpt lat="49.40066" lon="1.1377">
        <ele>68.870003</ele>
        <time>2020-12-01T11:54:49Z</time>
      </trkpt>
      <trkpt lat="49.40076" lon="1.13791">
        <ele>71.760002</ele>
        <time>2020-12-01T11:54:57Z</time>
      </trkpt>
      <trkpt lat="49.40093" lon="1.1382">
        <ele>75.120003</ele>
        <time>2020-12-01T11:55:08Z</time>
      </trkpt>
      <trkpt lat="49.40138" lon="1.13884">
        <ele>77.040001</ele>
        <time>2020-12-01T11:55:27Z</time>
      </trkpt>
      <trkpt lat="49.40184" lon="1.13909">
        <ele>78.970001</ele>
        <time>2020-12-01T11:55:41Z</time>
      </trkpt>
      <trkpt lat="49.40245" lon="1.13917">
        <ele>80.889999</ele>
        <time>2020-12-01T11:55:57Z</time>
      </trkpt>
      <trkpt lat="49.40275" lon="1.13916">
        <ele>84.25</ele>
        <time>2020-12-01T11:56:10Z</time>
      </trkpt>
      <trkpt lat="49.40293" lon="1.13949">
        <ele>86.660004</ele>
        <time>2020-12-01T11:56:24Z</time>
      </trkpt>
      <trkpt lat="49.40282" lon="1.13978">
        <ele>88.099998</ele>
        <time>2020-12-01T11:56:34Z</time>
      </trkpt>
      <trkpt lat="49.40235" lon="1.13962">
        <ele>90.019997</ele>
        <time>2020-12-01T11:56:48Z</time>
      </trkpt>
      <trkpt lat="49.40215" lon="1.13969">
        <ele>91.459999</ele>
        <time>2020-12-01T11:56:59Z</time>
      </trkpt>
      <trkpt lat="49.40218" lon="1.13977">
        <ele>91.940002</ele>
        <time>2020-12-01T11:57:09Z</time>
      </trkpt>
      <trkpt lat="49.40265" lon="1.13989">
        <ele>92.900002</ele>
        <time>2020-12-01T11:57:23Z</time>
      </trkpt>
      <trkpt lat="49.40291" lon="1.14012">
        <ele>96.269997</ele>
        <time>2020-12-01T11:57:34Z</time>
      </trkpt>
      <trkpt lat="49.40307" lon="1.14035">
        <ele>99.150002</ele>
        <time>2020-12-01T11:57:44Z</time>
      </trkpt>
      <trkpt lat="49.40315" lon="1.14057">
        <ele>102.519997</ele>
        <time>2020-12-01T11:57:53Z</time>
      </trkpt>
      <trkpt lat="49.40322" lon="1.14075">
        <ele>106.360001</ele>
        <time>2020-12-01T11:58:02Z</time>
      </trkpt>
      <trkpt lat="49.40328" lon="1.14096">
        <ele>109.25</ele>
        <time>2020-12-01T11:58:12Z</time>
      </trkpt>
      <trkpt lat="49.40335" lon="1.1412">
        <ele>113.089996</ele>
        <time>2020-12-01T11:58:23Z</time>
      </trkpt>
      <trkpt lat="49.40337" lon="1.14134">
        <ele>116.459999</ele>
        <time>2020-12-01T11:58:31Z</time>
      </trkpt>
      <trkpt lat="49.40337" lon="1.14154">
        <ele>119.82</ele>
        <time>2020-12-01T11:58:40Z</time>
      </trkpt>
      <trkpt lat="49.40339" lon="1.14173">
        <ele>124.150002</ele>
        <time>2020-12-01T11:58:49Z</time>
      </trkpt>
      <trkpt lat="49.40339" lon="1.14174">
        <ele>124.150002</ele>
        <time>2020-12-01T11:58:50Z</time>
      </trkpt>
      <trkpt lat="49.40331" lon="1.1418">
        <ele>127.029999</ele>
        <time>2020-12-01T11:59:00Z</time>
      </trkpt>
      <trkpt lat="49.40329" lon="1.14181">
        <ele>127.510002</ele>
        <time>2020-12-01T11:59:02Z</time>
      </trkpt>
      <trkpt lat="49.40318" lon="1.14187">
        <ele>130.880005</ele>
        <time>2020-12-01T11:59:11Z</time>
      </trkpt>
      <trkpt lat="49.40313" lon="1.14189">
        <ele>132.320007</ele>
        <time>2020-12-01T11:59:15Z</time>
      </trkpt>
      <trkpt lat="49.403" lon="1.14197">
        <ele>135.679993</ele>
        <time>2020-12-01T11:59:24Z</time>
      </trkpt>
      <trkpt lat="49.40289" lon="1.14201">
        <ele>139.050003</ele>
        <time>2020-12-01T11:59:32Z</time>
      </trkpt>
      <trkpt lat="49.40269" lon="1.14206">
        <ele>141.929993</ele>
        <time>2020-12-01T11:59:44Z</time>
      </trkpt>
      <trkpt lat="49.40254" lon="1.14216">
        <ele>145.300003</ele>
        <time>2020-12-01T11:59:52Z</time>
      </trkpt>
      <trkpt lat="49.40249" lon="1.14222">
        <ele>145.779999</ele>
        <time>2020-12-01T11:59:54Z</time>
      </trkpt>
      <trkpt lat="49.40255" lon="1.14315">
        <ele>148.660004</ele>
        <time>2020-12-01T12:00:11Z</time>
      </trkpt>
      <trkpt lat="49.40259" lon="1.1439">
        <ele>150.100006</ele>
        <time>2020-12-01T12:00:25Z</time>
      </trkpt>
      <trkpt lat="49.40257" lon="1.14394">
        <ele>149.619995</ele>
        <time>2020-12-01T12:00:26Z</time>
      </trkpt>
      <trkpt lat="49.40255" lon="1.14395">
        <ele>150.100006</ele>
        <time>2020-12-01T12:00:27Z</time>
      </trkpt>
      <trkpt lat="49.40252" lon="1.14397">
        <ele>150.100006</ele>
        <time>2020-12-01T12:00:28Z</time>
      </trkpt>
      <trkpt lat="49.40249" lon="1.14397">
        <ele>150.100006</ele>
        <time>2020-12-01T12:00:29Z</time>
      </trkpt>
      <trkpt lat="49.40246" lon="1.14397">
        <ele>150.100006</ele>
        <time>2020-12-01T12:00:30Z</time>
      </trkpt>
      <trkpt lat="49.4024" lon="1.14401">
        <ele>151.059998</ele>
        <time>2020-12-01T12:00:40Z</time>
      </trkpt>
      <trkpt lat="49.40239" lon="1.144">
        <ele>149.139999</ele>
        <time>2020-12-01T12:01:22Z</time>
      </trkpt>
      <trkpt lat="49.40237" lon="1.144">
        <ele>148.660004</ele>
        <time>2020-12-01T12:01:23Z</time>
      </trkpt>
      <trkpt lat="49.40236" lon="1.14399">
        <ele>148.660004</ele>
        <time>2020-12-01T12:01:24Z</time>
      </trkpt>
      <trkpt lat="49.40234" lon="1.14399">
        <ele>148.660004</ele>
        <time>2020-12-01T12:01:25Z</time>
      </trkpt>
      <trkpt lat="49.40232" lon="1.14399">
        <ele>148.660004</ele>
        <time>2020-12-01T12:01:26Z</time>
      </trkpt>
      <trkpt lat="49.4023" lon="1.14399">
        <ele>148.660004</ele>
        <time>2020-12-01T12:01:27Z</time>
      </trkpt>
      <trkpt lat="49.40228" lon="1.144">
        <ele>148.660004</ele>
        <time>2020-12-01T12:01:28Z</time>
      </trkpt>
      <trkpt lat="49.40222" lon="1.14401">
        <ele>150.100006</ele>
        <time>2020-12-01T12:01:30Z</time>
      </trkpt>
      <trkpt lat="49.40162" lon="1.14409">
        <ele>150.100006</ele>
        <time>2020-12-01T12:01:43Z</time>
      </trkpt>
      <trkpt lat="49.40077" lon="1.14438">
        <ele>148.660004</ele>
        <time>2020-12-01T12:01:57Z</time>
      </trkpt>
      <trkpt lat="49.39998" lon="1.14511">
        <ele>148.179993</ele>
        <time>2020-12-01T12:02:11Z</time>
      </trkpt>
      <trkpt lat="49.39924" lon="1.14605">
        <ele>147.699997</ele>
        <time>2020-12-01T12:02:24Z</time>
      </trkpt>
      <trkpt lat="49.39919" lon="1.1461">
        <ele>147.699997</ele>
        <time>2020-12-01T12:02:25Z</time>
      </trkpt>
      <trkpt lat="49.39914" lon="1.14614">
        <ele>146.740005</ele>
        <time>2020-12-01T12:02:26Z</time>
      </trkpt>
      <trkpt lat="49.3991" lon="1.14617">
        <ele>146.740005</ele>
        <time>2020-12-01T12:02:27Z</time>
      </trkpt>
      <trkpt lat="49.39893" lon="1.14627">
        <ele>146.259995</ele>
        <time>2020-12-01T12:02:32Z</time>
      </trkpt>
      <trkpt lat="49.3989" lon="1.1463">
        <ele>145.300003</ele>
        <time>2020-12-01T12:02:33Z</time>
      </trkpt>
      <trkpt lat="49.39887" lon="1.14634">
        <ele>144.820007</ele>
        <time>2020-12-01T12:02:34Z</time>
      </trkpt>
      <trkpt lat="49.39885" lon="1.14638">
        <ele>144.820007</ele>
        <time>2020-12-01T12:02:35Z</time>
      </trkpt>
      <trkpt lat="49.39885" lon="1.14643">
        <ele>144.820007</ele>
        <time>2020-12-01T12:02:36Z</time>
      </trkpt>
      <trkpt lat="49.39884" lon="1.14646">
        <ele>144.820007</ele>
        <time>2020-12-01T12:02:37Z</time>
      </trkpt>
      <trkpt lat="49.39884" lon="1.14648">
        <ele>144.820007</ele>
        <time>2020-12-01T12:02:38Z</time>
      </trkpt>
      <trkpt lat="49.39892" lon="1.14641">
        <ele>146.259995</ele>
        <time>2020-12-01T12:02:43Z</time>
      </trkpt>
      <trkpt lat="49.39899" lon="1.14635">
        <ele>146.259995</ele>
        <time>2020-12-01T12:02:44Z</time>
      </trkpt>
      <trkpt lat="49.39914" lon="1.14628">
        <ele>147.220001</ele>
        <time>2020-12-01T12:02:49Z</time>
      </trkpt>
      <trkpt lat="49.39916" lon="1.14626">
        <ele>145.779999</ele>
        <time>2020-12-01T12:02:50Z</time>
      </trkpt>
      <trkpt lat="49.39917" lon="1.14625">
        <ele>145.779999</ele>
        <time>2020-12-01T12:02:51Z</time>
      </trkpt>
      <trkpt lat="49.39918" lon="1.14623">
        <ele>145.779999</ele>
        <time>2020-12-01T12:02:52Z</time>
      </trkpt>
      <trkpt lat="49.39919" lon="1.1462">
        <ele>147.220001</ele>
        <time>2020-12-01T12:02:57Z</time>
      </trkpt>
      <trkpt lat="49.39919" lon="1.14618">
        <ele>147.699997</ele>
        <time>2020-12-01T12:03:10Z</time>
      </trkpt>
      <trkpt lat="49.39918" lon="1.14618">
        <ele>147.699997</ele>
        <time>2020-12-01T12:03:11Z</time>
      </trkpt>
      <trkpt lat="49.39915" lon="1.14618">
        <ele>147.699997</ele>
        <time>2020-12-01T12:03:12Z</time>
      </trkpt>
      <trkpt lat="49.39912" lon="1.14619">
        <ele>147.699997</ele>
        <time>2020-12-01T12:03:13Z</time>
      </trkpt>
      <trkpt lat="49.39909" lon="1.14621">
        <ele>147.699997</ele>
        <time>2020-12-01T12:03:14Z</time>
      </trkpt>
      <trkpt lat="49.39905" lon="1.14624">
        <ele>147.699997</ele>
        <time>2020-12-01T12:03:15Z</time>
      </trkpt>
      <trkpt lat="49.39902" lon="1.14628">
        <ele>147.699997</ele>
        <time>2020-12-01T12:03:16Z</time>
      </trkpt>
      <trkpt lat="49.39898" lon="1.14633">
        <ele>146.740005</ele>
        <time>2020-12-01T12:03:17Z</time>
      </trkpt>
      <trkpt lat="49.39895" lon="1.14639">
        <ele>146.740005</ele>
        <time>2020-12-01T12:03:18Z</time>
      </trkpt>
      <trkpt lat="49.39892" lon="1.14646">
        <ele>146.740005</ele>
        <time>2020-12-01T12:03:19Z</time>
      </trkpt>
      <trkpt lat="49.39862" lon="1.14713">
        <ele>146.259995</ele>
        <time>2020-12-01T12:03:27Z</time>
      </trkpt>
      <trkpt lat="49.39857" lon="1.14719">
        <ele>145.779999</ele>
        <time>2020-12-01T12:03:28Z</time>
      </trkpt>
      <trkpt lat="49.39851" lon="1.14723">
        <ele>145.779999</ele>
        <time>2020-12-01T12:03:29Z</time>
      </trkpt>
      <trkpt lat="49.39845" lon="1.14726">
        <ele>145.779999</ele>
        <time>2020-12-01T12:03:30Z</time>
      </trkpt>
      <trkpt lat="49.39838" lon="1.14728">
        <ele>145.779999</ele>
        <time>2020-12-01T12:03:31Z</time>
      </trkpt>
      <trkpt lat="49.39807" lon="1.14735">
        <ele>145.300003</ele>
        <time>2020-12-01T12:03:36Z</time>
      </trkpt>
      <trkpt lat="49.39803" lon="1.14734">
        <ele>145.300003</ele>
        <time>2020-12-01T12:03:37Z</time>
      </trkpt>
      <trkpt lat="49.398" lon="1.14733">
        <ele>144.820007</ele>
        <time>2020-12-01T12:03:38Z</time>
      </trkpt>
      <trkpt lat="49.39797" lon="1.14733">
        <ele>144.820007</ele>
        <time>2020-12-01T12:03:39Z</time>
      </trkpt>
      <trkpt lat="49.39795" lon="1.14736">
        <ele>144.820007</ele>
        <time>2020-12-01T12:03:40Z</time>
      </trkpt>
      <trkpt lat="49.39793" lon="1.14739">
        <ele>144.820007</ele>
        <time>2020-12-01T12:03:41Z</time>
      </trkpt>
      <trkpt lat="49.3979" lon="1.14744">
        <ele>144.820007</ele>
        <time>2020-12-01T12:03:42Z</time>
      </trkpt>
      <trkpt lat="49.39787" lon="1.14751">
        <ele>144.820007</ele>
        <time>2020-12-01T12:03:43Z</time>
      </trkpt>
      <trkpt lat="49.39761" lon="1.14864">
        <ele>144.820007</ele>
        <time>2020-12-01T12:03:55Z</time>
      </trkpt>
      <trkpt lat="49.39747" lon="1.14958">
        <ele>143.850006</ele>
        <time>2020-12-01T12:04:07Z</time>
      </trkpt>
      <trkpt lat="49.39738" lon="1.14974">
        <ele>143.369995</ele>
        <time>2020-12-01T12:04:12Z</time>
      </trkpt>
      <trkpt lat="49.39735" lon="1.14973">
        <ele>143.369995</ele>
        <time>2020-12-01T12:04:13Z</time>
      </trkpt>
      <trkpt lat="49.39733" lon="1.14971">
        <ele>143.369995</ele>
        <time>2020-12-01T12:04:14Z</time>
      </trkpt>
      <trkpt lat="49.39731" lon="1.14969">
        <ele>143.369995</ele>
        <time>2020-12-01T12:04:15Z</time>
      </trkpt>
      <trkpt lat="49.3973" lon="1.1497">
        <ele>143.369995</ele>
        <time>2020-12-01T12:04:16Z</time>
      </trkpt>
      <trkpt lat="49.39729" lon="1.14971">
        <ele>143.369995</ele>
        <time>2020-12-01T12:04:17Z</time>
      </trkpt>
      <trkpt lat="49.39731" lon="1.14974">
        <ele>143.369995</ele>
        <time>2020-12-01T12:04:18Z</time>
      </trkpt>
      <trkpt lat="49.39733" lon="1.14978">
        <ele>143.369995</ele>
        <time>2020-12-01T12:04:19Z</time>
      </trkpt>
      <trkpt lat="49.39737" lon="1.14981">
        <ele>143.369995</ele>
        <time>2020-12-01T12:04:20Z</time>
      </trkpt>
      <trkpt lat="49.39741" lon="1.14986">
        <ele>143.369995</ele>
        <time>2020-12-01T12:04:21Z</time>
      </trkpt>
      <trkpt lat="49.39744" lon="1.1499">
        <ele>143.850006</ele>
        <time>2020-12-01T12:04:22Z</time>
      </trkpt>
      <trkpt lat="49.39753" lon="1.15002">
        <ele>144.820007</ele>
        <time>2020-12-01T12:04:24Z</time>
      </trkpt>
      <trkpt lat="49.39757" lon="1.15006">
        <ele>144.820007</ele>
        <time>2020-12-01T12:04:25Z</time>
      </trkpt>
      <trkpt lat="49.39766" lon="1.15016">
        <ele>144.820007</ele>
        <time>2020-12-01T12:04:27Z</time>
      </trkpt>
      <trkpt lat="49.39771" lon="1.15023">
        <ele>144.820007</ele>
        <time>2020-12-01T12:04:28Z</time>
      </trkpt>
      <trkpt lat="49.39773" lon="1.15029">
        <ele>145.300003</ele>
        <time>2020-12-01T12:04:29Z</time>
      </trkpt>
      <trkpt lat="49.39775" lon="1.15036">
        <ele>145.779999</ele>
        <time>2020-12-01T12:04:30Z</time>
      </trkpt>
      <trkpt lat="49.39777" lon="1.15044">
        <ele>145.779999</ele>
        <time>2020-12-01T12:04:31Z</time>
      </trkpt>
      <trkpt lat="49.39789" lon="1.15097">
        <ele>146.740005</ele>
        <time>2020-12-01T12:04:38Z</time>
      </trkpt>
      <trkpt lat="49.39791" lon="1.15104">
        <ele>146.740005</ele>
        <time>2020-12-01T12:04:39Z</time>
      </trkpt>
      <trkpt lat="49.39793" lon="1.1511">
        <ele>147.699997</ele>
        <time>2020-12-01T12:04:40Z</time>
      </trkpt>
      <trkpt lat="49.39797" lon="1.15117">
        <ele>148.179993</ele>
        <time>2020-12-01T12:04:41Z</time>
      </trkpt>
      <trkpt lat="49.39801" lon="1.15121">
        <ele>148.660004</ele>
        <time>2020-12-01T12:04:42Z</time>
      </trkpt>
      <trkpt lat="49.39804" lon="1.15123">
        <ele>149.139999</ele>
        <time>2020-12-01T12:04:43Z</time>
      </trkpt>
      <trkpt lat="49.39808" lon="1.15126">
        <ele>149.139999</ele>
        <time>2020-12-01T12:04:44Z</time>
      </trkpt>
      <trkpt lat="49.39812" lon="1.15131">
        <ele>149.139999</ele>
        <time>2020-12-01T12:04:45Z</time>
      </trkpt>
      <trkpt lat="49.39816" lon="1.15134">
        <ele>149.139999</ele>
        <time>2020-12-01T12:04:46Z</time>
      </trkpt>
      <trkpt lat="49.39824" lon="1.15142">
        <ele>149.139999</ele>
        <time>2020-12-01T12:04:48Z</time>
      </trkpt>
      <trkpt lat="49.39828" lon="1.15148">
        <ele>149.139999</ele>
        <time>2020-12-01T12:04:49Z</time>
      </trkpt>
      <trkpt lat="49.39831" lon="1.15155">
        <ele>149.139999</ele>
        <time>2020-12-01T12:04:50Z</time>
      </trkpt>
      <trkpt lat="49.39833" lon="1.15163">
        <ele>149.139999</ele>
        <time>2020-12-01T12:04:51Z</time>
      </trkpt>
      <trkpt lat="49.39835" lon="1.15171">
        <ele>149.139999</ele>
        <time>2020-12-01T12:04:52Z</time>
      </trkpt>
      <trkpt lat="49.39836" lon="1.15179">
        <ele>149.139999</ele>
        <time>2020-12-01T12:04:53Z</time>
      </trkpt>
      <trkpt lat="49.39838" lon="1.15186">
        <ele>149.139999</ele>
        <time>2020-12-01T12:04:54Z</time>
      </trkpt>
      <trkpt lat="49.3984" lon="1.15194">
        <ele>149.619995</ele>
        <time>2020-12-01T12:04:55Z</time>
      </trkpt>
      <trkpt lat="49.39843" lon="1.15201">
        <ele>150.580002</ele>
        <time>2020-12-01T12:04:56Z</time>
      </trkpt>
      <trkpt lat="49.39845" lon="1.15207">
        <ele>150.580002</ele>
        <time>2020-12-01T12:04:57Z</time>
      </trkpt>
      <trkpt lat="49.39853" lon="1.15227">
        <ele>150.580002</ele>
        <time>2020-12-01T12:05:00Z</time>
      </trkpt>
      <trkpt lat="49.39857" lon="1.15232">
        <ele>150.580002</ele>
        <time>2020-12-01T12:05:01Z</time>
      </trkpt>
      <trkpt lat="49.39861" lon="1.15236">
        <ele>150.580002</ele>
        <time>2020-12-01T12:05:02Z</time>
      </trkpt>
      <trkpt lat="49.39865" lon="1.1524">
        <ele>151.059998</ele>
        <time>2020-12-01T12:05:03Z</time>
      </trkpt>
      <trkpt lat="49.39869" lon="1.15246">
        <ele>151.059998</ele>
        <time>2020-12-01T12:05:04Z</time>
      </trkpt>
      <trkpt lat="49.39873" lon="1.15251">
        <ele>151.059998</ele>
        <time>2020-12-01T12:05:05Z</time>
      </trkpt>
      <trkpt lat="49.39943" lon="1.15333">
        <ele>153.470001</ele>
        <time>2020-12-01T12:05:22Z</time>
      </trkpt>
      <trkpt lat="49.39978" lon="1.15371">
        <ele>154.910004</ele>
        <time>2020-12-01T12:05:31Z</time>
      </trkpt>
      <trkpt lat="49.39985" lon="1.15381">
        <ele>155.389999</ele>
        <time>2020-12-01T12:05:33Z</time>
      </trkpt>
      <trkpt lat="49.39988" lon="1.15386">
        <ele>155.389999</ele>
        <time>2020-12-01T12:05:34Z</time>
      </trkpt>
      <trkpt lat="49.40023" lon="1.15459">
        <ele>158.270004</ele>
        <time>2020-12-01T12:05:47Z</time>
      </trkpt>
      <trkpt lat="49.40028" lon="1.15471">
        <ele>159.240005</ele>
        <time>2020-12-01T12:05:49Z</time>
      </trkpt>
      <trkpt lat="49.40087" lon="1.15597">
        <ele>162.119995</ele>
        <time>2020-12-01T12:06:09Z</time>
      </trkpt>
      <trkpt lat="49.40125" lon="1.15674">
        <ele>163.080002</ele>
        <time>2020-12-01T12:06:21Z</time>
      </trkpt>
      <trkpt lat="49.40127" lon="1.15681">
        <ele>163.080002</ele>
        <time>2020-12-01T12:06:22Z</time>
      </trkpt>
      <trkpt lat="49.40173" lon="1.15763">
        <ele>163.559998</ele>
        <time>2020-12-01T12:06:35Z</time>
      </trkpt>
      <trkpt lat="49.40177" lon="1.15768">
        <ele>163.559998</ele>
        <time>2020-12-01T12:06:36Z</time>
      </trkpt>
      <trkpt lat="49.40181" lon="1.15774">
        <ele>163.559998</ele>
        <time>2020-12-01T12:06:37Z</time>
      </trkpt>
      <trkpt lat="49.40198" lon="1.15802">
        <ele>163.559998</ele>
        <time>2020-12-01T12:06:42Z</time>
      </trkpt>
      <trkpt lat="49.40202" lon="1.15807">
        <ele>163.559998</ele>
        <time>2020-12-01T12:06:43Z</time>
      </trkpt>
      <trkpt lat="49.40223" lon="1.15828">
        <ele>163.559998</ele>
        <time>2020-12-01T12:06:48Z</time>
      </trkpt>
      <trkpt lat="49.40267" lon="1.15847">
        <ele>164.039993</ele>
        <time>2020-12-01T12:06:58Z</time>
      </trkpt>
      <trkpt lat="49.40277" lon="1.15851">
        <ele>164.039993</ele>
        <time>2020-12-01T12:07:01Z</time>
      </trkpt>
      <trkpt lat="49.40279" lon="1.15854">
        <ele>163.080002</ele>
        <time>2020-12-01T12:07:06Z</time>
      </trkpt>
      <trkpt lat="49.40281" lon="1.15855">
        <ele>163.080002</ele>
        <time>2020-12-01T12:07:07Z</time>
      </trkpt>
      <trkpt lat="49.40284" lon="1.15856">
        <ele>163.080002</ele>
        <time>2020-12-01T12:07:08Z</time>
      </trkpt>
      <trkpt lat="49.40288" lon="1.15856">
        <ele>163.080002</ele>
        <time>2020-12-01T12:07:09Z</time>
      </trkpt>
      <trkpt lat="49.40292" lon="1.15857">
        <ele>164.039993</ele>
        <time>2020-12-01T12:07:10Z</time>
      </trkpt>
      <trkpt lat="49.40296" lon="1.15856">
        <ele>164.039993</ele>
        <time>2020-12-01T12:07:11Z</time>
      </trkpt>
      <trkpt lat="49.40301" lon="1.15855">
        <ele>164.039993</ele>
        <time>2020-12-01T12:07:12Z</time>
      </trkpt>
      <trkpt lat="49.40306" lon="1.15856">
        <ele>164.039993</ele>
        <time>2020-12-01T12:07:13Z</time>
      </trkpt>
      <trkpt lat="49.40312" lon="1.15857">
        <ele>164.039993</ele>
        <time>2020-12-01T12:07:14Z</time>
      </trkpt>
      <trkpt lat="49.40317" lon="1.15856">
        <ele>164.039993</ele>
        <time>2020-12-01T12:07:15Z</time>
      </trkpt>
      <trkpt lat="49.40322" lon="1.15855">
        <ele>164.039993</ele>
        <time>2020-12-01T12:07:16Z</time>
      </trkpt>
      <trkpt lat="49.40328" lon="1.15855">
        <ele>164.039993</ele>
        <time>2020-12-01T12:07:17Z</time>
      </trkpt>
      <trkpt lat="49.40333" lon="1.15855">
        <ele>164.039993</ele>
        <time>2020-12-01T12:07:18Z</time>
      </trkpt>
      <trkpt lat="49.40339" lon="1.15857">
        <ele>162.600006</ele>
        <time>2020-12-01T12:07:19Z</time>
      </trkpt>
      <trkpt lat="49.40346" lon="1.15858">
        <ele>162.600006</ele>
        <time>2020-12-01T12:07:20Z</time>
      </trkpt>
      <trkpt lat="49.40363" lon="1.15864">
        <ele>161.639999</ele>
        <time>2020-12-01T12:07:23Z</time>
      </trkpt>
      <trkpt lat="49.40394" lon="1.15873">
        <ele>160.199997</ele>
        <time>2020-12-01T12:07:28Z</time>
      </trkpt>
      <trkpt lat="49.40414" lon="1.15878">
        <ele>158.270004</ele>
        <time>2020-12-01T12:07:31Z</time>
      </trkpt>
      <trkpt lat="49.40427" lon="1.15884">
        <ele>157.309998</ele>
        <time>2020-12-01T12:07:33Z</time>
      </trkpt>
      <trkpt lat="49.4046" lon="1.15897">
        <ele>155.389999</ele>
        <time>2020-12-01T12:07:38Z</time>
      </trkpt>
      <trkpt lat="49.40465" lon="1.15901">
        <ele>154.910004</ele>
        <time>2020-12-01T12:07:39Z</time>
      </trkpt>
      <trkpt lat="49.40468" lon="1.15907">
        <ele>154.910004</ele>
        <time>2020-12-01T12:07:40Z</time>
      </trkpt>
      <trkpt lat="49.40471" lon="1.15912">
        <ele>154.910004</ele>
        <time>2020-12-01T12:07:41Z</time>
      </trkpt>
      <trkpt lat="49.40475" lon="1.15916">
        <ele>154.910004</ele>
        <time>2020-12-01T12:07:42Z</time>
      </trkpt>
      <trkpt lat="49.4048" lon="1.15917">
        <ele>154.429993</ele>
        <time>2020-12-01T12:07:43Z</time>
      </trkpt>
      <trkpt lat="49.40484" lon="1.15917">
        <ele>154.429993</ele>
        <time>2020-12-01T12:07:44Z</time>
      </trkpt>
      <trkpt lat="49.40488" lon="1.15915">
        <ele>154.429993</ele>
        <time>2020-12-01T12:07:45Z</time>
      </trkpt>
      <trkpt lat="49.40493" lon="1.15913">
        <ele>156.350006</ele>
        <time>2020-12-01T12:07:46Z</time>
      </trkpt>
      <trkpt lat="49.40496" lon="1.1591">
        <ele>156.830002</ele>
        <time>2020-12-01T12:07:47Z</time>
      </trkpt>
      <trkpt lat="49.405" lon="1.15907">
        <ele>156.830002</ele>
        <time>2020-12-01T12:07:48Z</time>
      </trkpt>
      <trkpt lat="49.40508" lon="1.15902">
        <ele>156.830002</ele>
        <time>2020-12-01T12:07:50Z</time>
      </trkpt>
      <trkpt lat="49.4056" lon="1.15868">
        <ele>160.199997</ele>
        <time>2020-12-01T12:08:04Z</time>
      </trkpt>
      <trkpt lat="49.40593" lon="1.15843">
        <ele>162.119995</ele>
        <time>2020-12-01T12:08:13Z</time>
      </trkpt>
      <trkpt lat="49.40609" lon="1.15831">
        <ele>165.479996</ele>
        <time>2020-12-01T12:08:18Z</time>
      </trkpt>
      <trkpt lat="49.40622" lon="1.15826">
        <ele>166.929993</ele>
        <time>2020-12-01T12:08:22Z</time>
      </trkpt>
      <trkpt lat="49.40652" lon="1.15816">
        <ele>168.369995</ele>
        <time>2020-12-01T12:08:31Z</time>
      </trkpt>
      <trkpt lat="49.40661" lon="1.15816">
        <ele>166.929993</ele>
        <time>2020-12-01T12:08:33Z</time>
      </trkpt>
      <trkpt lat="49.40704" lon="1.15826">
        <ele>164.039993</ele>
        <time>2020-12-01T12:08:40Z</time>
      </trkpt>
      <trkpt lat="49.40748" lon="1.15844">
        <ele>162.119995</ele>
        <time>2020-12-01T12:08:47Z</time>
      </trkpt>
      <trkpt lat="49.40767" lon="1.15851">
        <ele>161.639999</ele>
        <time>2020-12-01T12:08:50Z</time>
      </trkpt>
      <trkpt lat="49.40787" lon="1.15855">
        <ele>160.679993</ele>
        <time>2020-12-01T12:08:53Z</time>
      </trkpt>
      <trkpt lat="49.40828" lon="1.15863">
        <ele>162.600006</ele>
        <time>2020-12-01T12:09:00Z</time>
      </trkpt>
      <trkpt lat="49.4085" lon="1.15865">
        <ele>161.160004</ele>
        <time>2020-12-01T12:09:04Z</time>
      </trkpt>
      <trkpt lat="49.40867" lon="1.15863">
        <ele>161.160004</ele>
        <time>2020-12-01T12:09:07Z</time>
      </trkpt>
      <trkpt lat="49.40911" lon="1.15862">
        <ele>159.240005</ele>
        <time>2020-12-01T12:09:14Z</time>
      </trkpt>
      <trkpt lat="49.40926" lon="1.15861">
        <ele>156.830002</ele>
        <time>2020-12-01T12:09:16Z</time>
      </trkpt>
      <trkpt lat="49.40931" lon="1.15858">
        <ele>155.869995</ele>
        <time>2020-12-01T12:09:17Z</time>
      </trkpt>
      <trkpt lat="49.40937" lon="1.15854">
        <ele>155.389999</ele>
        <time>2020-12-01T12:09:18Z</time>
      </trkpt>
      <trkpt lat="49.4094" lon="1.15849">
        <ele>155.389999</ele>
        <time>2020-12-01T12:09:19Z</time>
      </trkpt>
      <trkpt lat="49.40943" lon="1.15843">
        <ele>154.429993</ele>
        <time>2020-12-01T12:09:20Z</time>
      </trkpt>
      <trkpt lat="49.40948" lon="1.15837">
        <ele>154.429993</ele>
        <time>2020-12-01T12:09:21Z</time>
      </trkpt>
      <trkpt lat="49.40952" lon="1.15833">
        <ele>154.429993</ele>
        <time>2020-12-01T12:09:22Z</time>
      </trkpt>
      <trkpt lat="49.40981" lon="1.15808">
        <ele>155.389999</ele>
        <time>2020-12-01T12:09:28Z</time>
      </trkpt>
      <trkpt lat="49.40996" lon="1.15791">
        <ele>152.990005</ele>
        <time>2020-12-01T12:09:31Z</time>
      </trkpt>
      <trkpt lat="49.41" lon="1.15783">
        <ele>152.990005</ele>
        <time>2020-12-01T12:09:32Z</time>
      </trkpt>
      <trkpt lat="49.41004" lon="1.15774">
        <ele>152.990005</ele>
        <time>2020-12-01T12:09:33Z</time>
      </trkpt>
      <trkpt lat="49.41037" lon="1.15679">
        <ele>149.619995</ele>
        <time>2020-12-01T12:09:43Z</time>
      </trkpt>
      <trkpt lat="49.41042" lon="1.15661">
        <ele>148.660004</ele>
        <time>2020-12-01T12:09:45Z</time>
      </trkpt>
      <trkpt lat="49.41046" lon="1.15655">
        <ele>148.660004</ele>
        <time>2020-12-01T12:09:46Z</time>
      </trkpt>
      <trkpt lat="49.41051" lon="1.15649">
        <ele>148.660004</ele>
        <time>2020-12-01T12:09:47Z</time>
      </trkpt>
      <trkpt lat="49.41126" lon="1.15571">
        <ele>146.259995</ele>
        <time>2020-12-01T12:10:02Z</time>
      </trkpt>
      <trkpt lat="49.41139" lon="1.15551">
        <ele>145.779999</ele>
        <time>2020-12-01T12:10:05Z</time>
      </trkpt>
      <trkpt lat="49.41142" lon="1.15544">
        <ele>145.779999</ele>
        <time>2020-12-01T12:10:06Z</time>
      </trkpt>
      <trkpt lat="49.41144" lon="1.15536">
        <ele>144.820007</ele>
        <time>2020-12-01T12:10:07Z</time>
      </trkpt>
      <trkpt lat="49.41145" lon="1.15529">
        <ele>144.820007</ele>
        <time>2020-12-01T12:10:08Z</time>
      </trkpt>
      <trkpt lat="49.41145" lon="1.15522">
        <ele>144.339996</ele>
        <time>2020-12-01T12:10:09Z</time>
      </trkpt>
      <trkpt lat="49.41143" lon="1.15515">
        <ele>143.850006</ele>
        <time>2020-12-01T12:10:10Z</time>
      </trkpt>
      <trkpt lat="49.41141" lon="1.15509">
        <ele>144.339996</ele>
        <time>2020-12-01T12:10:11Z</time>
      </trkpt>
      <trkpt lat="49.41138" lon="1.15503">
        <ele>144.339996</ele>
        <time>2020-12-01T12:10:12Z</time>
      </trkpt>
      <trkpt lat="49.41135" lon="1.15498">
        <ele>144.339996</ele>
        <time>2020-12-01T12:10:13Z</time>
      </trkpt>
      <trkpt lat="49.41126" lon="1.15479">
        <ele>144.339996</ele>
        <time>2020-12-01T12:10:17Z</time>
      </trkpt>
      <trkpt lat="49.41127" lon="1.15474">
        <ele>145.300003</ele>
        <time>2020-12-01T12:10:18Z</time>
      </trkpt>
      <trkpt lat="49.4113" lon="1.15468">
        <ele>145.300003</ele>
        <time>2020-12-01T12:10:19Z</time>
      </trkpt>
      <trkpt lat="49.41148" lon="1.15432">
        <ele>145.300003</ele>
        <time>2020-12-01T12:10:24Z</time>
      </trkpt>
      <trkpt lat="49.41156" lon="1.15413">
        <ele>145.300003</ele>
        <time>2020-12-01T12:10:26Z</time>
      </trkpt>
      <trkpt lat="49.41159" lon="1.15406">
        <ele>145.300003</ele>
        <time>2020-12-01T12:10:27Z</time>
      </trkpt>
      <trkpt lat="49.41171" lon="1.15385">
        <ele>144.339996</ele>
        <time>2020-12-01T12:10:30Z</time>
      </trkpt>
      <trkpt lat="49.41195" lon="1.15348">
        <ele>144.820007</ele>
        <time>2020-12-01T12:10:36Z</time>
      </trkpt>
      <trkpt lat="49.41198" lon="1.15339">
        <ele>144.820007</ele>
        <time>2020-12-01T12:10:37Z</time>
      </trkpt>
      <trkpt lat="49.41209" lon="1.15315">
        <ele>146.259995</ele>
        <time>2020-12-01T12:10:40Z</time>
      </trkpt>
      <trkpt lat="49.41223" lon="1.15284">
        <ele>144.339996</ele>
        <time>2020-12-01T12:10:44Z</time>
      </trkpt>
      <trkpt lat="49.41254" lon="1.15221">
        <ele>145.779999</ele>
        <time>2020-12-01T12:10:52Z</time>
      </trkpt>
      <trkpt lat="49.41302" lon="1.1513">
        <ele>146.259995</ele>
        <time>2020-12-01T12:11:04Z</time>
      </trkpt>
      <trkpt lat="49.41309" lon="1.15114">
        <ele>147.699997</ele>
        <time>2020-12-01T12:11:06Z</time>
      </trkpt>
      <trkpt lat="49.41319" lon="1.15088">
        <ele>146.259995</ele>
        <time>2020-12-01T12:11:09Z</time>
      </trkpt>
      <trkpt lat="49.41364" lon="1.14969">
        <ele>145.300003</ele>
        <time>2020-12-01T12:11:23Z</time>
      </trkpt>
      <trkpt lat="49.41401" lon="1.14913">
        <ele>147.220001</ele>
        <time>2020-12-01T12:11:32Z</time>
      </trkpt>
      <trkpt lat="49.41442" lon="1.14866">
        <ele>146.259995</ele>
        <time>2020-12-01T12:11:41Z</time>
      </trkpt>
      <trkpt lat="49.41448" lon="1.14865">
        <ele>146.259995</ele>
        <time>2020-12-01T12:11:42Z</time>
      </trkpt>
      <trkpt lat="49.41453" lon="1.14868">
        <ele>146.259995</ele>
        <time>2020-12-01T12:11:43Z</time>
      </trkpt>
      <trkpt lat="49.41456" lon="1.14871">
        <ele>146.259995</ele>
        <time>2020-12-01T12:11:44Z</time>
      </trkpt>
      <trkpt lat="49.4146" lon="1.14877">
        <ele>146.259995</ele>
        <time>2020-12-01T12:11:45Z</time>
      </trkpt>
      <trkpt lat="49.41464" lon="1.14883">
        <ele>146.259995</ele>
        <time>2020-12-01T12:11:46Z</time>
      </trkpt>
      <trkpt lat="49.41477" lon="1.14908">
        <ele>146.259995</ele>
        <time>2020-12-01T12:11:50Z</time>
      </trkpt>
      <trkpt lat="49.4148" lon="1.14914">
        <ele>146.259995</ele>
        <time>2020-12-01T12:11:51Z</time>
      </trkpt>
      <trkpt lat="49.41483" lon="1.14919">
        <ele>146.259995</ele>
        <time>2020-12-01T12:11:52Z</time>
      </trkpt>
      <trkpt lat="49.41486" lon="1.14922">
        <ele>146.259995</ele>
        <time>2020-12-01T12:11:53Z</time>
      </trkpt>
      <trkpt lat="49.41489" lon="1.14924">
        <ele>146.259995</ele>
        <time>2020-12-01T12:11:54Z</time>
      </trkpt>
      <trkpt lat="49.41493" lon="1.14924">
        <ele>146.259995</ele>
        <time>2020-12-01T12:11:55Z</time>
      </trkpt>
      <trkpt lat="49.41497" lon="1.14922">
        <ele>146.259995</ele>
        <time>2020-12-01T12:11:56Z</time>
      </trkpt>
      <trkpt lat="49.415" lon="1.1492">
        <ele>144.820007</ele>
        <time>2020-12-01T12:11:57Z</time>
      </trkpt>
      <trkpt lat="49.41502" lon="1.14919">
        <ele>144.820007</ele>
        <time>2020-12-01T12:11:58Z</time>
      </trkpt>
      <trkpt lat="49.41513" lon="1.14908">
        <ele>144.820007</ele>
        <time>2020-12-01T12:12:01Z</time>
      </trkpt>
      <trkpt lat="49.41525" lon="1.1488">
        <ele>146.259995</ele>
        <time>2020-12-01T12:12:04Z</time>
      </trkpt>
      <trkpt lat="49.41568" lon="1.14788">
        <ele>145.300003</ele>
        <time>2020-12-01T12:12:16Z</time>
      </trkpt>
      <trkpt lat="49.41631" lon="1.14667">
        <ele>142.889999</ele>
        <time>2020-12-01T12:12:32Z</time>
      </trkpt>
      <trkpt lat="49.41678" lon="1.14586">
        <ele>139.529999</ele>
        <time>2020-12-01T12:12:43Z</time>
      </trkpt>
      <trkpt lat="49.41684" lon="1.14578">
        <ele>139.529999</ele>
        <time>2020-12-01T12:12:45Z</time>
      </trkpt>
      <trkpt lat="49.41688" lon="1.14575">
        <ele>139.529999</ele>
        <time>2020-12-01T12:12:46Z</time>
      </trkpt>
      <trkpt lat="49.41713" lon="1.14555">
        <ele>141.929993</ele>
        <time>2020-12-01T12:12:51Z</time>
      </trkpt>
      <trkpt lat="49.41786" lon="1.14487">
        <ele>141.449997</ele>
        <time>2020-12-01T12:13:03Z</time>
      </trkpt>
      <trkpt lat="49.4179" lon="1.14484">
        <ele>141.449997</ele>
        <time>2020-12-01T12:13:04Z</time>
      </trkpt>
      <trkpt lat="49.418" lon="1.14476">
        <ele>141.449997</ele>
        <time>2020-12-01T12:13:06Z</time>
      </trkpt>
      <trkpt lat="49.41804" lon="1.14471">
        <ele>141.449997</ele>
        <time>2020-12-01T12:13:07Z</time>
      </trkpt>
      <trkpt lat="49.41808" lon="1.14467">
        <ele>141.449997</ele>
        <time>2020-12-01T12:13:08Z</time>
      </trkpt>
      <trkpt lat="49.41812" lon="1.14463">
        <ele>141.929993</ele>
        <time>2020-12-01T12:13:09Z</time>
      </trkpt>
      <trkpt lat="49.41816" lon="1.14459">
        <ele>141.929993</ele>
        <time>2020-12-01T12:13:10Z</time>
      </trkpt>
      <trkpt lat="49.41821" lon="1.14457">
        <ele>141.929993</ele>
        <time>2020-12-01T12:13:11Z</time>
      </trkpt>
      <trkpt lat="49.41826" lon="1.14454">
        <ele>142.410004</ele>
        <time>2020-12-01T12:13:12Z</time>
      </trkpt>
      <trkpt lat="49.41895" lon="1.14401">
        <ele>145.300003</ele>
        <time>2020-12-01T12:13:28Z</time>
      </trkpt>
      <trkpt lat="49.41898" lon="1.14397">
        <ele>145.779999</ele>
        <time>2020-12-01T12:13:29Z</time>
      </trkpt>
      <trkpt lat="49.41902" lon="1.14392">
        <ele>145.779999</ele>
        <time>2020-12-01T12:13:30Z</time>
      </trkpt>
      <trkpt lat="49.41905" lon="1.14389">
        <ele>146.259995</ele>
        <time>2020-12-01T12:13:31Z</time>
      </trkpt>
      <trkpt lat="49.4191" lon="1.14386">
        <ele>146.740005</ele>
        <time>2020-12-01T12:13:32Z</time>
      </trkpt>
      <trkpt lat="49.41916" lon="1.14384">
        <ele>146.740005</ele>
        <time>2020-12-01T12:13:33Z</time>
      </trkpt>
      <trkpt lat="49.41922" lon="1.14381">
        <ele>146.740005</ele>
        <time>2020-12-01T12:13:34Z</time>
      </trkpt>
      <trkpt lat="49.41926" lon="1.14379">
        <ele>146.740005</ele>
        <time>2020-12-01T12:13:35Z</time>
      </trkpt>
      <trkpt lat="49.41931" lon="1.14375">
        <ele>146.740005</ele>
        <time>2020-12-01T12:13:36Z</time>
      </trkpt>
      <trkpt lat="49.41986" lon="1.14331">
        <ele>150.100006</ele>
        <time>2020-12-01T12:13:48Z</time>
      </trkpt>
      <trkpt lat="49.4199" lon="1.14328">
        <ele>150.100006</ele>
        <time>2020-12-01T12:13:49Z</time>
      </trkpt>
      <trkpt lat="49.42015" lon="1.14305">
        <ele>152.029999</ele>
        <time>2020-12-01T12:13:55Z</time>
      </trkpt>
      <trkpt lat="49.42018" lon="1.14301">
        <ele>152.029999</ele>
        <time>2020-12-01T12:13:56Z</time>
      </trkpt>
      <trkpt lat="49.4202" lon="1.14296">
        <ele>152.029999</ele>
        <time>2020-12-01T12:13:57Z</time>
      </trkpt>
      <trkpt lat="49.42022" lon="1.14291">
        <ele>150.580002</ele>
        <time>2020-12-01T12:13:58Z</time>
      </trkpt>
      <trkpt lat="49.42025" lon="1.14287">
        <ele>151.059998</ele>
        <time>2020-12-01T12:13:59Z</time>
      </trkpt>
      <trkpt lat="49.42029" lon="1.14283">
        <ele>150.580002</ele>
        <time>2020-12-01T12:14:00Z</time>
      </trkpt>
      <trkpt lat="49.42034" lon="1.14281">
        <ele>150.580002</ele>
        <time>2020-12-01T12:14:01Z</time>
      </trkpt>
      <trkpt lat="49.42037" lon="1.1428">
        <ele>152.029999</ele>
        <time>2020-12-01T12:14:02Z</time>
      </trkpt>
      <trkpt lat="49.42042" lon="1.14278">
        <ele>152.029999</ele>
        <time>2020-12-01T12:14:03Z</time>
      </trkpt>
      <trkpt lat="49.42046" lon="1.14275">
        <ele>152.029999</ele>
        <time>2020-12-01T12:14:04Z</time>
      </trkpt>
      <trkpt lat="49.4205" lon="1.14271">
        <ele>152.029999</ele>
        <time>2020-12-01T12:14:05Z</time>
      </trkpt>
      <trkpt lat="49.42138" lon="1.14187">
        <ele>152.990005</ele>
        <time>2020-12-01T12:14:25Z</time>
      </trkpt>
      <trkpt lat="49.42225" lon="1.1411">
        <ele>152.990005</ele>
        <time>2020-12-01T12:14:43Z</time>
      </trkpt>
      <trkpt lat="49.42229" lon="1.14108">
        <ele>151.539993</ele>
        <time>2020-12-01T12:14:44Z</time>
      </trkpt>
      <trkpt lat="49.42235" lon="1.14109">
        <ele>151.539993</ele>
        <time>2020-12-01T12:14:45Z</time>
      </trkpt>
      <trkpt lat="49.42241" lon="1.14108">
        <ele>152.990005</ele>
        <time>2020-12-01T12:14:46Z</time>
      </trkpt>
      <trkpt lat="49.42244" lon="1.14107">
        <ele>152.990005</ele>
        <time>2020-12-01T12:14:47Z</time>
      </trkpt>
      <trkpt lat="49.42249" lon="1.14104">
        <ele>152.990005</ele>
        <time>2020-12-01T12:14:48Z</time>
      </trkpt>
      <trkpt lat="49.42254" lon="1.14099">
        <ele>152.990005</ele>
        <time>2020-12-01T12:14:49Z</time>
      </trkpt>
      <trkpt lat="49.42259" lon="1.14095">
        <ele>152.990005</ele>
        <time>2020-12-01T12:14:50Z</time>
      </trkpt>
      <trkpt lat="49.42287" lon="1.14069">
        <ele>153.470001</ele>
        <time>2020-12-01T12:14:56Z</time>
      </trkpt>
      <trkpt lat="49.42291" lon="1.14064">
        <ele>153.470001</ele>
        <time>2020-12-01T12:14:57Z</time>
      </trkpt>
      <trkpt lat="49.42301" lon="1.14051">
        <ele>153.470001</ele>
        <time>2020-12-01T12:14:59Z</time>
      </trkpt>
      <trkpt lat="49.42306" lon="1.14046">
        <ele>153.470001</ele>
        <time>2020-12-01T12:15:00Z</time>
      </trkpt>
      <trkpt lat="49.42335" lon="1.1402">
        <ele>152.509995</ele>
        <time>2020-12-01T12:15:06Z</time>
      </trkpt>
      <trkpt lat="49.42404" lon="1.13963">
        <ele>148.660004</ele>
        <time>2020-12-01T12:15:21Z</time>
      </trkpt>
      <trkpt lat="49.42405" lon="1.1396">
        <ele>148.660004</ele>
        <time>2020-12-01T12:15:22Z</time>
      </trkpt>
      <trkpt lat="49.42407" lon="1.13959">
        <ele>148.660004</ele>
        <time>2020-12-01T12:15:23Z</time>
      </trkpt>
      <trkpt lat="49.4241" lon="1.13958">
        <ele>149.139999</ele>
        <time>2020-12-01T12:15:24Z</time>
      </trkpt>
      <trkpt lat="49.42414" lon="1.13956">
        <ele>149.139999</ele>
        <time>2020-12-01T12:15:25Z</time>
      </trkpt>
      <trkpt lat="49.42418" lon="1.13953">
        <ele>149.139999</ele>
        <time>2020-12-01T12:15:26Z</time>
      </trkpt>
      <trkpt lat="49.42437" lon="1.13936">
        <ele>150.100006</ele>
        <time>2020-12-01T12:15:30Z</time>
      </trkpt>
      <trkpt lat="49.42463" lon="1.13913">
        <ele>147.699997</ele>
        <time>2020-12-01T12:15:35Z</time>
      </trkpt>
      <trkpt lat="49.42509" lon="1.13875">
        <ele>144.339996</ele>
        <time>2020-12-01T12:15:44Z</time>
      </trkpt>
      <trkpt lat="49.42514" lon="1.13872">
        <ele>143.369995</ele>
        <time>2020-12-01T12:15:45Z</time>
      </trkpt>
      <trkpt lat="49.42517" lon="1.1387">
        <ele>142.889999</ele>
        <time>2020-12-01T12:15:46Z</time>
      </trkpt>
      <trkpt lat="49.42521" lon="1.13871">
        <ele>142.889999</ele>
        <time>2020-12-01T12:15:47Z</time>
      </trkpt>
      <trkpt lat="49.42526" lon="1.13872">
        <ele>142.889999</ele>
        <time>2020-12-01T12:15:48Z</time>
      </trkpt>
      <trkpt lat="49.4253" lon="1.13871">
        <ele>142.410004</ele>
        <time>2020-12-01T12:15:49Z</time>
      </trkpt>
      <trkpt lat="49.42533" lon="1.1387">
        <ele>141.929993</ele>
        <time>2020-12-01T12:15:50Z</time>
      </trkpt>
      <trkpt lat="49.42539" lon="1.13867">
        <ele>141.929993</ele>
        <time>2020-12-01T12:15:51Z</time>
      </trkpt>
      <trkpt lat="49.42543" lon="1.13864">
        <ele>141.449997</ele>
        <time>2020-12-01T12:15:52Z</time>
      </trkpt>
      <trkpt lat="49.42548" lon="1.13863">
        <ele>141.449997</ele>
        <time>2020-12-01T12:15:53Z</time>
      </trkpt>
      <trkpt lat="49.42554" lon="1.13864">
        <ele>140.490005</ele>
        <time>2020-12-01T12:15:54Z</time>
      </trkpt>
      <trkpt lat="49.42561" lon="1.1387">
        <ele>140.009995</ele>
        <time>2020-12-01T12:15:55Z</time>
      </trkpt>
      <trkpt lat="49.42566" lon="1.13875">
        <ele>140.009995</ele>
        <time>2020-12-01T12:15:56Z</time>
      </trkpt>
      <trkpt lat="49.4257" lon="1.1388">
        <ele>140.009995</ele>
        <time>2020-12-01T12:15:57Z</time>
      </trkpt>
      <trkpt lat="49.42574" lon="1.13886">
        <ele>140.009995</ele>
        <time>2020-12-01T12:15:58Z</time>
      </trkpt>
      <trkpt lat="49.42578" lon="1.13893">
        <ele>140.009995</ele>
        <time>2020-12-01T12:15:59Z</time>
      </trkpt>
      <trkpt lat="49.42581" lon="1.13901">
        <ele>140.009995</ele>
        <time>2020-12-01T12:16:00Z</time>
      </trkpt>
      <trkpt lat="49.42584" lon="1.13909">
        <ele>140.009995</ele>
        <time>2020-12-01T12:16:01Z</time>
      </trkpt>
      <trkpt lat="49.42587" lon="1.13918">
        <ele>140.009995</ele>
        <time>2020-12-01T12:16:02Z</time>
      </trkpt>
      <trkpt lat="49.42589" lon="1.13926">
        <ele>140.009995</ele>
        <time>2020-12-01T12:16:03Z</time>
      </trkpt>
      <trkpt lat="49.42591" lon="1.13935">
        <ele>140.009995</ele>
        <time>2020-12-01T12:16:04Z</time>
      </trkpt>
      <trkpt lat="49.42599" lon="1.13978">
        <ele>140.490005</ele>
        <time>2020-12-01T12:16:09Z</time>
      </trkpt>
      <trkpt lat="49.42602" lon="1.13985">
        <ele>140.490005</ele>
        <time>2020-12-01T12:16:10Z</time>
      </trkpt>
      <trkpt lat="49.42604" lon="1.1399">
        <ele>140.490005</ele>
        <time>2020-12-01T12:16:11Z</time>
      </trkpt>
      <trkpt lat="49.42617" lon="1.14009">
        <ele>138.089996</ele>
        <time>2020-12-01T12:16:14Z</time>
      </trkpt>
      <trkpt lat="49.42621" lon="1.14018">
        <ele>137.610001</ele>
        <time>2020-12-01T12:16:15Z</time>
      </trkpt>
      <trkpt lat="49.42624" lon="1.14027">
        <ele>137.610001</ele>
        <time>2020-12-01T12:16:16Z</time>
      </trkpt>
      <trkpt lat="49.42627" lon="1.14036">
        <ele>137.130005</ele>
        <time>2020-12-01T12:16:17Z</time>
      </trkpt>
      <trkpt lat="49.42629" lon="1.14046">
        <ele>137.130005</ele>
        <time>2020-12-01T12:16:18Z</time>
      </trkpt>
      <trkpt lat="49.42632" lon="1.14056">
        <ele>137.130005</ele>
        <time>2020-12-01T12:16:19Z</time>
      </trkpt>
      <trkpt lat="49.42649" lon="1.14171">
        <ele>134.720001</ele>
        <time>2020-12-01T12:16:30Z</time>
      </trkpt>
      <trkpt lat="49.4265" lon="1.14199">
        <ele>136.160004</ele>
        <time>2020-12-01T12:16:33Z</time>
      </trkpt>
      <trkpt lat="49.42651" lon="1.14205">
        <ele>136.160004</ele>
        <time>2020-12-01T12:16:34Z</time>
      </trkpt>
      <trkpt lat="49.42655" lon="1.14218">
        <ele>134.720001</ele>
        <time>2020-12-01T12:16:36Z</time>
      </trkpt>
      <trkpt lat="49.42657" lon="1.14225">
        <ele>134.720001</ele>
        <time>2020-12-01T12:16:37Z</time>
      </trkpt>
      <trkpt lat="49.42667" lon="1.14292">
        <ele>135.679993</ele>
        <time>2020-12-01T12:16:44Z</time>
      </trkpt>
      <trkpt lat="49.42689" lon="1.14412">
        <ele>137.130005</ele>
        <time>2020-12-01T12:16:56Z</time>
      </trkpt>
      <trkpt lat="49.42693" lon="1.14431">
        <ele>136.639999</ele>
        <time>2020-12-01T12:16:58Z</time>
      </trkpt>
      <trkpt lat="49.42723" lon="1.14547">
        <ele>137.130005</ele>
        <time>2020-12-01T12:17:11Z</time>
      </trkpt>
      <trkpt lat="49.4273" lon="1.14572">
        <ele>137.130005</ele>
        <time>2020-12-01T12:17:14Z</time>
      </trkpt>
      <trkpt lat="49.4273" lon="1.14581">
        <ele>137.130005</ele>
        <time>2020-12-01T12:17:15Z</time>
      </trkpt>
      <trkpt lat="49.4273" lon="1.14589">
        <ele>137.130005</ele>
        <time>2020-12-01T12:17:16Z</time>
      </trkpt>
      <trkpt lat="49.42736" lon="1.14684">
        <ele>137.610001</ele>
        <time>2020-12-01T12:17:27Z</time>
      </trkpt>
      <trkpt lat="49.42742" lon="1.14731">
        <ele>137.610001</ele>
        <time>2020-12-01T12:17:32Z</time>
      </trkpt>
      <trkpt lat="49.42743" lon="1.1474">
        <ele>137.610001</ele>
        <time>2020-12-01T12:17:33Z</time>
      </trkpt>
      <trkpt lat="49.42744" lon="1.14749">
        <ele>136.160004</ele>
        <time>2020-12-01T12:17:34Z</time>
      </trkpt>
      <trkpt lat="49.42747" lon="1.14757">
        <ele>136.160004</ele>
        <time>2020-12-01T12:17:35Z</time>
      </trkpt>
      <trkpt lat="49.4275" lon="1.14765">
        <ele>135.199997</ele>
        <time>2020-12-01T12:17:36Z</time>
      </trkpt>
      <trkpt lat="49.42754" lon="1.14772">
        <ele>135.199997</ele>
        <time>2020-12-01T12:17:37Z</time>
      </trkpt>
      <trkpt lat="49.42775" lon="1.14813">
        <ele>131.360001</ele>
        <time>2020-12-01T12:17:42Z</time>
      </trkpt>
      <trkpt lat="49.42778" lon="1.14823">
        <ele>130.880005</ele>
        <time>2020-12-01T12:17:43Z</time>
      </trkpt>
      <trkpt lat="49.42779" lon="1.14834">
        <ele>130.880005</ele>
        <time>2020-12-01T12:17:44Z</time>
      </trkpt>
      <trkpt lat="49.4278" lon="1.14844">
        <ele>130.880005</ele>
        <time>2020-12-01T12:17:45Z</time>
      </trkpt>
      <trkpt lat="49.4278" lon="1.14854">
        <ele>130.880005</ele>
        <time>2020-12-01T12:17:46Z</time>
      </trkpt>
      <trkpt lat="49.4278" lon="1.14863">
        <ele>131.839996</ele>
        <time>2020-12-01T12:17:47Z</time>
      </trkpt>
      <trkpt lat="49.4278" lon="1.14872">
        <ele>131.839996</ele>
        <time>2020-12-01T12:17:48Z</time>
      </trkpt>
      <trkpt lat="49.42781" lon="1.14881">
        <ele>131.839996</ele>
        <time>2020-12-01T12:17:49Z</time>
      </trkpt>
      <trkpt lat="49.42786" lon="1.14907">
        <ele>130.399994</ele>
        <time>2020-12-01T12:17:52Z</time>
      </trkpt>
      <trkpt lat="49.42797" lon="1.14978">
        <ele>127.029999</ele>
        <time>2020-12-01T12:18:00Z</time>
      </trkpt>
      <trkpt lat="49.42797" lon="1.14985">
        <ele>127.510002</ele>
        <time>2020-12-01T12:18:01Z</time>
      </trkpt>
      <trkpt lat="49.42796" lon="1.14993">
        <ele>127.510002</ele>
        <time>2020-12-01T12:18:02Z</time>
      </trkpt>
      <trkpt lat="49.42794" lon="1.15007">
        <ele>127.510002</ele>
        <time>2020-12-01T12:18:04Z</time>
      </trkpt>
      <trkpt lat="49.42794" lon="1.15015">
        <ele>127.510002</ele>
        <time>2020-12-01T12:18:05Z</time>
      </trkpt>
      <trkpt lat="49.42793" lon="1.15048">
        <ele>127.029999</ele>
        <time>2020-12-01T12:18:09Z</time>
      </trkpt>
      <trkpt lat="49.42792" lon="1.15058">
        <ele>127.029999</ele>
        <time>2020-12-01T12:18:10Z</time>
      </trkpt>
      <trkpt lat="49.42766" lon="1.15155">
        <ele>126.07</ele>
        <time>2020-12-01T12:18:22Z</time>
      </trkpt>
      <trkpt lat="49.42762" lon="1.15161">
        <ele>126.07</ele>
        <time>2020-12-01T12:18:23Z</time>
      </trkpt>
      <trkpt lat="49.42758" lon="1.15166">
        <ele>126.07</ele>
        <time>2020-12-01T12:18:24Z</time>
      </trkpt>
      <trkpt lat="49.42741" lon="1.15181">
        <ele>127.029999</ele>
        <time>2020-12-01T12:18:28Z</time>
      </trkpt>
      <trkpt lat="49.42734" lon="1.1519">
        <ele>127.989998</ele>
        <time>2020-12-01T12:18:30Z</time>
      </trkpt>
      <trkpt lat="49.42717" lon="1.15234">
        <ele>127.989998</ele>
        <time>2020-12-01T12:18:36Z</time>
      </trkpt>
      <trkpt lat="49.42716" lon="1.15242">
        <ele>127.989998</ele>
        <time>2020-12-01T12:18:37Z</time>
      </trkpt>
      <trkpt lat="49.42716" lon="1.15251">
        <ele>127.989998</ele>
        <time>2020-12-01T12:18:38Z</time>
      </trkpt>
      <trkpt lat="49.42717" lon="1.1526">
        <ele>127.989998</ele>
        <time>2020-12-01T12:18:39Z</time>
      </trkpt>
      <trkpt lat="49.42719" lon="1.15272">
        <ele>127.029999</ele>
        <time>2020-12-01T12:18:40Z</time>
      </trkpt>
      <trkpt lat="49.42728" lon="1.15317">
        <ele>124.629997</ele>
        <time>2020-12-01T12:18:44Z</time>
      </trkpt>
      <trkpt lat="49.42732" lon="1.1535">
        <ele>122.220001</ele>
        <time>2020-12-01T12:18:47Z</time>
      </trkpt>
      <trkpt lat="49.42732" lon="1.15361">
        <ele>121.260002</ele>
        <time>2020-12-01T12:18:48Z</time>
      </trkpt>
      <trkpt lat="49.42732" lon="1.15372">
        <ele>121.260002</ele>
        <time>2020-12-01T12:18:49Z</time>
      </trkpt>
      <trkpt lat="49.4273" lon="1.15383">
        <ele>120.779999</ele>
        <time>2020-12-01T12:18:50Z</time>
      </trkpt>
      <trkpt lat="49.42729" lon="1.15393">
        <ele>120.779999</ele>
        <time>2020-12-01T12:18:51Z</time>
      </trkpt>
      <trkpt lat="49.4272" lon="1.15454">
        <ele>119.339996</ele>
        <time>2020-12-01T12:18:57Z</time>
      </trkpt>
      <trkpt lat="49.42717" lon="1.15462">
        <ele>119.82</ele>
        <time>2020-12-01T12:18:58Z</time>
      </trkpt>
      <trkpt lat="49.42715" lon="1.15467">
        <ele>120.779999</ele>
        <time>2020-12-01T12:18:59Z</time>
      </trkpt>
      <trkpt lat="49.42712" lon="1.15471">
        <ele>121.260002</ele>
        <time>2020-12-01T12:19:00Z</time>
      </trkpt>
      <trkpt lat="49.42708" lon="1.15474">
        <ele>121.739998</ele>
        <time>2020-12-01T12:19:01Z</time>
      </trkpt>
      <trkpt lat="49.42702" lon="1.15482">
        <ele>121.739998</ele>
        <time>2020-12-01T12:19:04Z</time>
      </trkpt>
      <trkpt lat="49.42702" lon="1.15485">
        <ele>121.739998</ele>
        <time>2020-12-01T12:19:05Z</time>
      </trkpt>
      <trkpt lat="49.42703" lon="1.15487">
        <ele>121.739998</ele>
        <time>2020-12-01T12:19:06Z</time>
      </trkpt>
      <trkpt lat="49.42706" lon="1.1549">
        <ele>121.739998</ele>
        <time>2020-12-01T12:19:09Z</time>
      </trkpt>
      <trkpt lat="49.42708" lon="1.1549">
        <ele>121.739998</ele>
        <time>2020-12-01T12:19:10Z</time>
      </trkpt>
      <trkpt lat="49.4271" lon="1.15489">
        <ele>118.379997</ele>
        <time>2020-12-01T12:19:11Z</time>
      </trkpt>
      <trkpt lat="49.42712" lon="1.15487">
        <ele>116.940002</ele>
        <time>2020-12-01T12:19:12Z</time>
      </trkpt>
      <trkpt lat="49.42714" lon="1.15486">
        <ele>115.5</ele>
        <time>2020-12-01T12:19:13Z</time>
      </trkpt>
      <trkpt lat="49.42716" lon="1.15484">
        <ele>115.5</ele>
        <time>2020-12-01T12:19:14Z</time>
      </trkpt>
      <trkpt lat="49.4273" lon="1.15469">
        <ele>113.089996</ele>
        <time>2020-12-01T12:19:18Z</time>
      </trkpt>
      <trkpt lat="49.42742" lon="1.15451">
        <ele>108.769997</ele>
        <time>2020-12-01T12:19:21Z</time>
      </trkpt>
      <trkpt lat="49.42758" lon="1.15427">
        <ele>111.169998</ele>
        <time>2020-12-01T12:19:26Z</time>
      </trkpt>
      <trkpt lat="49.42768" lon="1.15415">
        <ele>108.769997</ele>
        <time>2020-12-01T12:19:30Z</time>
      </trkpt>
      <trkpt lat="49.42787" lon="1.15382">
        <ele>108.769997</ele>
        <time>2020-12-01T12:19:42Z</time>
      </trkpt>
      <trkpt lat="49.42793" lon="1.1537">
        <ele>105.400002</ele>
        <time>2020-12-01T12:19:46Z</time>
      </trkpt>
      <trkpt lat="49.42799" lon="1.15359">
        <ele>102.040001</ele>
        <time>2020-12-01T12:19:50Z</time>
      </trkpt>
      <trkpt lat="49.42805" lon="1.1535">
        <ele>100.599998</ele>
        <time>2020-12-01T12:19:53Z</time>
      </trkpt>
      <trkpt lat="49.42824" lon="1.15315">
        <ele>97.230003</ele>
        <time>2020-12-01T12:20:02Z</time>
      </trkpt>
      <trkpt lat="49.42842" lon="1.15293">
        <ele>96.269997</ele>
        <time>2020-12-01T12:20:10Z</time>
      </trkpt>
      <trkpt lat="49.42846" lon="1.15295">
        <ele>95.309998</ele>
        <time>2020-12-01T12:20:13Z</time>
      </trkpt>
      <trkpt lat="49.42847" lon="1.15298">
        <ele>97.230003</ele>
        <time>2020-12-01T12:20:15Z</time>
      </trkpt>
      <trkpt lat="49.42844" lon="1.15303">
        <ele>97.230003</ele>
        <time>2020-12-01T12:20:16Z</time>
      </trkpt>
      <trkpt lat="49.42827" lon="1.1534">
        <ele>101.080002</ele>
        <time>2020-12-01T12:20:26Z</time>
      </trkpt>
      <trkpt lat="49.42801" lon="1.15376">
        <ele>104.440002</ele>
        <time>2020-12-01T12:20:35Z</time>
      </trkpt>
      <trkpt lat="49.42775" lon="1.1543">
        <ele>107.809998</ele>
        <time>2020-12-01T12:20:45Z</time>
      </trkpt>
      <trkpt lat="49.42754" lon="1.15481">
        <ele>111.169998</ele>
        <time>2020-12-01T12:20:55Z</time>
      </trkpt>
      <trkpt lat="49.4275" lon="1.15492">
        <ele>114.529999</ele>
        <time>2020-12-01T12:21:01Z</time>
      </trkpt>
      <trkpt lat="49.42751" lon="1.15491">
        <ele>114.529999</ele>
        <time>2020-12-01T12:21:02Z</time>
      </trkpt>
      <trkpt lat="49.42754" lon="1.15466">
        <ele>117.419998</ele>
        <time>2020-12-01T12:21:17Z</time>
      </trkpt>
      <trkpt lat="49.42746" lon="1.15453">
        <ele>120.779999</ele>
        <time>2020-12-01T12:21:25Z</time>
      </trkpt>
      <trkpt lat="49.42742" lon="1.1545">
        <ele>121.260002</ele>
        <time>2020-12-01T12:21:28Z</time>
      </trkpt>
      <trkpt lat="49.4272" lon="1.15474">
        <ele>123.190002</ele>
        <time>2020-12-01T12:21:43Z</time>
      </trkpt>
      <trkpt lat="49.42726" lon="1.15475">
        <ele>115.980003</ele>
        <time>2020-12-01T12:21:46Z</time>
      </trkpt>
      <trkpt lat="49.42729" lon="1.15475">
        <ele>116.940002</ele>
        <time>2020-12-01T12:21:47Z</time>
      </trkpt>
      <trkpt lat="49.42744" lon="1.15466">
        <ele>114.529999</ele>
        <time>2020-12-01T12:21:50Z</time>
      </trkpt>
      <trkpt lat="49.42752" lon="1.15456">
        <ele>111.650002</ele>
        <time>2020-12-01T12:21:52Z</time>
      </trkpt>
      <trkpt lat="49.42764" lon="1.1544">
        <ele>109.730003</ele>
        <time>2020-12-01T12:21:55Z</time>
      </trkpt>
      <trkpt lat="49.42772" lon="1.15429">
        <ele>111.169998</ele>
        <time>2020-12-01T12:21:58Z</time>
      </trkpt>
      <trkpt lat="49.42777" lon="1.15415">
        <ele>109.730003</ele>
        <time>2020-12-01T12:22:06Z</time>
      </trkpt>
      <trkpt lat="49.42778" lon="1.15411">
        <ele>108.290001</ele>
        <time>2020-12-01T12:22:09Z</time>
      </trkpt>
      <trkpt lat="49.42779" lon="1.15409">
        <ele>108.290001</ele>
        <time>2020-12-01T12:22:10Z</time>
      </trkpt>
      <trkpt lat="49.42783" lon="1.15382">
        <ele>106.360001</ele>
        <time>2020-12-01T12:22:18Z</time>
      </trkpt>
      <trkpt lat="49.42789" lon="1.1537">
        <ele>105.400002</ele>
        <time>2020-12-01T12:22:20Z</time>
      </trkpt>
      <trkpt lat="49.428" lon="1.15355">
        <ele>101.559998</ele>
        <time>2020-12-01T12:22:25Z</time>
      </trkpt>
      <trkpt lat="49.42803" lon="1.15351">
        <ele>101.080002</ele>
        <time>2020-12-01T12:22:27Z</time>
      </trkpt>
      <trkpt lat="49.42808" lon="1.15345">
        <ele>101.080002</ele>
        <time>2020-12-01T12:22:29Z</time>
      </trkpt>
      <trkpt lat="49.42811" lon="1.15343">
        <ele>99.629997</ele>
        <time>2020-12-01T12:22:30Z</time>
      </trkpt>
      <trkpt lat="49.42822" lon="1.15325">
        <ele>97.709999</ele>
        <time>2020-12-01T12:22:34Z</time>
      </trkpt>
      <trkpt lat="49.42823" lon="1.15319">
        <ele>97.709999</ele>
        <time>2020-12-01T12:22:35Z</time>
      </trkpt>
      <trkpt lat="49.42825" lon="1.15315">
        <ele>97.709999</ele>
        <time>2020-12-01T12:22:36Z</time>
      </trkpt>
      <trkpt lat="49.42844" lon="1.15264">
        <ele>100.599998</ele>
        <time>2020-12-01T12:22:49Z</time>
      </trkpt>
      <trkpt lat="49.42844" lon="1.1526">
        <ele>101.559998</ele>
        <time>2020-12-01T12:22:50Z</time>
      </trkpt>
      <trkpt lat="49.42844" lon="1.15257">
        <ele>101.559998</ele>
        <time>2020-12-01T12:22:51Z</time>
      </trkpt>
      <trkpt lat="49.42848" lon="1.1525">
        <ele>102.040001</ele>
        <time>2020-12-01T12:23:08Z</time>
      </trkpt>
      <trkpt lat="49.42851" lon="1.15235">
        <ele>103</ele>
        <time>2020-12-01T12:23:28Z</time>
      </trkpt>
      <trkpt lat="49.42851" lon="1.15232">
        <ele>103</ele>
        <time>2020-12-01T12:23:29Z</time>
      </trkpt>
      <trkpt lat="49.42851" lon="1.15218">
        <ele>103.480003</ele>
        <time>2020-12-01T12:23:33Z</time>
      </trkpt>
      <trkpt lat="49.42852" lon="1.15215">
        <ele>102.040001</ele>
        <time>2020-12-01T12:23:34Z</time>
      </trkpt>
      <trkpt lat="49.42861" lon="1.15201">
        <ele>99.629997</ele>
        <time>2020-12-01T12:23:39Z</time>
      </trkpt>
      <trkpt lat="49.42863" lon="1.152">
        <ele>99.150002</ele>
        <time>2020-12-01T12:23:40Z</time>
      </trkpt>
      <trkpt lat="49.42865" lon="1.152">
        <ele>98.669998</ele>
        <time>2020-12-01T12:23:41Z</time>
      </trkpt>
      <trkpt lat="49.42867" lon="1.15201">
        <ele>97.709999</ele>
        <time>2020-12-01T12:23:42Z</time>
      </trkpt>
      <trkpt lat="49.42869" lon="1.15202">
        <ele>96.269997</ele>
        <time>2020-12-01T12:23:43Z</time>
      </trkpt>
      <trkpt lat="49.42877" lon="1.15209">
        <ele>91.459999</ele>
        <time>2020-12-01T12:23:47Z</time>
      </trkpt>
      <trkpt lat="49.42878" lon="1.15209">
        <ele>91.459999</ele>
        <time>2020-12-01T12:23:48Z</time>
      </trkpt>
      <trkpt lat="49.42882" lon="1.15212">
        <ele>90.980003</ele>
        <time>2020-12-01T12:23:56Z</time>
      </trkpt>
      <trkpt lat="49.42879" lon="1.15234">
        <ele>93.389999</ele>
        <time>2020-12-01T12:24:03Z</time>
      </trkpt>
      <trkpt lat="49.42877" lon="1.15238">
        <ele>93.389999</ele>
        <time>2020-12-01T12:24:04Z</time>
      </trkpt>
      <trkpt lat="49.42866" lon="1.15254">
        <ele>93.870003</ele>
        <time>2020-12-01T12:24:09Z</time>
      </trkpt>
      <trkpt lat="49.42862" lon="1.15255">
        <ele>94.349998</ele>
        <time>2020-12-01T12:24:11Z</time>
      </trkpt>
      <trkpt lat="49.42874" lon="1.15206">
        <ele>90.980003</ele>
        <time>2020-12-01T12:24:22Z</time>
      </trkpt>
      <trkpt lat="49.42882" lon="1.1519">
        <ele>89.059998</ele>
        <time>2020-12-01T12:24:24Z</time>
      </trkpt>
      <trkpt lat="49.42888" lon="1.15183">
        <ele>88.580002</ele>
        <time>2020-12-01T12:24:25Z</time>
      </trkpt>
      <trkpt lat="49.42893" lon="1.15178">
        <ele>88.099998</ele>
        <time>2020-12-01T12:24:26Z</time>
      </trkpt>
      <trkpt lat="49.42898" lon="1.15175">
        <ele>87.620003</ele>
        <time>2020-12-01T12:24:27Z</time>
      </trkpt>
      <trkpt lat="49.42903" lon="1.15175">
        <ele>87.620003</ele>
        <time>2020-12-01T12:24:28Z</time>
      </trkpt>
      <trkpt lat="49.42921" lon="1.15193">
        <ele>86.18</ele>
        <time>2020-12-01T12:24:32Z</time>
      </trkpt>
      <trkpt lat="49.42925" lon="1.152">
        <ele>85.690002</ele>
        <time>2020-12-01T12:24:33Z</time>
      </trkpt>
      <trkpt lat="49.42929" lon="1.15206">
        <ele>85.690002</ele>
        <time>2020-12-01T12:24:34Z</time>
      </trkpt>
      <trkpt lat="49.42933" lon="1.15214">
        <ele>85.690002</ele>
        <time>2020-12-01T12:24:35Z</time>
      </trkpt>
      <trkpt lat="49.42938" lon="1.15231">
        <ele>81.849998</ele>
        <time>2020-12-01T12:24:39Z</time>
      </trkpt>
      <trkpt lat="49.42941" lon="1.15233">
        <ele>80.889999</ele>
        <time>2020-12-01T12:24:40Z</time>
      </trkpt>
      <trkpt lat="49.42943" lon="1.1523">
        <ele>80.889999</ele>
        <time>2020-12-01T12:24:41Z</time>
      </trkpt>
      <trkpt lat="49.42945" lon="1.15227">
        <ele>80.889999</ele>
        <time>2020-12-01T12:24:42Z</time>
      </trkpt>
      <trkpt lat="49.42947" lon="1.1522">
        <ele>80.889999</ele>
        <time>2020-12-01T12:24:43Z</time>
      </trkpt>
      <trkpt lat="49.42948" lon="1.15213">
        <ele>81.370003</ele>
        <time>2020-12-01T12:24:44Z</time>
      </trkpt>
      <trkpt lat="49.42949" lon="1.15205">
        <ele>80.889999</ele>
        <time>2020-12-01T12:24:45Z</time>
      </trkpt>
      <trkpt lat="49.4297" lon="1.15089">
        <ele>79.449997</ele>
        <time>2020-12-01T12:24:59Z</time>
      </trkpt>
      <trkpt lat="49.42995" lon="1.15028">
        <ele>76.080002</ele>
        <time>2020-12-01T12:25:06Z</time>
      </trkpt>
      <trkpt lat="49.43029" lon="1.14926">
        <ele>73.199997</ele>
        <time>2020-12-01T12:25:15Z</time>
      </trkpt>
      <trkpt lat="49.43097" lon="1.14798">
        <ele>73.68</ele>
        <time>2020-12-01T12:25:29Z</time>
      </trkpt>
      <trkpt lat="49.4313" lon="1.14686">
        <ele>70.790001</ele>
        <time>2020-12-01T12:25:43Z</time>
      </trkpt>
      <trkpt lat="49.43132" lon="1.14681">
        <ele>70.790001</ele>
        <time>2020-12-01T12:25:44Z</time>
      </trkpt>
      <trkpt lat="49.43136" lon="1.14678">
        <ele>69.830002</ele>
        <time>2020-12-01T12:25:45Z</time>
      </trkpt>
      <trkpt lat="49.43139" lon="1.14676">
        <ele>68.870003</ele>
        <time>2020-12-01T12:25:46Z</time>
      </trkpt>
      <trkpt lat="49.43143" lon="1.14674">
        <ele>68.870003</ele>
        <time>2020-12-01T12:25:47Z</time>
      </trkpt>
      <trkpt lat="49.43146" lon="1.14671">
        <ele>68.870003</ele>
        <time>2020-12-01T12:25:48Z</time>
      </trkpt>
      <trkpt lat="49.43147" lon="1.14668">
        <ele>68.870003</ele>
        <time>2020-12-01T12:25:49Z</time>
      </trkpt>
      <trkpt lat="49.43149" lon="1.14664">
        <ele>68.870003</ele>
        <time>2020-12-01T12:25:50Z</time>
      </trkpt>
      <trkpt lat="49.43152" lon="1.1466">
        <ele>67.43</ele>
        <time>2020-12-01T12:25:51Z</time>
      </trkpt>
      <trkpt lat="49.43165" lon="1.14647">
        <ele>63.099998</ele>
        <time>2020-12-01T12:25:54Z</time>
      </trkpt>
      <trkpt lat="49.4317" lon="1.14643">
        <ele>61.66</ele>
        <time>2020-12-01T12:25:55Z</time>
      </trkpt>
      <trkpt lat="49.43178" lon="1.14634">
        <ele>59.259998</ele>
        <time>2020-12-01T12:25:57Z</time>
      </trkpt>
      <trkpt lat="49.43183" lon="1.14622">
        <ele>59.259998</ele>
        <time>2020-12-01T12:25:59Z</time>
      </trkpt>
      <trkpt lat="49.43186" lon="1.14614">
        <ele>60.700001</ele>
        <time>2020-12-01T12:26:00Z</time>
      </trkpt>
      <trkpt lat="49.43187" lon="1.14609">
        <ele>60.700001</ele>
        <time>2020-12-01T12:26:01Z</time>
      </trkpt>
      <trkpt lat="49.43187" lon="1.14602">
        <ele>60.700001</ele>
        <time>2020-12-01T12:26:02Z</time>
      </trkpt>
      <trkpt lat="49.43186" lon="1.14595">
        <ele>60.700001</ele>
        <time>2020-12-01T12:26:03Z</time>
      </trkpt>
      <trkpt lat="49.43193" lon="1.14564">
        <ele>64.07</ele>
        <time>2020-12-01T12:26:11Z</time>
      </trkpt>
      <trkpt lat="49.43196" lon="1.14563">
        <ele>64.07</ele>
        <time>2020-12-01T12:26:12Z</time>
      </trkpt>
      <trkpt lat="49.43211" lon="1.14557">
        <ele>67.910004</ele>
        <time>2020-12-01T12:26:19Z</time>
      </trkpt>
      <trkpt lat="49.43216" lon="1.14552">
        <ele>66.470001</ele>
        <time>2020-12-01T12:26:22Z</time>
      </trkpt>
      <trkpt lat="49.4323" lon="1.14545">
        <ele>64.550003</ele>
        <time>2020-12-01T12:26:30Z</time>
      </trkpt>
      <trkpt lat="49.43232" lon="1.14547">
        <ele>62.619999</ele>
        <time>2020-12-01T12:26:31Z</time>
      </trkpt>
      <trkpt lat="49.43233" lon="1.1455">
        <ele>61.18</ele>
        <time>2020-12-01T12:26:32Z</time>
      </trkpt>
      <trkpt lat="49.43235" lon="1.14551">
        <ele>61.18</ele>
        <time>2020-12-01T12:26:33Z</time>
      </trkpt>
      <trkpt lat="49.43238" lon="1.14548">
        <ele>62.619999</ele>
        <time>2020-12-01T12:26:35Z</time>
      </trkpt>
      <trkpt lat="49.43238" lon="1.14545">
        <ele>63.580002</ele>
        <time>2020-12-01T12:26:36Z</time>
      </trkpt>
      <trkpt lat="49.43238" lon="1.14542">
        <ele>63.580002</ele>
        <time>2020-12-01T12:26:37Z</time>
      </trkpt>
      <trkpt lat="49.43263" lon="1.14454">
        <ele>65.029999</ele>
        <time>2020-12-01T12:26:52Z</time>
      </trkpt>
      <trkpt lat="49.4327" lon="1.14437">
        <ele>63.099998</ele>
        <time>2020-12-01T12:26:54Z</time>
      </trkpt>
      <trkpt lat="49.4331" lon="1.14364">
        <ele>59.740002</ele>
        <time>2020-12-01T12:27:03Z</time>
      </trkpt>
      <trkpt lat="49.43319" lon="1.14354">
        <ele>57.82</ele>
        <time>2020-12-01T12:27:05Z</time>
      </trkpt>
      <trkpt lat="49.43323" lon="1.14352">
        <ele>56.860001</ele>
        <time>2020-12-01T12:27:06Z</time>
      </trkpt>
      <trkpt lat="49.43327" lon="1.14351">
        <ele>55.889999</ele>
        <time>2020-12-01T12:27:07Z</time>
      </trkpt>
      <trkpt lat="49.43331" lon="1.14352">
        <ele>54.93</ele>
        <time>2020-12-01T12:27:08Z</time>
      </trkpt>
      <trkpt lat="49.43335" lon="1.14354">
        <ele>53.970001</ele>
        <time>2020-12-01T12:27:09Z</time>
      </trkpt>
      <trkpt lat="49.4334" lon="1.14357">
        <ele>51.09</ele>
        <time>2020-12-01T12:27:10Z</time>
      </trkpt>
      <trkpt lat="49.43344" lon="1.1436">
        <ele>50.610001</ele>
        <time>2020-12-01T12:27:11Z</time>
      </trkpt>
      <trkpt lat="49.43347" lon="1.14365">
        <ele>50.130001</ele>
        <time>2020-12-01T12:27:12Z</time>
      </trkpt>
      <trkpt lat="49.4335" lon="1.14369">
        <ele>49.16</ele>
        <time>2020-12-01T12:27:13Z</time>
      </trkpt>
      <trkpt lat="49.43353" lon="1.14373">
        <ele>49.16</ele>
        <time>2020-12-01T12:27:14Z</time>
      </trkpt>
      <trkpt lat="49.43355" lon="1.14376">
        <ele>49.650002</ele>
        <time>2020-12-01T12:27:15Z</time>
      </trkpt>
      <trkpt lat="49.43364" lon="1.14392">
        <ele>49.650002</ele>
        <time>2020-12-01T12:27:24Z</time>
      </trkpt>
      <trkpt lat="49.43361" lon="1.14395">
        <ele>49.650002</ele>
        <time>2020-12-01T12:27:40Z</time>
      </trkpt>
      <trkpt lat="49.4336" lon="1.14397">
        <ele>49.650002</ele>
        <time>2020-12-01T12:27:58Z</time>
      </trkpt>
      <trkpt lat="49.43357" lon="1.14398">
        <ele>49.650002</ele>
        <time>2020-12-01T12:28:15Z</time>
      </trkpt>
      <trkpt lat="49.43357" lon="1.14397">
        <ele>50.130001</ele>
        <time>2020-12-01T12:28:31Z</time>
      </trkpt>
      <trkpt lat="49.43352" lon="1.14396">
        <ele>49.16</ele>
        <time>2020-12-01T12:28:48Z</time>
      </trkpt>
    </trkseg>
  </trk>
</gpx>